     2              OBSERVATION DATA    GPS                 RINEX VERSION / TYPE
teqc 2000Feb29 Duncan Agnew 20000426 17:41:36UTC            PGM / RUN BY / DATE
                                                            COMMENT
L2: 1 -> 1; 150 -> 5; 250 -> 9                              COMMENT
L2: 1 -> 1; 150 -> 5; 250 -> 9                              COMMENT
L2: 1 -> 1; 150 -> 5; 250 -> 9                              COMMENT
L2: 1 -> 1; 150 -> 5; 250 -> 9                              COMMENT
L2: 1 -> 1; 150 -> 5; 250 -> 9                              COMMENT
Original Marker Name: PKO2                                  COMMENT
Campaign Name: Hector Postseismic                           COMMENT
4-Character Station Name: PK02                              COMMENT
6-Character Antenna Code: DMRCHT                            COMMENT
Vertical Measurement Point: BCR                             COMMENT
Vertical Offset to Rinex Ref. Point: 0.0348                 COMMENT
Radial Measurement Point: ECF                               COMMENT
Radial Offset to Rinex Ref. Point: 0.1897                   COMMENT
Antenna Height from Field Measurement: 0.7440 m             COMMENT
Additional Antenna Identification Info.:                    COMMENT
Turborogue and Ashtech Choke Ring                           COMMENT
Original XYZ: -2314421.3322 -4698810.9020 3628296.5253      COMMENT
New XYZ position is based on association with SCEC monument COMMENT
E1F2T8V9+0011. Position of that monument is believed to be  COMMENT
valid to within 1 m horizontally; vertical accuracy         COMMENT
should be no worse than 3-times this value.                 COMMENT
                                                            COMMENT
Revised Rinex header created by UCSD GPS archive for        COMMENT
GSAC on 16-Jun-2000 (2000:168) 22:18:33 GMT                 COMMENT
For assistance contact dagnew@ucsd.edu                      COMMENT
or anderson@python.ucsd.edu                                 COMMENT
                                                            COMMENT
PK02 99                                                     MARKER NAME
DAE SCRIPPS INSTITUTION OF OCEANOGRAPHY                     OBSERVER / AGENCY
317 ASHTECH Z-XII3 CC00                                     REC # / TYPE / VERS
408 DORNE-MARGOL. TYPE T                                    ANT # / TYPE
 -2314393.8856 -4698726.5985  3628259.0748                  APPROX POSITION XYZ
        0.6846        0.0000        0.0000                  ANTENNA: DELTA H/E/N
     1     1     0                                          WAVELENGTH FACT L1/2
     7    C1    L1    L2    P1    P2    S1    S2            # / TYPES OF OBSERV
     0                                                      INTERVAL
  2000     3    15     0     0   30.000000                  TIME OF FIRST OBS
  2000     3    15    23    59   30.000000                  TIME OF LAST OBS
                                                            END OF HEADER
 00  3 15  0  0 30.0000000  0  6G17G 5G10G30G24G 6
  22805636.419   -15630608.89649 -11957506.48146  22805635.557    22805651.206
       225.000         177.000
  22133851.405    -8278102.86349  -6438861.88346  22133851.443    22133866.261
       230.000         184.000
  20972945.451   -21069491.01849 -15736583.64647  20972945.052    20972957.242
       240.000         206.000
  20773915.016   -13738355.80149 -10694268.12947  20773915.597    20773927.118
       244.000         210.000
  23154997.264    -7625841.46249  -4665099.03146  23154997.948    23155015.050
       220.000         166.000
  21093907.417   -16610507.12449 -12931796.84747  21093906.812    21093918.921
       241.000         208.000
 00  3 15  0  1  0.0000000  0  6G17G 5G10G30G24G 6
  22793210.642   -15695906.05749 -12008387.20946  22793209.609    22793224.805
       224.000         176.000
  22151400.371    -8185883.02049  -6367002.43746  22151400.545    22151415.187
       230.000         184.000
  20979636.051   -21034331.53049 -15709186.64447  20979635.521    20979647.865
       240.000         206.000
  20780639.222   -13703019.89749 -10666733.70647  20780639.643    20780651.031
       245.000         210.000
  23169387.534    -7550221.19049  -4606174.31246  23169387.747    23169404.500
       220.000         166.000
  21084043.597   -16662341.66549 -12972187.34347  21084044.000    21084055.279
       242.000         208.000
 00  3 15  0  1 30.0000000  0  6G17G 5G10G30G24G 6
  22780825.155   -15760991.01849 -12059102.59846  22780825.603    22780839.687
       227.000         177.000
  22169000.475    -8093394.09349  -6294933.32546  22169001.180    22169015.674
       231.000         185.000
  20986427.641   -20998641.80949 -15681376.48647  20986427.019    20986439.322
       240.000         206.000
  20787480.591   -13667068.52449 -10638719.68347  20787481.146    20787492.309
       244.000         210.000
  23183779.466    -7474592.60849  -4547243.09346  23183779.433    23183795.540
       219.000         165.000
  21074214.336   -16713995.26049 -13012436.84347  21074213.775    21074225.748
       240.000         208.000
 00  3 15  0  2  0.0000000  0  6G17G 5G10G30G24G 6
  22768481.459   -15825857.24049 -12109647.52446  22768481.708    22768495.970
       226.000         177.000
  22186653.657    -8000627.04849  -6222647.47846  22186653.529    22186668.372
       230.000         185.000
  20993320.851   -20962417.72649 -15653149.94147  20993320.507    20993332.419
       241.000         205.000
  20794439.479   -13630499.45149 -10610224.35247  20794439.689    20794451.533
       242.000         210.000
  23198171.583    -7398962.87149  -4488310.98846  23198172.799    23198188.180
       220.000         165.000
  21064422.563   -16765450.00349 -13052531.39447  21064422.584    21064433.806
       241.000         207.000
 00  3 15  0  2 30.0000000  0  6G17G 5G10G30G24G 6
  22756178.161   -15890510.49749 -12160026.53146  22756177.986    22756193.476
       227.000         177.000
  22204362.374    -7907567.52549  -6150133.74546  22204362.480    22204377.471
       230.000         185.000
  21000319.406   -20925640.15649 -15624492.10347  21000318.922    21000330.748
       240.000         205.000
  20801514.170   -13593321.75249 -10581254.75847  20801514.341    20801525.891
       243.000         210.000
  23212565.995    -7323320.39449  -4429368.93446  23212565.925    23212581.494
       219.000         164.000
  21054672.572   -16816686.13149 -13092455.58747  21054672.973    21054684.106
       242.000         208.000
 00  3 15  0  3  0.0000000  0  6G17G 5G10G30G24G 6
  22743915.540   -15954950.57949 -12210239.41446  22743914.646    22743929.708
       226.000         179.000
  22222126.292    -7814217.99849  -6077394.03746  22222126.262    22222142.001
       230.000         184.000
  21007427.526   -20888286.89349 -15595385.68347  21007427.091    21007439.348
       240.000         206.000
  20808698.029   -13555570.10649 -10551837.93547  20808698.418    20808710.070
       243.000         209.000
  23226963.374    -7247661.26249  -4370413.89946  23226963.608    23226978.422
       218.000         163.000
  21044966.531   -16867691.09549 -13132199.65647  21044966.383    21044978.010
       241.000         208.000
 00  3 15  0  3 30.0000000  0  7G17G13G 5G10G30G24G 6
  22731688.003   -16019205.94149 -12260308.38946  22731687.580    22731702.288
       226.000         179.000
  24866636.971    -3716299.83949  -2787493.45545  24866636.666    24866655.950
       202.000         133.000
  22239939.061    -7720612.30749  -6004454.71346  22239938.941    22239953.508
       230.000         184.000
  21014643.952   -20850363.99049 -15565835.38347  21014643.515    21014655.672
       241.000         205.000
  20815980.495   -13517300.64149 -10522017.62047  20815981.006    20815992.459
       243.000         210.000
  23241356.028    -7172027.29349  -4311478.48346  23241355.265    23241372.795
       217.000         163.000
  21035298.515   -16918496.88849 -13171788.54447  21035298.316    21035310.268
       240.000         208.000
 00  3 15  0  4  0.0000000  0  7G17G13G 5G10G30G24G 6
  22719500.501   -16083250.84449 -12310213.34046  22719499.818    22719514.773
       227.000         180.000
  24863660.423    -3731940.77649  -2799681.01745  24863661.495    24863679.250
       204.000         135.000
  22257802.271    -7626741.54749  -5931308.84246  22257802.434    22257817.341
       231.000         184.000
  21021974.288   -20811843.12749 -15535819.14847  21021973.770    21021985.738
       241.000         205.000
  20823359.000   -13478526.06649 -10491803.71647  20823359.918    20823370.907
       243.000         209.000
  23255748.178    -7096396.21149  -4252545.32946  23255749.020    23255764.578
       218.000         163.000
  21025672.677   -16969080.80749 -13211204.53347  21025673.149    21025684.437
       242.000         208.000
 00  3 15  0  4 30.0000000  0  7G17G13G 5G10G30G24G 6
  22707355.974   -16147070.10049 -12359942.49346  22707355.435    22707371.230
       224.000         179.000
  24860770.429    -3747127.34949  -2811514.56145  24860770.147    24860788.789
       205.000         135.000
  22275717.753    -7532595.94249  -5857948.82046  22275718.121    22275732.926
       232.000         184.000
  21029416.425   -20772734.61849 -15505344.99947  21029416.028    21029428.229
       240.000         205.000
  20830832.144   -13439254.66149 -10461202.66747  20830833.084    20830844.303
       243.000         209.000
  23270141.830    -7020758.24849  -4193606.79145  23270141.756    23270157.903
       219.000         162.000
  21016090.190   -17019437.23149 -13250443.25947  21016089.834    21016100.899
       240.000         208.000
 00  3 15  0  5  0.0000000  0  7G17G13G 5G10G30G24G 6
  22695251.378   -16210679.75049 -12409508.30246  22695250.475    22695266.477
       225.000         180.000
  24857965.501    -3761867.90349  -2823000.56645  24857965.379    24857984.778
       207.000         136.000
  22293683.702    -7438185.31349  -5784382.29146  22293684.054    22293698.684
       231.000         184.000
  21036965.133   -20733065.86449 -15474434.30247  21036964.473    21036976.633
       240.000         205.000
  20838399.848   -13399486.54849 -10430214.57247  20838400.565    20838412.301
       243.000         209.000
  23284533.852    -6945128.34949  -4134674.55145  23284533.503    23284549.294
       217.000         162.000
  21006547.597   -17069582.85549 -13289517.72047  21006547.620    21006559.447
       242.000         209.000
 00  3 15  0  5 30.0000000  0  7G17G13G 5G10G30G24G 6
  22683184.808   -16274088.69449 -12458917.73846  22683184.578    22683199.994
       227.000         180.000
  24855246.525    -3776156.12049  -2834134.08345  24855246.051    24855265.588
       206.000         137.000
  22311697.798    -7343521.65249  -5710618.57746  22311697.923    22311713.023
       228.000         184.000
  21044615.093   -20692865.15949 -15443109.10547  21044614.457    21044626.607
       240.000         204.000
  20846064.526   -13359208.67649 -10398829.26447  20846065.479    20846076.420
       243.000         209.000
  23298922.945    -6869512.69749  -4075753.39245  23298923.121    23298939.777
       217.000         162.000
  20997044.624   -17119521.69949 -13328431.05647  20997044.109    20997056.589
       242.000         209.000
 00  3 15  0  6  0.0000000  0  7G17G13G 5G10G30G24G 6
  22671155.297   -16337304.39849 -12508176.58646  22671154.266    22671169.275
       226.000         180.000
  24852612.455    -3789997.37049  -2844919.34245  24852612.464    24852630.684
       205.000         136.000
  22329755.771    -7248627.23449  -5636675.05146  22329756.072    22329771.049
       229.000         182.000
  21052359.959   -20652165.61249 -15411395.18947  21052359.415    21052371.855
       241.000         204.000
  20853827.103   -13318416.33849 -10367043.08247  20853827.676    20853839.147
       243.000         209.000
  23313309.640    -6793910.23249  -4016842.52245  23313310.551    23313325.889
       219.000         161.000
  20987580.530   -17169255.42349 -13367184.56247  20987580.800    20987591.900
       243.000         210.000
 00  3 15  0  6 30.0000000  0  7G17G13G 5G10G30G24G 6
  22659159.568   -16400342.21049 -12557296.84346  22659158.281    22659173.860
       226.000         181.000
  24850062.933    -3803394.15649  -2855358.26645  24850063.269    24850081.867
       205.000         136.000
  22347856.014    -7153510.68649  -5562558.44346  22347855.891    22347871.288
       228.000         181.000
  21060198.163   -20610975.79449 -15379299.27147  21060197.938    21060209.960
       240.000         205.000
  20861692.483   -13277083.85449 -10334836.00347  20861693.330    20861704.620
       243.000         209.000
  23327693.176    -6718324.64749  -3957944.80945  23327693.784    23327710.233
       218.000         161.000
  20978152.877   -17218798.59349 -13405789.58347  20978152.597    20978164.356
       242.000         210.000
 00  3 15  0  7  0.0000000  0  7G17G13G 5G10G30G24G 6
  22647197.572   -16463202.46949 -12606278.74446  22647196.922    22647212.445
       228.000         182.000
  24847599.030    -3816341.03349  -2865446.62645  24847597.896    24847615.823
       202.000         135.000
  22365996.766    -7058180.55049  -5488275.42446  22365996.992    22366012.039
       226.000         180.000
  21068135.455   -20569265.41049 -15346797.69447  21068134.674    21068147.103
       239.000         204.000
  20869665.206   -13235187.04549 -10302189.19047  20869665.981    20869677.224
       242.000         209.000
  23342075.439    -6642746.96749  -3899053.26245  23342076.057    23342091.453
       219.000         161.000
  20968764.347   -17268135.70849 -13444234.04647  20968764.446    20968775.293
       242.000         210.000
 00  3 15  0  7 30.0000000  0  7G17G13G 5G10G30G24G 6
  22635275.179   -16525855.13449 -12655098.89746  22635274.206    22635289.013
       228.000         182.000
  24845223.601    -3828822.89149  -2875172.59045  24845223.779    24845241.939
       202.000         135.000
  22384176.567    -6962644.96649  -5413832.31446  22384176.827    22384192.318
       226.000         179.000
  21076176.896   -20527007.33549 -15313869.35247  21076176.277    21076188.708
       239.000         204.000
  20877749.707   -13192703.32249 -10269085.04047  20877750.574    20877761.605
       243.000         209.000
  23356459.237    -6567159.24249  -3840153.87145  23356459.290    23356475.339
       217.000         161.000
  20959418.399   -17317248.64749 -13482503.82047  20959418.716    20959429.227
       243.000         210.000
 00  3 15  0  8  0.0000000  0  7G17G13G 5G10G30G24G 6
  22623394.935   -16588285.51649 -12703745.84346  22623394.660    22623408.874
       228.000         182.000
  24842936.613    -3840840.06549  -2884536.51445  24842937.352    24842954.388
       203.000         134.000
  22402398.411    -6866888.41249  -5339217.02046  22402398.182    22402414.059
       224.000         178.000
  21084329.272   -20484165.74549 -15280486.32947  21084328.953    21084341.181
       239.000         204.000
  20885947.344   -13149624.50449 -10235517.18547  20885947.859    20885959.392
       242.000         209.000
  23370847.482    -6491549.80249  -3781237.56545  23370848.998    23370863.824
       221.000         162.000
  20950116.331   -17366131.35249 -13520594.19147  20950116.426    20950127.778
       244.000         210.000
 00  3 15  0  8 30.0000000  0  7G17G13G 5G10G30G24G 6
  22611559.268   -16650481.68149 -12752210.27146  22611558.913    22611573.451
       229.000         182.000
  24840741.696    -3852374.97849  -2893524.62545  24840742.122    24840760.877
       202.000         134.000
  22420668.594    -6770878.75149  -5264404.49846  22420668.314    22420684.637
       226.000         179.000
  21092597.803   -20440714.40149 -15246628.17847  21092597.079    21092609.718
       239.000         203.000
  20894258.022   -13105952.05649 -10201486.75847  20894258.586    20894270.008
       242.000         209.000
  23385240.547    -6415915.73349  -3722302.07545  23385240.685    23385257.281
       218.000         161.000
  20940859.577   -17414775.61149 -13558498.77147  20940859.794    20940870.536
       242.000         211.000
 00  3 15  0  9  0.0000000  0  7G17G13G 5G10G30G24G 6
  22599771.142   -16712428.14849 -12800480.13146  22599769.995    22599785.057
       227.000         182.000
  24838640.859    -3863413.86649  -2902126.22945  24838640.637    24838658.858
       202.000         135.000
  22438987.218    -6674614.12249  -5189393.32346  22438987.102    22439003.087
       225.000         179.000
  21100981.522   -20396657.54849 -15212298.18747  21100981.135    21100993.536
       240.000         203.000
  20902678.187   -13061703.90649 -10167007.72647  20902678.497    20902690.485
       241.000         209.000
  23399637.437    -6340259.43349  -3663349.24245  23399637.798    23399654.512
       217.000         161.000
  20931649.658   -17463173.96549 -13596211.72647  20931649.241    20931661.239
       241.000         211.000
 00  3 15  0  9 30.0000000  0  7G17G13G 5G10G30G24G 6
  22588030.457   -16774124.79249 -12848555.32546  22588029.882    22588043.872
       226.000         182.000
  24836635.345    -3873951.68549  -2910337.40145  24836636.854    24836653.857
       206.000         133.000
  22457353.767    -6578098.09849  -5114186.24146  22457354.187    22457370.235
       224.000         178.000
  21109474.459   -20352027.18849 -15177521.32247  21109473.985    21109486.086
       240.000         203.000
  20911204.957   -13016895.17549 -10132091.89847  20911205.614    20911216.817
       243.000         209.000
  23414036.023    -6264594.41749  -3604389.63645  23414035.780    23414052.845
       219.000         161.000
  20922483.338   -17511342.58249 -13633745.67047  20922483.176    20922494.770
       242.000         210.000
 00  3 15  0 10  0.0000000  0  7G17G13G 5G10G30G24G 6
  22576332.875   -16835595.61949 -12896454.55746  22576332.011    22576347.604
       227.000         181.000
  24834724.521    -3883994.38449  -2918162.76345  24834725.168    24834742.118
       204.000         133.000
  22475768.234    -6481330.22449  -5038782.92946  22475769.089    22475784.943
       226.000         178.000
  21118069.436   -20306860.42049 -15142326.47247  21118068.825    21118081.173
       239.000         203.000
  20919829.815   -12971571.57549 -10096774.86047  20919830.013    20919841.724
       242.000         209.000
  23428432.448    -6188942.35949  -3545440.11045  23428433.283    23428450.227
       219.000         160.000
  20913357.302   -17559299.87049 -13671114.92647  20913357.404    20913368.405
       242.000         211.000
 00  3 15  0 10 30.0000000  0  7G17G13G 5G10G30G24G 6
  22564672.193   -16896872.07249 -12944202.33146  22564671.193    22564685.958
       225.000         181.000
  24832907.507    -3893541.59449  -2925602.03445  24832907.706    24832926.893
       202.000         132.000
  22494226.314    -6384334.09649  -4963201.73746  22494227.400    22494242.334
       226.000         177.000
  21126758.280   -20261200.12249 -15106747.06247  21126757.740    21126769.915
       238.000         202.000
  20928548.382   -12925755.53049 -10061074.10647  20928549.057    20928560.922
       243.000         209.000
  23442821.645    -6113327.69049  -3486519.75145  23442821.462    23442839.071
       217.000         160.000
  20904270.811   -17607049.13749 -13708322.10047  20904270.725    20904282.713
       241.000         210.000
 00  3 15  0 11  0.0000000  0  7G17G13G 5G10G30G24G 6
  22553046.422   -16957965.54949 -12991807.52146  22553045.691    22553060.477
       226.000         182.000
  24831183.013    -3902603.75949  -2932663.36145  24831183.959    24831201.707
       204.000         133.000
  22512721.382    -6287143.39649  -4887468.93446  22512722.227    22512736.782
       227.000         176.000
  21135538.320   -20215060.70749 -15070794.29147  21135537.702    21135550.353
       239.000         202.000
  20937360.548   -12879447.62949 -10024990.08247  20937361.276    20937372.433
       242.000         209.000
  23457202.234    -6037757.26549  -3427633.82545  23457202.597    23457220.534
       217.000         159.000
  20895224.240   -17654589.50949 -13745366.50447  20895224.307    20895235.517
       241.000         211.000
 00  3 15  0 11 30.0000000  0  7G17G13G 5G10G30G24G 6
  22541453.540   -17018886.04049 -13039277.92446  22541453.347    22541468.169
       227.000         183.000
  24829547.867    -3911195.46449  -2939358.11844  24829549.041    24829565.638
       206.000         131.000
  22531254.041    -6189754.26349  -4811581.52746  22531254.257    22531271.037
       226.000         175.000
  21144410.196   -20168438.97649 -15034465.70147  21144409.610    21144421.900
       239.000         202.000
  20946266.718   -12832645.53749  -9988520.98547  20946267.361    20946278.957
       242.000         208.000
  23471575.414    -5962226.16749  -3368778.57145  23471575.726    23471593.365
       217.000         158.000
  20886217.704   -17701918.58749 -13782246.25447  20886217.642    20886229.044
       242.000         211.000
 00  3 15  0 12  0.0000000  0  7G17G13G 5G10G30G24G 6
  22529892.830   -17079637.72249 -13086616.77246  22529892.000    22529906.682
       227.000         183.000
  24827999.264    -3919332.29749  -2945698.40445  24827999.024    24828017.307
       207.000         132.000
  22549826.312    -6092157.61849  -4735532.42446  22549826.880    22549841.588
       226.000         174.000
  21153378.414   -20121310.66649 -14997742.37947  21153377.841    21153390.038
       239.000         202.000
  20955269.272   -12785337.11949  -9951657.34247  20955270.098    20955281.342
       242.000         209.000
  23485943.647    -5886720.51449  -3309943.14545  23485944.659    23485962.097
       218.000         158.000
  20877255.762   -17749013.82549 -13818943.79847  20877255.976    20877267.374
       242.000         210.000
 00  3 15  0 12 30.0000000  0  8G17G26G13G 5G10G30G24G 6
  22518368.196   -17140199.45749 -13133807.63146  22518366.989    22518381.895
       227.000         184.000
  24326136.457    -6064946.24649  -4258655.10445  24326135.027    24326158.775
       202.000         134.000
  24826538.452    -3927009.52949  -2951680.57145  24826539.514    24826557.180
       201.000         132.000
  22568438.811    -5994349.25949  -4659318.32946  22568440.124    22568454.491
       225.000         173.000
  21162447.393   -20073652.88849 -14960606.47347  21162447.013    21162459.508
       239.000         202.000
  20964375.801   -12737482.13149  -9914367.80747  20964376.534    20964388.281
       242.000         208.000
  23500311.392    -5811219.49449  -3251111.32345  23500311.673    23500327.613
       217.000         158.000
  20868344.838   -17795841.25049 -13855432.64947  20868344.766    20868355.813
       242.000         211.000
 00  3 15  0 13  0.0000000  0  8G17G26G13G 5G10G30G24G 6
  22506887.246   -17200531.93949 -13180819.84746  22506886.916    22506901.134
       228.000         185.000
  24309618.094    -6151750.59449  -4326294.50245  24309616.073    24309640.632
       200.000         135.000
  24825165.826    -3934221.38449  -2957300.09545  24825165.356    24825183.238
       206.000         133.000
  22587093.701    -5896317.78949  -4582930.39646  22587094.440    22587109.151
       224.000         173.000
  21171622.780   -20025436.25449 -14923035.10347  21171622.491    21171634.923
       240.000         202.000
  20973590.721   -12689057.64149  -9876634.49947  20973591.825    20973602.769
       243.000         208.000
  23514682.073    -5735700.82749  -3192265.76145  23514683.663    23514698.212
       217.000         156.000
  20859486.286   -17842392.45149 -13891706.27347  20859486.528    20859497.883
       242.000         211.000
 00  3 15  0 13 30.0000000  0  8G17G26G13G 5G10G30G24G 6
  22495449.781   -17260636.14349 -13227654.18446  22495448.965    22495464.233
       229.000         185.000
  24293101.581    -6238542.30249  -4393924.05845  24293100.836    24293125.603
       205.000         137.000
  24823882.346    -3940967.33149  -2962556.58045  24823882.664    24823898.671
       205.000         134.000
  22605793.240    -5798051.38849  -4506359.39646  22605792.975    22605809.117
       223.000         172.000
  21180902.981   -19976669.07449 -14885034.72947  21180902.326    21180914.898
       238.000         202.000
  20982913.051   -12640069.06549  -9838461.65547  20982913.571    20982925.305
       241.000         208.000
  23529054.200    -5660174.60649  -3133414.29645  23529054.544    23529070.700
       216.000         156.000
  20850679.044   -17888674.90449 -13927770.46947  20850679.165    20850690.693
       243.000         211.000
 00  3 15  0 14  0.0000000  0  8G17G26G13G 5G10G30G24G 6
  22484056.442   -17320508.53349 -13274307.89446  22484055.862    22484070.731
       231.000         187.000
  24276589.988    -6325309.89049  -4461534.83745  24276587.758    24276611.827
       205.000         136.000
  24822691.444    -3947224.47749  -2967432.17445  24822690.629    24822709.802
       205.000         133.000
  22624537.838    -5699549.28149  -4429604.73446  22624537.589    22624554.287
       221.000         172.000
  21190287.095   -19927354.90049 -14846608.12047  21190286.580    21190298.904
       239.000         202.000
  20992342.880   -12590515.06149  -9799848.20647  20992343.423    20992355.313
       243.000         208.000
  23543427.476    -5584643.06949  -3074558.70945  23543428.124    23543444.588
       217.000         156.000
  20841923.098   -17934687.59749 -13963624.46547  20841923.397    20841934.363
       243.000         211.000
 00  3 15  0 14 30.0000000  0  8G17G26G13G 5G10G30G24G 6
  22472708.047   -17380144.59249 -13320777.45446  22472707.908    22472722.246
       232.000         187.000
  24260082.757    -6412054.62249  -4529127.76445  24260083.973    24260104.024
       208.000         137.000
  24821597.729    -3952971.61149  -2971910.33645  24821598.905    24821614.445
       206.000         134.000
  22643324.509    -5600824.52249  -4352676.57646  22643324.832    22643341.394
       221.000         173.000
  21199772.911   -19877506.69149 -14807765.39147  21199772.553    21199784.417
       240.000         202.000
  21001878.758   -12540403.92249  -9760800.63047  21001879.252    21001891.371
       242.000         208.000
  23557799.796    -5509115.80149  -3015706.43445  23557800.204    23557818.189
       214.000         155.000
  20833216.207   -17980442.46849 -13999277.56047  20833216.284    20833227.442
       243.000         211.000
 00  3 15  0 15  0.0000000  0  8G17G26G13G 5G10G30G24G 6
  22461402.330   -17439555.87449 -13367071.86446  22461401.355    22461415.805
       230.000         186.000
  24243578.919    -6498782.36949  -4596707.45745  24243578.180    24243601.502
       208.000         138.000
  24820601.665    -3958205.81049  -2975988.83745  24820601.555    24820619.595
       205.000         135.000
  22662151.971    -5501886.11549  -4275581.94646  22662152.189    22662168.226
       221.000         173.000
  21209358.638   -19827133.92449 -14768513.91047  21209358.267    21209370.498
       239.000         202.000
  21011515.893   -12489760.38649  -9721338.20947  21011516.260    21011527.871
       242.000         207.000
  23572169.703    -5433600.21149  -2956863.25345  23572171.026    23572187.212
       216.000         155.000
  20824554.993   -18025957.08449 -14034743.44647  20824555.041    20824566.373
       243.000         211.000
 00  3 15  0 15 30.0000000  0  8G17G26G13G 5G10G30G24G 6
  22450135.201   -17498764.42349 -13413208.27946  22450134.885    22450148.866
       231.000         186.000
  24227078.981    -6585488.69349  -4664270.49045  24227077.153    24227101.668
       207.000         139.000
  24819702.479    -3962929.73849  -2979669.70945  24819702.148    24819721.012
       207.000         135.000
  22681019.245    -5402739.21249  -4198324.85046  22681019.567    22681036.003
       223.000         173.000
  21219041.376   -19776251.08449 -14728864.96547  21219040.964    21219053.059
       240.000         202.000
  21021250.671   -12438604.16849  -9681476.27747  21021251.151    21021263.222
       241.000         208.000
  23586537.239    -5358100.39049  -2898032.37645  23586538.669    23586554.722
       216.000         155.000
  20815939.930   -18071229.85149 -14070020.88047  20815939.785    20815950.964
       242.000         211.000
 00  3 15  0 16  0.0000000  0  8G17G26G13G 5G10G30G24G 6
  22438905.319   -17557777.51249 -13459192.39246  22438904.600    22438919.445
       230.000         187.000
  24210582.615    -6672175.74849  -4731818.50545  24210581.883    24210604.006
       205.000         139.000
  24818899.148    -3967151.42949  -2982959.25945  24818899.873    24818917.747
       207.000         136.000
  22699922.323    -5303403.82649  -4120920.89146  22699923.100    22699939.134
       222.000         171.000
  21228820.423   -19724861.99149 -14688821.53947  21228820.134    21228832.367
       240.000         202.000
  21031079.248   -12386954.49749  -9641229.85247  21031079.816    21031091.825
       241.000         206.000
  23600901.307    -5282617.05649  -2839214.32845  23600901.456    23600919.004
       215.000         155.000
  20807372.978   -18116248.93449 -14105100.63147  20807373.005    20807384.269
       242.000         212.000
 00  3 15  0 16 30.0000000  0  8G17G26G13G 5G10G30G24G 6
  22427714.089   -17616587.37849 -13505018.15446  22427713.947    22427727.941
       231.000         187.000
  24194086.630    -6758861.49249  -4799365.47545  24194087.122    24194107.735
       201.000         139.000
  24818188.512    -3970883.96249  -2985867.60545  24818188.586    24818207.550
       203.000         136.000
  22718859.008    -5203891.22049  -4043378.84746  22718859.971    22718875.574
       223.000         170.000
  21238695.832   -19672966.76349 -14648383.72547  21238695.477    21238707.587
       238.000         202.000
  21040999.941   -12334821.45149  -9600606.76247  21041000.279    21041012.247
       241.000         207.000
  23615263.193    -5207144.87649  -2780404.97045  23615262.684    23615281.247
       214.000         155.000
  20798855.354   -18161009.13649 -14139978.66047  20798855.212    20798866.677
       243.000         212.000
 00  3 15  0 17  0.0000000  0  8G17G26G13G 5G10G30G24G 6
  22416560.585   -17675198.78949 -13550689.25447  22416560.288    22416574.895
       231.000         188.000
  24177591.718    -6845541.97249  -4866908.34645  24177591.941    24177613.846
       204.000         140.000
  24817567.638    -3974144.31149  -2988408.07445  24817568.375    24817586.674
       209.000         137.000
  22737830.222    -5104197.85449  -3965695.93146  22737830.448    22737847.118
       220.000         170.000
  21248667.808   -19620563.80249 -14607550.26847  21248667.294    21248679.628
       238.000         202.000
  21051013.222   -12282201.42249  -9559604.20047  21051013.676    21051025.564
       241.000         207.000
  23629623.625    -5131681.39649  -2721602.39245  23629623.972    23629640.780
       216.000         156.000
  20790386.295   -18205514.34049 -14174657.99947  20790385.805    20790397.966
       242.000         212.000
 00  3 15  0 17 30.0000000  0  8G17G26G13G 5G10G30G24G 6
  22405446.480   -17733603.33749 -13596199.17547  22405445.663    22405460.303
       230.000         188.000
  24161097.945    -6932214.25949  -4934444.81445  24161097.180    24161120.572
       208.000         141.000
  24817037.140    -3976931.28849  -2990579.60645  24817038.102    24817055.904
       206.000         137.000
  22756837.611    -5004314.70649  -3887865.15646  22756837.829    22756854.778
       221.000         170.000
  21258738.862   -19567639.99349 -14566310.96347  21258738.731    21258750.858
       239.000         202.000
  21061122.874   -12229075.14849  -9518207.17547  21061123.787    21061135.462
       242.000         207.000
  23643980.802    -5056233.53749  -2662811.98745  23643980.403    23643998.534
       215.000         156.000
  20781965.790   -18249764.00149 -14209138.21847  20781966.074    20781976.406
       244.000         212.000
 00  3 15  0 18  0.0000000  0  8G17G26G13G 5G10G30G24G 6
  22394375.549   -17791780.62149 -13641531.99347  22394375.017    22394389.519
       232.000         188.000
  24144607.233    -7018873.66249  -5001971.24945  24144607.486    24144628.750
       207.000         142.000
  24816597.281    -3979242.09449  -2992380.13545  24816598.816    24816615.869
       205.000         137.000
  22775880.651    -4904243.74449  -3809888.03146  22775881.575    22775897.365
       222.000         169.000
  21268910.712   -19514186.86549 -14524659.19847  21268909.880    21268922.516
       238.000         202.000
  21071333.728   -12175417.13949  -9476395.79547  21071334.659    21071346.157
       241.000         207.000
  23658335.940    -4980796.33249  -2604029.87145  23658336.355    23658354.064
       215.000         157.000
  20773594.499   -18293755.52149 -14243417.27747  20773594.550    20773605.658
       243.000         212.000
 00  3 15  0 18 30.0000000  0  8G17G26G13G 5G10G30G24G 6
  22383349.364   -17849723.33149 -13686682.03647  22383349.220    22383363.100
       231.000         189.000
  24128121.258    -7105506.11949  -5069476.67345  24128120.100    24128142.826
       208.000         142.000
  24816247.005    -3981078.54349  -2993810.99445  24816247.699    24816266.297
       204.000         137.000
  22794960.280    -4803980.72849  -3731761.25446  22794961.207    22794976.924
       222.000         168.000
  21279181.939   -19460210.98149 -14482600.10347  21279181.579    21279193.884
       238.000         202.000
  21081648.433   -12121213.02149  -9434158.89447  21081649.048    21081660.782
       241.000         206.000
  23672691.365    -4905360.49349  -2545248.83045  23672691.856    23672709.204
       217.000         158.000
  20765267.457   -18337514.13549 -14277514.85948  20765267.904    20765279.141
       244.000         213.000
 00  3 15  0 19  0.0000000  0  8G17G26G13G 5G10G30G24G 6
  22372366.037   -17907440.99949 -13731656.71347  22372365.574    22372379.599
       233.000         190.000
  24111645.273    -7192086.64249  -5136941.64945  24111643.956    24111668.152
       203.000         141.000
  24815987.468    -3982442.47449  -2994873.69445  24815988.798    24816005.917
       205.000         136.000
  22814074.984    -4703533.03249  -3653490.56746  22814075.344    22814091.985
       222.000         167.000
  21289550.909   -19405721.66149 -14440140.92347  21289550.381    21289562.550
       238.000         201.000
  21092069.205   -12066451.96149  -9391487.99147  21092070.014    21092081.513
       242.000         206.000
  23687044.100    -4829937.79649  -2486478.04045  23687044.151    23687062.442
       217.000         159.000
  20756984.048   -18381043.80649 -14311434.03948  20756983.559    20756995.199
       242.000         213.000
 00  3 15  0 19 30.0000000  0  8G17G26G13G 5G10G30G24G 6
  22361426.245   -17964929.97549 -13776453.18647  22361425.397    22361439.644
       231.000         190.000
  24095177.715    -7278621.65249  -5204371.16445  24095177.406    24095198.639
       205.000         140.000
  24815821.256    -3983316.71949  -2995554.83745  24815820.435    24815839.767
       204.000         134.000
  22833223.819    -4602906.96249  -3575080.87746  22833224.018    22833240.447
       219.000         166.000
  21300015.066   -19350731.73649 -14397291.66047  21300014.547    21300026.773
       238.000         201.000
  21102593.190   -12011148.10449  -9348394.15047  21102593.808    21102605.584
       241.000         205.000
  23701393.341    -4754532.34349  -2427720.64945  23701394.016    23701411.794
       219.000         160.000
  20748745.822   -18424335.56649 -14345167.83848  20748745.682    20748757.273
       242.000         213.000
 00  3 15  0 20  0.0000000  0  8G17G26G13G 5G10G30G24G 6
  22350527.504   -18022202.91349 -13821081.32847  22350526.562    22350540.875
       231.000         190.000
  24078717.177    -7365120.35349  -5271772.37045  24078716.372    24078739.761
       204.000         140.000
  24815747.046    -3983708.41149  -2995859.95145  24815747.406    24815767.111
       207.000         133.000
  22852404.995    -4502109.59249  -3496537.71546  22852405.489    22852422.560
       222.000         167.000
  21310570.442   -19295262.77949 -14354069.13047  21310570.239    21310582.455
       239.000         201.000
  21113215.525   -11955327.67549  -9304897.77747  21113216.324    21113227.711
       242.000         205.000
  23715740.264    -4679140.44449  -2368973.84945  23715740.045    23715758.076
       217.000         160.000
  20740553.983   -18467383.88449 -14378711.93848  20740553.823    20740565.382
       243.000         213.000
 00  3 15  0 20 30.0000000  0  8G17G26G13G 5G10G30G24G 6
  22339666.493   -18079277.11849 -13865554.61947  22339665.621    22339679.914
       231.000         189.000
  24062264.503    -7451578.60549  -5339142.08245  24062262.892    24062284.990
       201.000         140.000
  24815766.447    -3983607.44649  -2995781.17045  24815766.233    24815785.026
       207.000         133.000
  22871618.060    -4401146.43749  -3417865.36346  22871618.498    22871634.469
       224.000         169.000
  21321215.407   -19239323.94449 -14310480.45847  21321214.850    21321227.219
       238.000         201.000
  21123931.252   -11899016.37549  -9261018.89947  21123931.417    21123943.588
       239.000         205.000
  23730081.161    -4603779.65549  -2310251.27945  23730081.786    23730098.109
       217.000         161.000
  20732409.260   -18510184.16049 -14412062.76748  20732409.392    20732420.177
       243.000         213.000
 00  3 15  0 21  0.0000000  0  8G17G26G13G 5G10G30G24G 6
  22328842.182   -18136158.42649 -13909877.61147  22328841.615    22328855.787
       232.000         189.000
  24045819.181    -7537997.55849  -5406481.12845  24045819.096    24045840.781
       208.000         141.000
  24815881.074    -3983005.01749  -2995311.62345  24815880.933    24815899.135
       201.000         134.000
  22890861.865    -4300021.46149  -3339066.93146  22890861.636    22890878.232
       223.000         170.000
  21331950.286   -19182911.50949 -14266522.75247  21331949.848    21331962.167
       238.000         200.000
  21134738.296   -11842225.03249  -9216765.97647  21134739.354    21134750.825
       242.000         204.000
  23744413.104    -4528464.14049  -2251563.97945  23744413.994    23744431.132
       218.000         162.000
  20724317.841   -18552705.33649 -14445196.11348  20724318.113    20724328.761
       245.000         213.000
 00  3 15  0 21 30.0000000  0  8G17G26G13G 5G10G30G24G 6
  22318054.745   -18192846.09849 -13954049.70947  22318054.063    22318068.435
       232.000         188.000
  24029381.619    -7624377.08749  -5473789.49645  24029380.006    24029403.792
       208.000         143.000
  24816092.700    -3981889.85749  -2994442.56145  24816094.685    24816110.251
       202.000         134.000
  22910139.285    -4198718.73549  -3260129.99446  22910139.460    22910155.978
       222.000         170.000
  21342776.569   -19126018.92749 -14222190.90347  21342775.744    21342788.499
       237.000         199.000
  21145631.883   -11784979.31149  -9172158.99147  21145632.403    21145644.087
       241.000         205.000
  23758739.696    -4453177.90349  -2192899.50846  23758739.307    23758758.136
       217.000         163.000
  20716282.898   -18594928.57749 -14478097.29448  20716282.896    20716294.029
       244.000         213.000
 00  3 15  0 22  0.0000000  0  8G17G26G13G 5G10G30G24G 6
  22307304.014   -18249341.00249 -13998071.61347  22307303.445    22307317.255
       231.000         188.000
  24012954.666    -7710699.66649  -5541053.46345  24012954.737    24012976.978
       206.000         145.000
  24816400.951    -3980270.67449  -2993180.75745  24816400.833    24816419.428
       206.000         133.000
  22929447.224    -4097256.22549  -3181068.56046  22929447.684    22929464.751
       225.000         170.000
  21353694.700   -19068644.11049 -14177483.28947  21353694.305    21353706.447
       238.000         199.000
  21156611.811   -11727279.85549  -9127198.43747  21156612.482    21156624.132
       240.000         204.000
  23773062.516    -4377911.79449  -2134250.72645  23773062.281    23773080.981
       218.000         162.000
  20708306.310   -18636845.96849 -14510760.14948  20708306.258    20708317.380
       245.000         213.000
 00  3 15  0 22 30.0000000  0  8G17G26G13G 5G10G30G24G 6
  22296590.144   -18305641.79049 -14041942.24147  22296589.882    22296604.654
       232.000         188.000
  23996541.195    -7796952.21449  -5608262.85345  23996540.171    23996562.711
       204.000         145.000
  24816806.004    -3978142.77149  -2991522.54145  24816806.512    24816825.900
       206.000         134.000
  22948784.247    -3995641.19449  -3101888.26646  22948784.147    22948801.083
       220.000         170.000
  21364705.179   -19010784.03149 -14132397.54847  21364704.453    21364717.163
       237.000         199.000
  21167679.239   -11669120.29249  -9081879.37747  21167680.250    21167691.730
       241.000         204.000
  23787382.803    -4302659.45949  -2075612.65045  23787383.277    23787401.053
       217.000         162.000
  20700388.752   -18678452.90449 -14543181.09948  20700388.829    20700400.092
       244.000         213.000
 00  3 15  0 23  0.0000000  0  8G17G26G13G 5G10G30G24G 6
  22285914.396   -18361743.01149 -14085657.38447  22285913.283    22285927.813
       232.000         188.000
  23980140.829    -7883134.59449  -5675417.55345  23980139.665    23980162.102
       210.000         145.000
  24817307.586    -3975508.49549  -2989469.78945  24817309.294    24817325.331
       207.000         134.000
  22968152.211    -3893862.39149  -3022580.36346  22968151.939    22968169.441
       219.000         169.000
  21375809.278   -18952431.75649 -14086928.27947  21375808.526    21375821.084
       237.000         198.000
  21178835.139   -11610496.27549  -9036198.39447  21178835.677    21178847.372
       241.000         205.000
  23801703.378    -4227404.27349  -2016972.38445  23801704.063    23801721.247
       217.000         161.000
  20692530.263   -18719749.28049 -14575360.05548  20692530.249    20692540.976
       244.000         214.000
 00  3 15  0 23 30.0000000  0  8G17G26G13G 5G10G30G24G 6
  22275276.995   -18417642.41949 -14129215.26147  22275276.677    22275290.474
       233.000         189.000
  23963755.232    -7969239.89449  -5742512.18945  23963753.908    23963775.875
       207.000         145.000
  24817904.971    -3972367.84749  -2987022.44845  24817904.442    24817922.746
       205.000         133.000
  22987550.308    -3791924.72049  -2943148.67946  22987550.160    22987567.929
       219.000         169.000
  21387008.341   -18893580.36149 -14041070.08847  21387007.693    21387020.147
       237.000         198.000
  21190081.518   -11551396.40749  -8990146.61847  21190081.732    21190094.005
       239.000         204.000
  23816024.999    -4152143.78549  -1958327.94845  23816025.329    23816042.310
       217.000         159.000
  20684726.863   -18760756.21449 -14607313.45048  20684726.892    20684737.724
       245.000         213.000
 00  3 15  0 24  0.0000000  0  8G17G26G13G 5G10G30G24G 6
  22264680.764   -18473326.16449 -14172605.07847  22264679.643    22264694.138
       233.000         191.000
  23947385.402    -8055261.94249  -5809541.93345  23947384.701    23947405.477
       204.000         144.000
  24818598.063    -3968725.14149  -2984183.90845  24818599.871    24818615.781
       206.000         132.000
  23006977.118    -3689837.24149  -2863600.25446  23006977.971    23006994.864
       223.000         169.000
  21398303.123   -18834225.70749 -13994819.74547  21398302.763    21398315.309
       237.000         198.000
  21201424.364   -11491789.49149  -8943699.74647  21201425.249    21201437.025
       241.000         204.000
  23830343.409    -4076900.30649  -1899696.79945  23830343.986    23830362.005
       214.000         158.000
  20676975.887   -18801487.66849 -14639052.21048  20676976.507    20676986.397
       247.000         213.000
 00  3 15  0 24 30.0000000  0  8G17G26G13G 5G10G30G24G 6
  22254126.838   -18528787.27649 -14215821.42047  22254126.769    22254140.296
       234.000         192.000
  23931031.482    -8141201.35449  -5876507.27845  23931030.932    23931051.611
       210.000         144.000
  24819388.169    -3964574.29149  -2980949.40145  24819387.785    24819405.754
       205.000         133.000
  23026435.259    -3587585.05549  -2783923.48246  23026435.221    23026452.337
       219.000         168.000
  21409692.852   -18774372.39149 -13948180.83647  21409692.478    21409704.989
       237.000         198.000
  21212864.330   -11431672.16749  -8896855.15147  21212864.549    21212876.704
       239.000         204.000
  23844656.751    -4001683.08549  -1841086.06945  23844657.547    23844674.571
       214.000         156.000
  20669275.774   -18841951.56249 -14670582.46648  20669275.888    20669286.327
       245.000         213.000
 00  3 15  0 25  0.0000000  0  8G17G26G13G 5G10G30G24G 6
  22243616.518   -18584019.19949 -14258859.16347  22243615.505    22243629.335
       234.000         192.000
  23914693.628    -8227055.25449  -5943406.00345  23914692.963    23914713.775
       209.000         144.000
  24820273.318    -3959923.03849  -2977324.96345  24820272.803    24820290.930
       205.000         133.000
  23045923.532    -3485173.34249  -2704122.40646  23045923.079    23045941.265
       218.000         167.000
  21421176.088   -18714027.78549 -13901159.09947  21421175.339    21421187.762
       236.000         198.000
  21224400.388   -11371049.78549  -8849617.01647  21224400.983    21224412.983
       240.000         204.000
  23858962.202    -3926507.96249  -1782508.16145  23858961.485    23858980.546
       213.000         155.000
  20661623.987   -18882162.26249 -14701915.43048  20661624.015    20661634.995
       246.000         213.000
 00  3 15  0 25 30.0000000  0  8G17G26G13G 5G10G30G24G 6
  22233149.371   -18639024.47249 -14301720.29847  22233148.492    22233162.395
       234.000         192.000
  23898370.781    -8312830.94249  -6010243.73945  23898370.133    23898391.769
       211.000         144.000
  24821252.172    -3954779.57349  -2973317.01645  24821252.375    24821270.620
       206.000         135.000
  23065438.510    -3382622.41349  -2624212.85246  23065438.399    23065456.107
       218.000         165.000
  21432748.955   -18653211.67549 -13853769.95547  21432748.737    21432761.110
       238.000         198.000
  21236030.629   -11309932.69349  -8801993.37547  21236031.521    21236043.187
       241.000         203.000
  23873258.665    -3851379.30649  -1723966.47345  23873257.987    23873276.231
       210.000         153.000
  20654020.015   -18922121.65749 -14733052.57448  20654019.780    20654030.708
       244.000         213.000
 00  3 15  0 26  0.0000000  0  8G17G26G13G 5G10G30G24G 6
  22222723.824   -18693810.13049 -14344410.30847  22222722.969    22222736.814
       235.000         192.000
  23882060.496    -8398540.38249  -6077029.88145  23882059.804    23882081.292
       212.000         144.000
  24822324.355    -3949144.37049  -2968925.86545  24822325.032    24822341.479
       200.000         134.000
  23084977.566    -3279944.75949  -2544204.56946  23084978.842    23084994.452
       220.000         165.000
  21444405.838   -18591955.11749 -13806037.61947  21444405.627    21444417.681
       238.000         198.000
  21247750.204   -11248345.99949  -8754003.83547  21247750.858    21247762.788
       238.000         203.000
  23887546.134    -3776296.92949  -1665460.85645  23887546.126    23887563.545
       211.000         151.000
  20646464.544   -18961825.27249 -14763990.40648  20646464.500    20646475.536
       245.000         214.000
 00  3 15  0 26 30.0000000  0  8G17G26G13G 5G10G30G24G 6
  22212334.334   -18748406.96649 -14386953.19747  22212333.931    22212347.230
       235.000         192.000
  23865761.240    -8484192.33349  -6143771.22445  23865759.668    23865781.328
       209.000         146.000
  24823490.324    -3943014.23249  -2964149.05845  24823491.704    24823507.650
       205.000         132.000
  23104539.451    -3177147.89349  -2464103.40046  23104539.940    23104558.382
       219.000         167.000
  21456142.416   -18530279.77649 -13757978.94647  21456141.722    21456154.337
       237.000         198.000
  21259554.979   -11186311.73249  -8705665.51947  21259555.846    21259567.968
       239.000         203.000
  23901827.320    -3701249.55849  -1606982.49845  23901828.958    23901845.788
       211.000         150.000
  20638958.535   -19001269.47549 -14794726.09248  20638958.326    20638969.721
       245.000         213.000
 00  3 15  0 27  0.0000000  0  8G17G26G13G 5G10G30G24G 6
  22201978.011   -18802829.29649 -14429360.07647  22201977.751    22201991.553
       234.000         192.000
  23849471.388    -8569794.83049  -6210474.05645  23849471.195    23849491.320
       210.000         147.000
  24824751.476    -3936385.53749  -2958983.75245  24824751.012    24824768.204
       205.000         132.000
  23124124.476    -3074228.59049  -2383906.82046  23124124.722    23124143.304
       220.000         166.000
  21467960.660   -18468174.05349 -13709584.92047  21467960.320    21467972.674
       237.000         198.000
  21271443.532   -11123837.62649  -8656984.47547  21271444.176    21271456.154
       239.000         203.000
  23916102.866    -3626231.35549  -1548526.88145  23916103.336    23916120.116
       210.000         147.000
  20631504.246   -19040441.52549 -14825249.72048  20631504.886    20631515.381
       247.000         214.000
 00  3 15  0 27 30.0000000  0  8G17G26G13G 5G10G30G24G 6
  22191654.781   -18857077.82949 -14471631.55547  22191653.798    22191667.756
       233.000         191.000
  23833191.931    -8655341.82649  -6277133.63245  23833191.895    23833212.739
       210.000         147.000
  24826111.387    -3929238.75649  -2953414.74445  24826111.171    24826130.276
       204.000         133.000
  23143732.457    -2971189.69249  -2303617.03546  23143732.497    23143750.127
       221.000         165.000
  21479860.631   -18405639.73549 -13660856.92547  21479860.102    21479872.543
       237.000         198.000
  21283417.027   -11060916.41149  -8607955.03747  21283417.766    21283429.615
       239.000         203.000
  23930374.483    -3551234.23449  -1490087.67845  23930375.016    23930392.982
       207.000         146.000
  20624105.111   -19079324.47849 -14855548.07048  20624104.869    20624116.031
       245.000         213.000
 00  3 15  0 28  0.0000000  0  8G17G26G13G 5G10G30G24G 6
  22181365.923   -18911144.79949 -14513761.53847  22181365.700    22181379.294
       234.000         191.000
  23816926.609    -8740814.60549  -6343735.41445  23816925.246    23816945.499
       209.000         147.000
  24827569.969    -3921574.16249  -2947442.20745  24827570.650    24827588.433
       207.000         134.000
  23163365.199    -2868019.92449  -2223225.28546  23163364.466    23163384.478
       218.000         165.000
  21491843.667   -18342668.59449 -13611788.55547  21491843.556    21491855.732
       237.000         198.000
  21295478.274   -10997534.61449  -8558566.71547  21295478.987    21295491.526
       238.000         203.000
  23944641.116    -3476262.77449  -1431668.47345  23944641.689    23944660.680
       208.000         144.000
  20616763.439   -19117904.76449 -14885610.58548  20616763.821    20616774.511
       246.000         214.000
 00  3 15  0 28 30.0000000  0  8G17G26G13G 5G10G30G24G 6
  22171114.547   -18965015.76649 -14555738.80647  22171113.877    22171127.736
       233.000         190.000
  23800678.628    -8826196.54549  -6410266.40645  23800678.563    23800698.417
       212.000         147.000
  24829126.175    -3913397.08949  -2941070.37945  24829126.094    24829144.529
       207.000         132.000
  23183025.599    -2764704.66949  -2142720.16946  23183025.485    23183043.273
       220.000         164.000
  21503914.397   -18279236.81049 -13562361.23847  21503913.980    21503926.418
       237.000         198.000
  21307629.195   -10933681.28349  -8508810.95647  21307629.665    21307641.647
       238.000         203.000
  23958903.169    -3401316.56449  -1373268.93945  23958904.885    23958920.205
       207.000         143.000
  20609480.630   -19156176.16149 -14915432.40048  20609480.304    20609491.395
       245.000         214.000
 00  3 15  0 29  0.0000000  0  8G17G26G13G 5G10G30G24G 6
  22160904.477   -19018669.48749 -14597546.79847  22160904.085    22160917.807
       234.000         190.000
  23784450.489    -8911474.86049  -6476716.69845  23784449.598    23784469.740
       205.000         147.000
  24830778.226    -3904715.84049  -2934305.67745  24830777.470    24830794.651
       209.000         134.000
  23202712.568    -2661250.69249  -2062106.96746  23202714.085    23202729.552
       220.000         163.000
  21516074.971   -18215332.36449 -13512565.61047  21516074.042    21516086.844
       237.000         197.000
  21319870.466   -10869352.85849  -8458684.98247  21319870.881    21319883.460
       239.000         202.000
  23973160.459    -3326394.60149  -1314888.33245  23973161.186    23973177.788
       206.000         142.000
  20602255.758   -19194143.06849 -14945016.95548  20602255.875    20602266.961
       245.000         214.000
 00  3 15  0 29 30.0000000  0  8G17G26G13G 5G10G30G24G 6
  22150738.078   -19072094.53749 -14639176.59947  22150737.613    22150751.006
       234.000         191.000
  23768244.746    -8996634.86749  -6543074.77345  23768243.387    23768265.082
       208.000         147.000
  24832523.532    -3895543.55249  -2927158.32845  24832523.162    24832539.731
       207.000         134.000
  23222421.232    -2557682.60749  -1981404.85145  23222421.662    23222438.272
       218.000         162.000
  21528324.398   -18150961.36149 -13462406.44447  21528323.712    21528336.408
       237.000         197.000
  21332203.786   -10804541.18549  -8408182.46547  21332204.552    21332216.825
       238.000         202.000
  23987411.086    -3251506.11849  -1256533.78245  23987410.531    23987428.141
       208.000         141.000
  20595085.929   -19231820.57649 -14974376.00248  20595085.799    20595096.599
       245.000         214.000
 00  3 15  0 30  0.0000000  0  8G17G26G13G 5G10G30G24G 6
  22140613.387   -19125299.55149 -14680634.96047  22140612.903    22140626.312
       234.000         191.000
  23752061.593    -9081675.99449  -6609340.24045  23752060.141    23752080.011
       210.000         147.000
  24834359.624    -3885893.92849  -2919639.02845  24834359.601    24834377.499
       207.000         132.000
  23242151.170    -2454002.34149  -1900615.32245  23242151.933    23242168.854
       218.000         161.000
  21540665.896   -18086106.38749 -13411870.15647  21540665.717    21540678.110
       237.000         197.000
  21344626.359   -10739260.46549  -8357314.46547  21344627.262    21344639.615
       238.000         202.000
  24001656.219    -3176648.95349  -1198203.67245  24001656.549    24001674.217
       209.000         141.000
  20587971.498   -19269206.59449 -15003507.92048  20587971.634    20587982.231
       246.000         214.000
 00  3 15  0 30 30.0000000  0  8G17G26G13G 5G10G30G24G 6
  22130530.123   -19178286.79149 -14721923.61247  22130528.994    22130542.715
       234.000         191.000
  23735900.014    -9166603.95649  -6675517.54645  23735899.589    23735919.484
       206.000         147.000
  24836289.678    -3875750.81049  -2911735.19745  24836290.744    24836306.950
       211.000         133.000
  23261900.945    -2350217.15449  -1819744.02445  23261901.331    23261919.680
       216.000         160.000
  21553102.233   -18020753.55249 -13360945.91547  21553102.008    21553114.272
       236.000         197.000
  21357137.124   -10673516.19649  -8306085.24747  21357137.901    21357150.222
       238.000         201.000
  24015898.588    -3101805.82249  -1139884.44845  24015900.528    24015916.940
       212.000         142.000
  20580913.536   -19306296.14249 -15032408.82748  20580913.740    20580924.429
       246.000         214.000
 00  3 15  0 31  0.0000000  0  8G17G26G13G 5G10G30G24G 6
  22120487.082   -19231062.38549 -14763047.37447  22120486.546    22120500.456
       234.000         191.000
  23719761.548    -9251410.46949  -6741600.18345  23719761.641    23719781.500
       212.000         148.000
  24838315.036    -3865108.09749  -2903442.11145  24838314.822    24838331.912
       208.000         133.000
  23281668.849    -2246337.17049  -1738798.87145  23281669.885    23281687.137
       217.000         160.000
  21565631.970   -17954909.68749 -13309639.05647  21565631.384    21565643.990
       236.000         196.000
  21369735.672   -10607310.94149  -8254496.81647  21369736.679    21369748.614
       239.000         202.000
  24030138.593    -3026976.18949  -1081575.78845  24030139.800    24030155.874
       210.000         142.000
  20573915.436   -19343071.34249 -15061064.79548  20573915.565    20573926.174
       245.000         214.000
 00  3 15  0 31 30.0000000  0  8G17G26G13G 5G10G30G24G 6
  22110484.672   -19283625.60949 -14804005.64247  22110484.180    22110497.653
       234.000         192.000
  23703648.288    -9336085.25349  -6807580.19945  23703647.526    23703666.983
       209.000         148.000
  24840437.806    -3853952.24149  -2894749.12745  24840439.602    24840454.000
       210.000         136.000
  23301459.274    -2142338.68049  -1657761.35745  23301459.755    23301478.431
       215.000         160.000
  21578254.959   -17888575.29549 -13257949.96147  21578254.295    21578267.078
       237.000         196.000
  21382420.599   -10540651.42349  -8202554.43847  21382421.198    21382433.809
       236.000         201.000
  24044376.135    -2952158.14449  -1023276.11045  24044375.805    24044394.451
       211.000         144.000
  20566983.219   -19379500.16949 -15089450.84748  20566983.044    20566993.844
       245.000         214.000
 00  3 15  0 32  0.0000000  0  8G17G26G13G 5G10G30G24G 6
  22100523.511   -19335971.55849 -14844794.60647  22100522.736    22100536.182
       233.000         192.000
  23687562.416    -9420615.22649  -6873447.37745  23687561.472    23687581.186
       214.000         149.000
  24842663.004    -3842258.82449  -2885637.32445  24842662.053    24842680.344
       208.000         135.000
  23321277.528    -2038193.87649  -1576609.82945  23321277.326    23321295.164
       217.000         160.000
  21590969.465   -17821760.09249 -13205886.20947  21590969.153    21590981.973
       237.000         196.000
  21395190.685   -10473544.42249  -8150263.34847  21395191.607    21395203.610
       238.000         201.000
  24058612.886    -2877343.78349   -964979.33045  24058613.488    24058631.027
       212.000         144.000
  20560121.547   -19415558.15149 -15117547.94748  20560121.364    20560132.413
       245.000         214.000
 00  3 15  0 32 30.0000000  0  8G17G26G13G 5G10G30G24G 6
  22090605.388   -19388090.84649 -14885406.93847  22090604.343    22090618.502
       234.000         191.000
  23671505.353    -9504995.36549  -6939197.80745  23671504.948    23671524.517
       211.000         149.000
  24844992.774    -3830015.20249  -2876096.76145  24844992.699    24845009.146
       210.000         134.000
  23341124.596    -1933897.91849  -1495340.53745  23341124.965    23341143.012
       217.000         160.000
  21603768.665   -17754500.28449 -13153476.01747  21603768.342    21603780.934
       237.000         196.000
  21408047.338   -10405982.74949  -8097617.98147  21408048.357    21408060.336
       239.000         201.000
  24072847.245    -2802542.73949   -906692.92245  24072847.514    24072865.806
       212.000         146.000
  20553329.447   -19451250.44849 -15145360.09148  20553329.446    20553339.960
       244.000         214.000
 00  3 15  0 33  0.0000000  0  8G17G26G13G 5G10G30G24G 6
  22080729.478   -19439988.90649 -14925846.89647  22080728.490    22080743.298
       234.000         192.000
  23655478.529    -9589214.17449  -7004822.51345  23655478.823    23655497.376
       212.000         149.000
  24847425.417    -3817231.46649  -2866135.33845  24847426.325    24847441.704
       209.000         135.000
  23361000.409    -1829450.35049  -1413953.14945  23361001.625    23361018.914
       218.000         159.000
  21616646.951   -17686824.52849 -13100741.70147  21616645.897    21616659.114
       235.000         196.000
  21420989.397   -10337972.11349  -8044622.76647  21420989.917    21421002.754
       237.000         200.000
  24087075.955    -2727770.63049   -848429.06245  24087075.035    24087093.274
       211.000         146.000
  20546603.974   -19486593.05049 -15172899.74748  20546603.812    20546615.025
       245.000         214.000
 00  3 15  0 33 30.0000000  0  8G17G26G13G 5G10G30G24G 6
  22070894.909   -19491669.85549 -14966117.69247  22070894.068    22070907.833
       233.000         192.000
  23639480.064    -9673285.75849  -7070332.51345  23639480.608    23639500.307
       211.000         149.000
  24849960.471    -3803908.72749  -2855753.94145  24849959.361    24849978.543
       209.000         135.000
  23380902.782    -1724864.02349  -1332457.61145  23380902.088    23380921.307
       217.000         158.000
  21629599.357   -17618758.52049 -13047703.29247  21629598.730    21629611.591
       236.000         195.000
  21434015.898   -10269517.47249  -7991281.59847  21434016.739    21434028.926
       238.000         200.000
  24101297.794    -2653035.37949   -790193.90345  24101297.819    24101316.027
       212.000         146.000
  20539939.579   -19521614.36849 -15200189.05748  20539939.696    20539950.115
       245.000         214.000
 00  3 15  0 34  0.0000000  0  8G17G26G13G 5G10G30G24G 6
  22061098.729   -19543148.33049 -15006230.70247  22061098.439    22061111.382
       234.000         193.000
  23623506.202    -9757228.51949  -7135742.14545  23623506.347    23623523.753
       212.000         149.000
  24852595.064    -3790063.90449  -2844965.68645  24852594.867    24852610.679
       208.000         132.000
  23400823.400    -1620181.08849  -1250886.78445  23400822.698    23400842.657
       215.000         158.000
  21642622.139   -17550323.69749 -12994377.48747  21642622.344    21642634.179
       237.000         195.000
  21447127.649   -10200615.73349  -7937592.01047  21447128.612    21447140.743
       239.000         201.000
  24115511.825    -2578340.93249   -731990.57945  24115511.789    24115529.851
       211.000         147.000
  20533330.852   -19556343.13549 -15227250.39548  20533330.771    20533341.990
       244.000         214.000
 00  3 15  0 34 30.0000000  0  8G17G26G13G 5G10G30G24G 6
  22051339.829   -19594431.52949 -15046191.54147  22051338.906    22051352.459
       234.000         193.000
  23607553.976    -9841057.39649  -7201063.02045  23607553.071    23607572.686
       210.000         149.000
  24855323.330    -3775726.26549  -2833793.40345  24855324.387    24855339.427
       211.000         133.000
  23420758.260    -1515422.62849  -1169257.12345  23420759.376    23420777.768
       218.000         160.000
  21655715.011   -17481520.87449 -12940764.94047  21655714.491    21655727.246
       236.000         195.000
  21460323.851   -10131269.37449  -7883555.98547  21460324.127    21460337.189
       236.000         199.000
  24129717.576    -2503689.31349   -673820.59345  24129717.154    24129735.887
       210.000         146.000
  20526774.955   -19590794.68149 -15254095.71548  20526774.520    20526785.830
       245.000         214.000
 00  3 15  0 35  0.0000000  0  8G17G26G13G 5G10G30G24G 6
  22041618.034   -19645519.10349 -15085999.97347  22041618.135    22041630.508
       236.000         193.000
  23591623.605    -9924770.15949  -7266293.42445  23591623.419    23591641.978
       213.000         149.000
  24858140.841    -3760919.56949  -2822255.61045  24858141.537    24858157.924
       209.000         132.000
  23440703.684    -1410609.80449  -1087585.08145  23440703.639    23440722.720
       215.000         159.000
  21668881.205   -17412332.33949 -12886851.82847  21668880.266    21668893.247
       236.000         194.000
  21473601.948   -10061492.84749  -7829184.75847  21473602.594    21473615.326
       237.000         200.000
  24143915.288    -2429079.38049   -615683.07245  24143915.655    24143933.943
       212.000         146.000
  20520270.550   -19624975.06549 -15280729.75148  20520270.972    20520281.579
       245.000         214.000
 00  3 15  0 35 30.0000000  0  8G17G26G13G 5G10G30G24G 6
  22031933.469   -19696412.12249 -15125656.78847  22031932.860    22031946.182
       234.000         193.000
  23575712.078   -10008383.97749  -7331446.73345  23575711.185    23575730.548
       210.000         149.000
  24861047.025    -3745647.64249  -2810355.29245  24861046.646    24861062.732
       208.000         133.000
  23460658.126    -1305749.92849  -1005876.38845  23460658.034    23460677.023
       217.000         158.000
  21682123.119   -17342745.72849 -12832628.53547  21682122.879    21682135.145
       235.000         194.000
  21486960.611    -9991292.77349  -7774483.49547  21486961.256    21486973.961
       238.000         200.000
  24158105.580    -2354509.82749   -557577.02745  24158105.492    24158124.209
       212.000         148.000
  20513820.123   -19658872.44749 -15307143.25548  20513820.158    20513831.098
       245.000         215.000
 00  3 15  0 36  0.0000000  0  8G17G26G13G 5G10G30G24G 6
  22022286.494   -19747106.53349 -15165158.84147  22022286.049    22022299.135
       235.000         194.000
  23559821.749   -10091886.96249  -7396513.64845  23559821.675    23559841.001
       213.000         149.000
  24864040.613    -3729914.97849  -2798095.98545  24864040.643    24864058.378
       210.000         133.000
  23480623.910    -1200831.32449   -924121.91945  23480623.792    23480643.314
       213.000         157.000
  21695445.838   -17272734.90549 -12778074.68847  21695445.086    21695457.864
       236.000         194.000
  21500398.429    -9920677.07449  -7719458.37447  21500399.363    21500411.500
       237.000         200.000
  24172290.093    -2279970.14149   -499494.25345  24172289.722    24172308.790
       211.000         147.000
  20507425.690   -19692475.21349 -15333327.19648  20507425.675    20507436.202
       246.000         215.000
 00  3 15  0 36 30.0000000  0  8G17G26G13G 5G10G30G24G 6
  22012678.731   -19797595.64049 -15204500.91047  22012677.940    22012691.445
       235.000         194.000
  23543955.559   -10175262.79749  -7461481.49045  23543954.859    23543974.736
       213.000         149.000
  24867122.779    -3713717.58049  -2785474.53845  24867123.978    24867137.745
       211.000         135.000
  23500602.678    -1095842.19949   -842312.49245  23500602.262    23500622.020
       208.000         155.000
  21708851.314   -17202288.41049 -12723181.35847  21708850.545    21708863.303
       234.000         193.000
  21513912.360    -9849660.92149  -7664121.20847  21513913.078    21513925.634
       238.000         199.000
  24186467.690    -2205467.16949   -441440.07245  24186468.226    24186487.449
       212.000         148.000
  20501087.736   -19725781.42549 -15359280.04348  20501087.403    20501098.584
       245.000         215.000
 00  3 15  0 37  0.0000000  0  8G17G26G13G 5G10G30G24G 6
  22003106.644   -19847896.00949 -15243695.91547  22003106.017    22003120.200
       235.000         195.000
  23528113.958   -10258509.54049  -7526348.71445  23528112.836    23528131.758
       212.000         149.000
  24870298.072    -3697031.06349  -2772471.96345  24870299.830    24870314.802
       209.000         133.000
  23520594.587     -990783.95049   -760449.21845  23520597.039    23520613.295
       215.000         153.000
  21722340.321   -17131403.07349 -12667946.06647  21722339.557    21722352.579
       234.000         193.000
  21527502.401    -9778245.60849  -7608473.00247  21527503.210    21527515.665
       238.000         200.000
  24200639.435    -2130995.14549   -383410.01845  24200638.547    24200657.239
       209.000         147.000
  20494808.654   -19758778.08149 -15384991.68948  20494808.759    20494819.420
       246.000         215.000
 00  3 15  0 37 30.0000000  0  8G17G26G13G 5G10G30G24G 6
  21993570.076   -19898010.86549 -15282746.36847  21993569.559    21993583.236
       236.000         196.000
  23512298.923   -10341616.41449  -7591106.96245  23512297.585    23512318.290
       209.000         150.000
  24873573.056    -3679819.99349  -2759060.67044  24873574.073    24873586.430
       206.000         131.000
  23540603.391     -885638.99749   -678518.38745  23540603.090    23540623.898
       212.000         153.000
  21735913.048   -17060077.83249 -12612367.99647  21735912.511    21735925.306
       233.000         192.000
  21541170.294    -9706420.52849  -7552505.51247  21541171.138    21541183.658
       237.000         200.000
  24214806.925    -2056545.34449   -325397.28245  24214807.697    24214824.178
       211.000         148.000
  20488592.613   -19791443.45149 -15410445.18748  20488592.533    20488603.387
       246.000         215.000
 00  3 15  0 38  0.0000000  0  9G17G26G13G23G 5G10G30G24G 6
  21984070.315   -19947932.92549 -15321646.58747  21984069.855    21984083.435
       236.000         197.000
  23496515.681   -10424555.85649  -7655734.70945  23496515.671    23496534.486
       214.000         150.000
  24876949.633    -3662076.18649  -2745234.22444  24876950.426    24876967.651
       205.000         130.000
                    -72105.65549    -44482.33343
       210.000          74.000
  23560628.052     -780409.14249   -596521.43045  23560628.326    23560647.203
       212.000         151.000
  21749566.899   -16988325.90449 -12556457.44147  21749566.379    21749579.223
       234.000         192.000
  21554916.461    -9634184.10949  -7496217.49547  21554917.071    21554929.894
       237.000         199.000
  24228968.747    -1982124.32149   -267406.97745  24228968.184    24228986.801
       208.000         147.000
  20482439.872   -19823776.08549 -15435639.41048  20482439.772    20482450.775
       245.000         215.000
 00  3 15  0 38 30.0000000  0  9G17G26G13G23G 5G10G30G24G 6
  21974606.905   -19997663.13049 -15360397.31947  21974606.247    21974619.865
       236.000         196.000
  23480765.117   -10507324.81749  -7720229.63645  23480763.616    23480783.392
       210.000         150.000
  24880430.209    -3643784.46649  -2730980.85744  24880430.237    24880448.867
       206.000         130.000
                   -174384.95849   -124180.54943
       207.000          74.000
  23580668.389     -675098.25449   -514461.27645  23580668.703    23580687.065
       213.000         152.000
  21763299.223   -16916161.77449 -12500225.69747  21763299.181    21763311.918
       234.000         192.000
  21568742.334    -9561529.17449  -7439603.36147  21568743.230    21568755.374
       238.000         199.000
  24243123.904    -1907738.76349   -209444.29245  24243125.553    24243142.100
       212.000         148.000
  20476353.318   -19855761.38449 -15460562.98348  20476353.386    20476364.097
       246.000         215.000
 00  3 15  0 39  0.0000000  0  8G17G26G13G 5G10G30G24G 6
  21965181.272   -20047194.51549 -15398993.11347  21965180.442    21965193.530
       235.000         195.000
  23465049.077   -10589911.27549  -7784582.33145  23465048.135    23465068.047
       214.000         151.000
  24884016.233    -3624939.88249  -2716296.67644  24884018.423    24884032.922
       209.000         130.000
  23600724.135     -569705.81949   -432337.63345  23600725.208    23600744.599
       216.000         154.000
  21777109.869   -16843586.56249 -12443673.62647  21777109.661    21777122.496
       234.000         192.000
  21582648.693    -9488451.63449  -7382659.91847  21582649.403    21582661.854
       236.000         199.000
  24257273.549    -1833382.77549   -151504.64545  24257271.830    24257291.171
       207.000         146.000
  20470334.791   -19887388.88349 -15485207.75048  20470334.662    20470345.369
       245.000         215.000
 00  3 15  0 39 30.0000000  0  9G17G26G13G23G 5G10G30G24G 6
  21955796.511   -20096511.12249 -15437421.54047  21955795.679    21955810.006
       234.000         195.000
  23449371.883   -10672293.68749  -7848776.04345  23449370.848    23449390.981
       213.000         151.000
  24887703.689    -3605561.99649  -2701196.94744  24887704.221    24887722.533
       207.000         131.000
  23905566.230     -378424.59949   -283171.65145  23905565.122    23905586.093
       203.000         138.000
  23620795.235     -464233.49349   -350151.70645  23620794.574    23620815.983
       214.000         154.000
  21790996.445   -16770612.67749 -12386810.91147  21790996.467    21791008.878
       236.000         192.000
  21596634.377    -9414956.11849  -7325390.79447  21596634.991    21596647.853
       239.000         199.000
  24271416.072    -1759063.84649    -93593.89345  24271417.088    24271433.510
       214.000         146.000
  20464382.545   -19918667.62049 -15509580.75648  20464382.643    20464393.697
       245.000         215.000
 00  3 15  0 40  0.0000000  0  8G17G26G23G 5G10G30G24G 6
  21946450.671   -20145623.43149 -15475690.76047  21946449.919    21946462.920
       234.000         195.000
  23433731.425   -10754483.47849  -7912819.67345  23433731.066    23433749.617
       208.000         151.000
  23886199.824     -480193.32849   -362471.57845  23886199.128    23886220.181
       207.000         147.000
  23640877.849     -358699.28949   -267917.60145  23640878.001    23640898.362
       213.000         153.000
  21804957.102   -16697249.44949 -12329644.79747  21804956.663    21804969.655
       234.000         192.000
  21610698.110    -9341051.57149  -7267802.93747  21610698.675    21610711.042
       237.000         198.000
  24285549.559    -1684791.72449    -35719.59445  24285548.824    24285567.090
       208.000         144.000
  20458492.899   -19949617.70849 -15533697.67248  20458493.040    20458503.307
       246.000         215.000
 00  3 15  0 40 30.0000000  0  8G17G26G23G 5G10G30G24G 6
  21937134.725   -20194578.31349 -15513837.32647  21937134.108    21937147.233
       236.000         195.000
  23418120.116   -10836520.27649  -7976744.10145  23418119.763    23418139.398
       209.000         151.000
  23866859.648     -581824.84949   -441664.60445  23866859.127    23866879.650
       212.000         152.000
  23660965.232     -253140.72449   -185664.50545  23660966.524    23660986.484
       217.000         155.000
  21818985.285   -16623530.60349 -12272201.59347  21818984.401    21818998.479
       233.000         192.000
  21624830.870    -9266783.48149  -7209931.79447  21624831.671    21624844.362
       237.000         198.000
  24299668.807    -1610592.80349     22097.66245  24299668.210    24299687.113
       214.000         144.000
  20452658.358   -19980278.49749 -15557589.15948  20452657.999    20452669.183
       244.000         215.000
 00  3 15  0 41  0.0000000  0  8G17G26G23G 5G10G30G24G 6
  21927860.317   -20243315.55149 -15551814.29447  21927859.759    21927873.333
       236.000         197.000
  23402550.221   -10918338.36449  -8040498.08445  23402549.592    23402569.163
       213.000         151.000
  23847557.110     -683259.86149   -520704.46845  23847556.120    23847577.078
       215.000         156.000
  23681067.483     -147505.11849   -103351.36345  23681068.268    23681087.815
       213.000         155.000
  21833091.460   -16549401.89749 -12214439.02547  21833090.536    21833104.087
       232.000         192.000
  21639043.006    -9192098.71649  -7151735.98047  21639043.782    21639056.514
       237.000         197.000
  24313786.179    -1536404.79549     79906.42045  24313786.726    24313805.298
       209.000         144.000
  20446888.930   -20010595.87249 -15581213.05048  20446888.733    20446899.681
       244.000         215.000
 00  3 15  0 41 30.0000000  0  8G17G26G23G 5G10G30G24G 6
  21918624.452   -20291849.81249 -15589633.08847  21918623.932    21918637.150
       236.000         196.000
  23387016.699   -10999966.75449  -8104104.28245  23387016.715    23387035.346
       209.000         151.000
  23828286.853     -784524.75349   -599611.77145  23828286.361    23828306.415
       212.000         154.000
  23701181.522      -41806.06349    -20988.77045  23701182.243    23701200.951
       212.000         153.000
  21847271.720   -16474884.17649 -12156373.32147  21847271.439    21847283.927
       233.000         191.000
  21653334.026    -9116999.32249  -7093217.07247  21653334.648    21653347.468
       238.000         198.000
  24327899.762    -1462237.57049    137698.95145  24327899.306    24327917.652
       209.000         144.000
  20441183.395   -20040578.74549 -15604576.28248  20441183.443    20441194.297
       245.000         214.000
 00  3 15  0 42  0.0000000  0  8G17G26G23G 5G10G30G24G 6
  21909426.825   -20340183.56549 -15627295.65647  21909426.300    21909439.569
       236.000         196.000
  23371517.500   -11081413.55749  -8167568.98745  23371516.516    23371536.605
       211.000         152.000
  23809050.316     -885612.69249   -678381.22645  23809049.248    23809069.438
       211.000         151.000
  23721306.346       63950.11849     61418.33345  23721307.071    23721326.333
       214.000         152.000
  21861525.475   -16399980.98249 -12098007.25547  21861524.561    21861538.363
       232.000         191.000
  21667702.689    -9041492.01849  -7034380.33047  21667703.521    21667716.060
       236.000         197.000
  24342008.702    -1388094.21749    195472.89645  24342009.967    24342027.033
       209.000         144.000
  20435543.632   -20070215.68349 -15627669.96248  20435543.478    20435554.175
       245.000         215.000
 00  3 15  0 42 30.0000000  0  8G17G26G23G 5G10G30G24G 6
  21900267.426   -20388315.99149 -15664801.33647  21900266.261    21900280.642
       236.000         196.000
  23356054.212   -11162671.76749  -8230886.75645  23356053.461    23356073.019
       210.000         152.000
  23789847.968     -986520.74749   -757010.50245  23789846.972    23789868.270
       211.000         151.000
  23741441.271      169758.51049    143866.10045  23741442.152    23741461.838
       214.000         154.000
  21875851.547   -16324697.56249 -12039344.91847  21875850.714    21875863.866
       233.000         191.000
  21682148.876    -8965577.01049  -6975225.88747  21682149.740    21682162.351
       236.000         197.000
  24356113.193    -1313973.63549    253229.11645  24356113.793    24356132.195
       208.000         143.000
  20429973.729   -20099485.40149 -15650477.49748  20429973.813    20429984.435
       245.000         215.000
 00  3 15  0 43  0.0000000  0  8G17G26G23G 5G10G30G24G 6
  21891148.560   -20436235.89749 -15702141.42347  21891148.403    21891160.748
       237.000         196.000
  23340628.201   -11243734.08249  -8294051.88145  23340626.980    23340646.793
       206.000         152.000
  23770683.369    -1087230.47949   -835485.23345  23770682.109    23770700.686
       207.000         148.000
  23761586.895      275622.96649    226357.54445  23761587.905    23761607.814
       214.000         156.000
  21890251.544   -16249025.09849 -11980379.42047  21890250.675    21890264.409
       232.000         190.000
  21696677.627    -8889228.48549  -6915733.62047  21696678.492    21696691.060
       237.000         197.000
  24370214.881    -1239869.18549    310972.75245  24370215.251    24370233.999
       208.000         144.000
  20424477.031   -20128370.54949 -15672985.36748  20424477.239    20424487.999
       246.000         215.000
 00  3 15  0 43 30.0000000  0  8G17G26G23G 5G10G30G24G 6
  21882070.404   -20483941.87149 -15739314.82047  21882069.728    21882083.400
       236.000         196.000
  23325240.589   -11324595.47349  -8357060.45845  23325239.862    23325258.913
       209.000         152.000
  23751559.419    -1187725.80349   -913792.95045  23751558.798    23751578.986
       207.000         145.000
  23781746.406      381561.18849    308906.48345  23781746.669    23781768.125
       212.000         155.000
  21904729.009   -16172945.47649 -11921096.64747  21904728.552    21904741.948
       232.000         190.000
  21711289.269    -8812444.01449  -6855901.67647  21711289.927    21711302.756
       235.000         196.000
  24384314.138    -1165778.54949    368705.59645  24384315.719    24384334.264
       209.000         144.000
  20419055.575   -20156860.55449 -15695185.34248  20419055.702    20419066.495
       246.000         216.000
 00  3 15  0 44  0.0000000  0  8G17G26G23G 5G10G30G24G 6
  21873033.470   -20531430.73349 -15776319.04647  21873033.144    21873045.629
       238.000         196.000
  23309895.359   -11405233.53949  -8419894.99045  23309894.596    23309913.656
       211.000         152.000
  23732477.532    -1287999.60049   -991927.97845  23732475.779    23732496.300
       201.000         145.000
  23801922.499      487585.47849    391522.50045  23801923.271    23801943.396
       212.000         154.000
  21919286.100   -16096447.88849 -11861488.19347  21919285.844    21919298.748
       233.000         189.000
  21725979.837    -8735245.07449  -6795746.76347  21725980.537    21725993.705
       235.000         195.000
  24398411.196    -1091699.73749    426429.24145  24398412.171    24398429.307
       210.000         143.000
  20413710.151   -20184951.02049 -15717073.97648  20413710.282    20413720.935
       246.000         216.000
 00  3 15  0 44 30.0000000  0  8G17G26G23G 5G10G30G24G 6
  21864037.759   -20578703.36449 -15813154.77447  21864036.552    21864049.870
       235.000         196.000
  23294592.647   -11485648.10249  -8482555.41445  23294592.319    23294610.732
       211.000         153.000
  23713434.916    -1388068.72149  -1069903.53345  23713433.202    23713453.482
       207.000         143.000
  23822114.488      593693.86149    474204.00345  23822114.773    23822135.617
       211.000         151.000
  21933922.060   -16019535.48849 -11801556.51447  21933921.802    21933934.876
       231.000         189.000
  21740748.849    -8657633.45349  -6735270.29947  21740749.482    21740762.524
       235.000         196.000
  24412506.436    -1017631.07649    484144.99645  24412505.414    24412523.887
       212.000         144.000
  20408437.909   -20212656.76949 -15738662.84048  20408437.982    20408448.618
       246.000         216.000
 00  3 15  0 45  0.0000000  0  8G17G26G23G 5G10G30G24G 6
  21855082.447   -20625762.62949 -15849824.25547  21855081.752    21855094.896
       236.000         196.000
  23279332.081   -11565841.98649  -8545043.86945  23279331.534    23279350.179
       212.000         154.000
  23694427.244    -1487954.17349  -1147736.10945  23694426.390    23694445.079
       205.000         144.000
  23842323.972      699894.89849    556957.73745  23842325.432    23842346.655
       211.000         150.000
  21948634.719   -15942220.37549 -11741311.03247  21948634.956    21948647.449
       232.000         189.000
  21755592.532    -8579630.11849  -6674488.58547  21755593.376    21755606.105
       237.000         196.000
  24426598.489     -943577.32549    541849.15145  24426597.998    24426618.277
       212.000         144.000
  20403234.427   -20240001.39549 -15759970.30448  20403234.155    20403244.677
       245.000         216.000
 00  3 15  0 45 30.0000000  0  8G17G26G23G 5G10G30G24G 6
  21846166.855   -20672614.04949 -15886331.76247  21846165.774    21846179.429
       236.000         196.000
  23264112.725   -11645819.91749  -8607364.04645  23264112.150    23264130.999
       211.000         155.000
  23675448.942    -1587682.50649  -1225446.05645  23675447.609    23675467.330
       206.000         146.000
  23862547.371      806168.53749    639768.02445  23862548.142    23862569.209
       211.000         150.000
  21963420.211   -15864522.43449 -11680767.23547  21963420.091    21963432.424
       232.000         188.000
  21770503.826    -8501271.08049  -6613429.70147  21770504.453    21770517.809
       236.000         195.000
  24440685.018     -869551.93149    599531.18845  24440685.156    24440704.496
       212.000         145.000
  20398095.887   -20267004.36749 -15781011.53948  20398095.682    20398106.715
       245.000         216.000
 00  3 15  0 46  0.0000000  0  8G17G26G23G 5G10G30G24G 6
  21837290.003   -20719261.77649 -15922680.53947  21837289.639    21837303.015
       237.000         197.000
  23248933.659   -11725584.56949  -8669518.02545  23248933.119    23248951.859
       214.000         156.000
  23656499.095    -1687264.06049  -1303041.69545  23656498.327    23656517.531
       212.000         150.000
  23882776.129      912469.78349    722599.85245  23882777.028    23882797.737
       211.000         148.000
  21978272.069   -15786474.88049 -11619951.00346  21978271.779    21978284.679
       232.000         187.000
  21785479.476    -8422573.88049  -6552107.30847  21785480.226    21785492.776
       234.000         194.000
  24454764.110     -795565.27049    657183.05645  24454765.118    24454782.861
       212.000         144.000
  20393018.277   -20293687.16749 -15801803.29348  20393018.277    20393028.812
       246.000         216.000
 00  3 15  0 46 30.0000000  0  8G17G26G23G 5G10G30G24G 6
  21828449.605   -20765718.47149 -15958880.49147  21828448.939    21828461.776
       237.000         197.000
  23233792.251   -11805153.42549  -8731519.44245  23233792.430    23233810.196
       213.000         156.000
  23637578.517    -1786690.47749  -1380516.49945  23637576.836    23637596.721
       211.000         151.000
  23903003.006     1018761.02949    805423.88445  23903004.354    23903022.207
       211.000         148.000
  21993186.941   -15708096.74249 -11558877.17946  21993186.574    21993199.412
       231.000         187.000
  21800518.791    -8343541.39249  -6490523.68147  21800519.734    21800532.708
       235.000         193.000
  24468832.583     -721636.37549    714789.93745  24468833.299    24468851.355
       212.000         143.000
  20387999.692   -20320060.11949 -15822353.60848  20387999.632    20388010.166
       245.000         216.000
 00  3 15  0 47  0.0000000  0  8G17G26G23G 5G10G30G24G 6
  21819644.372   -20811989.39749 -15994935.68547  21819643.555    21819656.794
       237.000         197.000
  23218685.515   -11884538.34149  -8793377.54545  23218685.409    23218703.652
       213.000         156.000
  23618691.430    -1885941.54449  -1457854.56345  23618690.990    23618710.630
       213.000         157.000
  23923225.356     1125028.91049    888229.67445  23923226.015    23923246.591
       212.000         148.000
  22008163.495   -15629394.27149 -11497550.62746  22008163.336    22008176.272
       232.000         187.000
  21815619.713    -8264186.30649  -6428688.65147  21815620.070    21815633.739
       235.000         194.000
  24482886.898     -647781.15549    772339.40945  24482887.750    24482905.817
       208.000         142.000
  20383041.482   -20346115.11449 -15842656.16848  20383041.484    20383051.990
       246.000         216.000
 00  3 15  0 47 30.0000000  0  8G17G26G23G 5G10G30G24G 6
  21810875.609   -20858069.47549 -16030842.17047  21810875.315    21810887.582
       238.000         198.000
  23203614.416   -11963736.56749  -8855090.16945  23203614.152    23203632.209
       213.000         158.000
  23599840.579    -1985002.46249  -1535044.53145  23599838.602    23599857.335
       207.000         153.000
  23943437.637     1231243.71749    970994.10545  23943438.293    23943459.796
       214.000         151.000
  22023202.416   -15550364.95749 -11435969.40846  22023202.844    22023215.443
       233.000         187.000
  21830781.623    -8184510.26749  -6366603.54947  21830782.734    21830795.594
       235.000         194.000
  24496925.777     -574007.41049    829825.38145  24496925.831    24496944.902
       208.000         141.000
  20378144.473   -20371849.02649 -15862708.53448  20378144.284    20378154.904
       246.000         216.000
 00  3 15  0 48  0.0000000  0  8G17G26G23G 5G10G30G24G 6
  21802140.145   -20903974.42049 -16066612.17747  21802139.393    21802153.124
       236.000         199.000
  23188577.364   -12042755.36949  -8916662.98145  23188576.682    23188594.758
       215.000         158.000
  23581026.895    -2083866.51149  -1612081.08345  23581025.935    23581045.597
       212.000         153.000
  23963642.123     1337416.61849   1053725.88145  23963642.985    23963664.886
       214.000         152.000
  22038304.342   -15471004.71349 -11374130.31946  22038303.930    22038316.605
       231.000         187.000
  21846006.376    -8104504.45649  -6304261.46647  21846007.274    21846019.973
       235.000         194.000
  24510949.661     -500311.41449    887250.78245  24510949.583    24510967.823
       207.000         140.000
  20373310.158   -20397253.13349 -15882503.90648  20373310.281    20373320.891
       246.000         215.000
 00  3 15  0 48 30.0000000  0  8G17G26G23G 5G10G30G24G 6
  21793438.577   -20949700.97149 -16102243.16447  21793438.067    21793451.036
       236.000         199.000
  23173575.075   -12121592.23549  -8978094.05045  23173574.738    23173592.008
       215.000         158.000
  23562250.761    -2182534.31749  -1688964.68545  23562249.364    23562269.327
       215.000         158.000
  23983844.540     1443579.25349   1136449.72345  23983845.549    23983866.600
       212.000         151.000
  22053471.929   -15391298.32249 -11312021.49846  22053471.210    22053484.299
       232.000         187.000
  21861297.294    -8024150.50549  -6241648.10547  21861298.128    21861311.383
       235.000         193.000
  24524961.822     -426677.79149    944627.56145  24524962.092    24524981.022
       205.000         140.000
  20368542.977   -20422304.75149 -15902024.60848  20368542.861    20368553.717
       245.000         216.000
 00  3 15  0 49  0.0000000  0  8G17G26G23G 5G10G30G24G 6
  21784772.183   -20995242.88449 -16137730.28347  21784771.696    21784784.165
       238.000         199.000
  23158612.953   -12200217.52049  -9039360.24145  23158611.827    23158630.833
       216.000         157.000
  23543509.217    -2281020.18249  -1765706.54045  23543507.509    23543526.810
       217.000         158.000
  24004051.126     1549764.82449   1219191.39745  24004051.231    24004074.621
       211.000         151.000
  22068706.392   -15311240.55849 -11249638.89746  22068705.943    22068718.675
       230.000         186.000
  21876655.688    -7943442.31249  -6178758.72747  21876656.976    21876669.848
       235.000         192.000
  24538966.726     -353081.91149   1001974.94945  24538965.698    24538984.780
       204.000         141.000
  20363844.808   -20446993.48449 -15921262.54448  20363844.814    20363855.388
       246.000         216.000
 00  3 15  0 49 30.0000000  0  8G17G26G23G 5G10G30G24G 6
  21776141.783   -21040595.91849 -16173070.21447  21776141.121    21776154.236
       237.000         198.000
  23143695.397   -12278608.63149  -9100443.97045  23143695.143    23143713.297
       213.000         157.000
  23524801.184    -2379330.32749  -1842311.50845  23524800.190    23524819.336
       215.000         161.000
  24024263.878     1655982.36049   1301957.95245  24024264.228    24024284.790
       209.000         149.000
  22084008.054   -15230830.48349 -11186981.74346  22084007.140    22084020.640
       232.000         186.000
  21892082.359    -7862375.04749  -6115589.53747  21892083.246    21892096.736
       237.000         193.000
  24552966.820     -279509.46449   1059304.11045  24552966.875    24552985.537
       206.000         141.000
  20359214.402   -20471326.39149 -15940223.22148  20359214.219    20359225.252
       244.000         216.000
 00  3 15  0 50  0.0000000  0  8G17G26G23G 5G10G30G24G 6
  21767546.420   -21085765.08749 -16208266.87747  21767546.251    21767558.731
       238.000         200.000
  23128823.290   -12356759.98249  -9161340.84745  23128822.889    23128840.682
       214.000         157.000
  23506126.147    -2477466.14849  -1918780.57045  23506125.068    23506144.364
       215.000         160.000
  24044486.029     1762249.52949   1384763.21245  24044486.219    24044508.363
       209.000         146.000
  22099373.424   -15150085.06849 -11124063.31146  22099373.302    22099386.076
       231.000         186.000
  21907579.155    -7780939.64849  -6052133.49747  21907579.728    21907593.136
       235.000         193.000
  24566963.274     -205956.19049   1116618.29345  24566963.345    24566981.620
       210.000         143.000
  20354653.525   -20495293.90949 -15958899.17448  20354653.447    20354663.901
       244.000         216.000
 00  3 15  0 50 30.0000000  0  8G17G26G23G 5G10G30G24G 6
  21758989.691   -21130731.11949 -16243305.27147  21758988.616    21759001.981
       237.000         201.000
  23113999.404   -12434659.00449  -9222041.11945  23113999.171    23114017.507
       212.000         158.000
  23487486.051    -2575419.28149  -1995107.37145  23487484.903    23487503.490
       217.000         159.000
  24064716.791     1868560.80549   1467602.82245  24064717.833    24064739.963
       212.000         149.000
  22114802.196   -15069007.20249 -11060885.80846  22114802.181    22114814.727
       232.000         186.000
  21923143.508    -7699148.80649  -5988400.49147  21923144.053    21923157.473
       234.000         192.000
  24580955.571     -132426.40149   1173914.21245  24580955.619    24580975.694
       209.000         143.000
  20350162.201   -20518895.99349 -15977290.36748  20350162.136    20350173.055
       244.000         216.000
 00  3 15  0 51  0.0000000  0  8G17G26G23G 5G10G30G24G 6
  21750469.957   -21175501.62749 -16278191.27747  21750469.533    21750482.466
       238.000         200.000
  23099224.891   -12512298.53349  -9282539.17645  23099224.680    23099241.536
       215.000         159.000
  23468882.920    -2673177.44349  -2071282.16645  23468881.911    23468901.789
       212.000         158.000
  24084952.832     1974900.77949   1550464.79645  24084953.524    24084974.055
       213.000         149.000
  22130291.868   -14987609.43649 -10997459.03846  22130292.158    22130304.529
       233.000         186.000
  21938772.884    -7617016.25849  -5924401.23747  21938773.313    21938786.387
       232.000         191.000
  24594941.756      -58929.21249   1231184.71845  24594940.937    24594960.989
       206.000         142.000
  20345739.622   -20542136.48149 -15995399.80848  20345739.927    20345750.336
       245.000         216.000
 00  3 15  0 51 30.0000000  0  8G17G26G23G 5G10G30G24G 6
  21741986.901   -21220080.45149 -16312927.94047  21741986.006    21741999.566
       237.000         201.000
  23084496.492   -12589696.39649  -9342848.93245  23084496.026    23084512.849
       213.000         159.000
  23450321.167    -2770718.57749  -2147287.90645  23450319.662    23450337.234
       214.000         155.000
  24105189.674     2081245.49649   1633330.46045  24105189.005    24105209.476
       206.000         147.000
  22145841.340   -14905896.95249 -10933787.02946  22145840.234    22145853.559
       231.000         186.000
  21954467.365    -7534541.04449  -5860134.96947  21954468.138    21954481.575
       235.000         191.000
  24608920.192       14527.34549   1288423.56045  24608920.589    24608938.794
       206.000         141.000
  20341388.228   -20565003.28149 -16013218.05548  20341388.080    20341398.801
       244.000         216.000
 00  3 15  0 52  0.0000000  0  8G17G26G23G 5G10G30G24G 6
  21733539.403   -21264470.92849 -16347517.82847  21733538.125    21733552.042
       237.000         201.000
  23069816.400   -12666839.68549  -9402960.32245  23069815.669    23069832.450
       216.000         159.000
  23431804.330    -2868023.65349  -2223109.72045  23431802.621    23431822.589
       212.000         153.000
  24125427.918     2187598.05149   1716202.26345  24125429.103    24125449.427
       208.000         146.000
  22161453.982   -14823851.61749 -10869855.66646  22161452.825    22161466.885
       228.000         185.000
  21970228.260    -7451717.86349  -5795597.53547  21970229.247    21970241.521
       236.000         191.000
  24622894.128       87960.75249   1345644.37745  24622892.956    24622913.072
       202.000         139.000
  20337115.318   -20587457.54949 -16030714.85048  20337115.348    20337125.914
       244.000         216.000
 00  3 15  0 52 30.0000000  0  7G17G26G23G 5G10G30G 6
  21725132.827   -21308646.93549 -16381940.60847  21725132.694    21725145.762
       239.000         202.000
  23055192.804   -12743686.49949  -9462840.70745  23055192.752    23055210.188
       214.000         160.000
  23413340.990    -2965047.96249  -2298712.71545  23413338.553    23413359.842
       211.000         154.000
  24145671.844     2293979.19549   1799096.33245  24145671.839    24145691.548
       208.000         145.000
  22177138.054   -14741429.91749 -10805631.03146  22177137.637    22177150.423
       229.000         184.000
  21986058.012    -7368532.16949  -5730777.62447  21986059.128    21986072.073
       236.000         191.000
  20332929.119   -20609456.36349 -16047856.74548  20332929.166    20332939.462
       245.000         216.000
 00  3 15  0 53  0.0000000  0  7G17G26G23G 5G10G30G 6
  21716768.399   -21352602.30549 -16416191.44047  21716767.645    21716780.881
       238.000         202.000
  23040630.843   -12820209.36949  -9522468.64945  23040631.563    23040647.601
       216.000         160.000
  23394934.119    -3061774.32549  -2374083.61045  23394932.825    23394951.836
       216.000         151.000
  24165921.082     2400389.56249   1882013.13845  24165920.721    24165942.124
       204.000         143.000
  22192895.978   -14658621.62149 -10741105.14246  22192896.378    22192909.394
       230.000         184.000
  22001960.241    -7284966.12949  -5665661.35547  22001960.780    22001974.173
       233.000         190.000
  20328832.873   -20630981.75449 -16064629.74348  20328832.772    20328843.392
       244.000         216.000
 00  3 15  0 53 30.0000000  0  7G17G26G23G 5G10G30G 6
  21708446.229   -21396335.30649 -16450269.01447  21708445.886    21708458.310
       239.000         202.000
  23026129.981   -12896411.73049  -9581846.84145  23026129.103    23026147.212
       217.000         160.000
  23376579.992    -3158224.75349  -2449239.47145  23376579.261    23376598.609
       213.000         150.000
  24186173.545     2506815.53749   1964942.14545  24186174.460    24186197.815
       206.000         144.000
  22208727.993   -14575424.53649 -10676276.29246  22208727.938    22208741.019
       230.000         184.000
  22017931.271    -7201037.46749  -5600262.51747  22017932.163    22017945.313
       233.000         188.000
  20324823.312   -20652052.14349 -16081048.18848  20324823.258    20324834.009
       244.000         216.000
 00  3 15  0 54  0.0000000  0  7G17G26G23G 5G10G30G 6
  21700166.669   -21439844.89849 -16484172.49947  21700166.218    21700178.014
       239.000         202.000
  23011690.699   -12972290.52349  -9640972.92345  23011689.749    23011706.624
       213.000         159.000
  23358274.605    -3254418.77049  -2524195.52345  23358274.263    23358291.461
       214.000         149.000
  24206428.177     2613252.31249   2047879.51645  24206429.847    24206453.893
       211.000         145.000
  22224630.724   -14491855.22449 -10611157.39946  22224630.129    22224643.248
       228.000         184.000
  22033966.874    -7116770.44949  -5534600.03347  22033967.672    22033981.459
       232.000         188.000
  20320893.962   -20672700.54749 -16097137.81548  20320893.758    20320904.331
       244.000         216.000
 00  3 15  0 54 30.0000000  0  7G17G26G23G 5G10G30G 6
  21691927.616   -21483140.37849 -16517909.12947  21691926.152    21691940.073
       238.000         201.000
  22997308.028   -13047871.17449  -9699866.68045  22997307.176    22997324.224
       216.000         159.000
  23340011.808    -3350389.92849  -2598977.94545  23340011.027    23340028.924
       211.000         147.000
  24226680.001     2719673.95349   2130805.10445  24226680.948    24226704.353
       211.000         143.000
  22240596.951   -14407952.56749 -10545778.76646  22240596.775    22240609.325
       230.000         184.000
  22050064.312    -7032178.39449  -5468684.26147  22050065.297    22050078.216
       235.000         189.000
  20317036.023   -20692974.05149 -16112935.32048  20317036.149    20317046.775
       244.000         216.000
 00  3 15  0 55  0.0000000  0  7G17G26G23G 5G10G30G 6
  21683727.513   -21526230.92949 -16551486.07347  21683727.218    21683740.333
       238.000         202.000
  22982977.531   -13123176.56149  -9758545.92045  22982976.197    22982993.893
       216.000         159.000
  23321784.625    -3446173.51849  -2673614.18945  23321784.694    23321803.104
       213.000         149.000
  24246926.716     2826068.33749   2213709.42645  24246927.282    24246949.332
       209.000         140.000
  22256620.337   -14323749.79949 -10480166.26846  22256620.502    22256633.295
       231.000         184.000
  22066221.725    -6947271.41649  -5402523.09647  22066222.462    22066236.266
       233.000         189.000
  20313242.674   -20712908.07849 -16128468.28948  20313242.845    20313253.170
       244.000         216.000
 00  3 15  0 55 30.0000000  0  7G17G26G23G 5G10G30G 6
  21675562.166   -21569140.37449 -16584921.91047  21675562.191    21675574.274
       238.000         203.000
  22968695.036   -13198230.36849  -9817029.14845  22968694.084    22968711.995
       214.000         160.000
  23303590.723    -3541782.40849  -2748114.31245  23303590.890    23303608.959
       207.000         149.000
  24267166.586     2932427.88849   2296586.67445  24267167.200    24267189.702
       206.000         141.000
  22272695.488   -14239274.80249 -10414341.64846  22272694.684    22272708.233
       228.000         183.000
  22082434.646    -6862072.22749  -5336134.24547  22082435.028    22082448.513
       231.000         188.000
  20309510.163   -20732522.32749 -16143752.09148  20309510.099    20309520.707
       245.000         216.000
 00  3 15  0 56  0.0000000  0  7G17G26G23G 5G10G30G 6
  21667428.500   -21611882.77749 -16618227.58947  21667427.382    21667440.775
       237.000         202.000
  22954460.678   -13273031.11449  -9875315.16445  22954459.518    22954476.544
       214.000         160.000
  23285433.217    -3637199.28949  -2822464.78545  23285433.120    23285449.383
       213.000         147.000
  24287399.790     3038753.75249   2379437.65845  24287399.473    24287422.698
       205.000         140.000
  22288819.086   -14154544.08049 -10348317.76646  22288818.782    22288832.541
       229.000         183.000
  22098704.568    -6776573.69949  -5269512.14947  22098705.395    22098718.850
       232.000         188.000
  20305842.183   -20751797.41849 -16158771.61548  20305842.168    20305852.459
       244.000         216.000
 00  3 15  0 56 30.0000000  0  7G17G26G23G 5G10G30G 6
  21659328.027   -21654450.21549 -16651396.93247  21659328.009    21659339.869
       239.000         202.000
  22940276.622   -13347567.04549  -9933394.83745  22940276.217    22940293.609
       216.000         160.000
  23267316.582    -3732402.37749  -2896648.71745  23267316.242    23267333.030
       210.000         146.000
  24307628.633     3145054.99549   2462269.44545  24307628.869    24307650.495
       207.000         140.000
  22304995.453   -14069536.29949 -10282077.96946  22304994.833    22305009.095
       227.000         182.000
  22115035.102    -6690756.60149  -5202641.81047  22115035.689    22115050.129
       232.000         189.000
  20302245.782   -20770696.30849 -16173497.99348  20302245.588    20302256.054
       244.000         216.000
 00  3 15  0 57  0.0000000  0  7G17G26G23G 5G10G30G 6
  21651263.280   -21696830.49149 -16684420.42947  21651262.213    21651275.248
       238.000         202.000
  22926145.880   -13421823.78549  -9991256.94045  22926145.260    22926162.487
       216.000         160.000
  23249246.320    -3827361.67249  -2970642.66445  23249244.393    23249262.116
       202.000         142.000
  24327855.543     3251345.62249   2545092.90845  24327856.795    24327876.547
       213.000         140.000
  22321228.465   -13984230.87749 -10215606.26146  22321228.205    22321241.433
       229.000         183.000
  22131425.398    -6604625.51549  -5135526.81647  22131426.302    22131439.788
       234.000         191.000
  20298725.329   -20789196.31549 -16187913.55848  20298725.455    20298735.674
       245.000         216.000
 00  3 15  0 57 30.0000000  0  7G17G26G23G 5G10G30G 6
  21643233.426   -21739026.54149 -16717300.38947  21643232.152    21643245.344
       237.000         201.000
  22912068.510   -13495798.50449 -10048899.27945  22912067.366    22912084.524
       216.000         160.000
  23231224.672    -3922065.50949  -3044437.58045  23231221.980    23231240.331
       203.000         143.000
  24348079.435     3357621.02749   2627904.57345  24348080.914    24348103.225
       212.000         143.000
  22337521.920   -13898608.53949 -10148887.61046  22337522.225    22337535.378
       230.000         182.000
  22147875.949    -6518178.19949  -5068165.39747  22147876.754    22147890.016
       232.000         190.000
  20295283.268   -20807284.60249 -16202008.28948  20295283.088    20295293.579
       244.000         216.000
 00  3 15  0 58  0.0000000  0  7G17G26G23G 5G10G30G 6
  21635240.661   -21781027.89449 -16750028.63347  21635240.405    21635253.361
       238.000         201.000
  22898044.698   -13569492.91349 -10106323.19845  22898043.854    22898061.280
       215.000         161.000
  23213249.682    -4016522.77049  -3118040.29945  23213248.552    23213265.299
       200.000         140.000
  24368299.417     3463876.56549   2710700.72845  24368300.627    24368321.324
       210.000         144.000
  22353878.138   -13812656.70949 -10081912.21946  22353877.972    22353891.369
       229.000         182.000
  22164386.248    -6431416.33949  -5000558.88047  22164387.164    22164400.870
       233.000         188.000
  20291920.886   -20824953.87149 -16215776.52248  20291921.185    20291931.495
       245.000         216.000
 00  3 15  0 58 30.0000000  0  7G17G26G23G 5G10G30G 6
  21627284.901   -21822836.03449 -16782606.31847  21627284.003    21627297.184
       237.000         202.000
  22884074.316   -13642907.01949 -10163528.72246  22884074.575    22884089.994
       218.000         163.000
  23195318.751    -4110748.85049  -3191462.96645  23195317.246    23195334.794
       195.000         138.000
  24388513.699     3570102.01049   2793473.43245  24388513.923    24388535.764
       208.000         142.000
  22370298.486   -13726367.91049 -10014674.25746  22370298.744    22370311.207
       229.000         182.000
  22180952.093    -6344362.87949  -4932725.13947  22180952.796    22180966.449
       233.000         188.000
  20288634.381   -20842224.40849 -16229234.05448  20288634.381    20288644.919
       244.000         216.000
 00  3 15  0 59  0.0000000  0  7G17G26G23G 5G10G30G 6
  21619362.618   -21864467.09649 -16815046.01847  21619362.047    21619375.316
       238.000         202.000
  22870155.851   -13716047.68549 -10220521.14746  22870155.601    22870171.606
       218.000         164.000
  23177427.959    -4204761.98449  -3264719.58445  23177427.311    23177443.805
       204.000         139.000
  24408718.402     3676278.94649   2876208.34745  24408717.656    24408740.443
       205.000         136.000
  22386778.065   -13639767.69449  -9947193.62946  22386778.066    22386790.450
       228.000         181.000
  22197570.654    -6257032.07849  -4864675.29847  22197571.161    22197585.181
       232.000         189.000
  20285417.891   -20859127.28949 -16242405.09748  20285418.057    20285428.338
       244.000         216.000
 00  3 15  0 59 30.0000000  0  7G17G26G23G 5G10G30G 6
  21611471.038   -21905938.37549 -16847361.23547  21611470.161    21611483.127
       237.000         202.000
  22856289.414   -13788915.72649 -10277301.14246  22856289.300    22856305.395
       219.000         165.000
  23159575.403    -4298577.20049  -3337822.06745  23159573.141    23159591.508
       207.000         140.000
  24428911.566     3782392.17249   2958893.58945  24428912.876    24428935.511
       207.000         139.000
  22403313.320   -13552875.22149  -9879485.26846  22403313.149    22403324.982
       229.000         180.000
  22214241.572    -6169426.35149  -4796411.23147  22214242.110    22214256.355
       233.000         189.000
  20282269.520   -20875671.93149 -16255297.00048  20282269.577    20282279.882
       244.000         216.000
 00  3 15  1  0  0.0000000  0  7G17G26G23G 5G10G30G 6
  21603610.279   -21947245.16349 -16879548.27747  21603609.782    21603622.977
       238.000         202.000
  22842476.958   -13861499.53749 -10333859.66246  22842476.423    22842492.085
       217.000         165.000
  23141762.562    -4392182.74149  -3410761.18445  23141762.381    23141778.700
       209.000         141.000
  24449090.826     3888432.61949   3041522.17745  24449090.977    24449115.148
       203.000         139.000
  22419900.178   -13465710.75649  -9811564.97846  22419900.246    22419913.034
       228.000         180.000
  22230962.642    -6081557.35649  -4727942.02547  22230963.065    22230977.640
       229.000         189.000
  20279189.029   -20891859.94249 -16267911.00748  20279189.179    20279199.479
       245.000         216.000
 00  3 15  1  0 30.0000000  0  7G17G26G23G 5G10G30G 6
  21595782.799   -21988378.25949 -16911599.95947  21595781.811    21595795.698
       237.000         202.000
  22828721.227   -13933785.71649 -10390186.26246  22828721.255    22828736.920
       218.000         166.000
  23123991.437    -4485569.20649  -3483529.59945  23123989.875    23124007.694
       208.000         142.000
  24469252.121     3994379.58949   3124077.89945  24469251.690    24469276.155
       206.000         137.000
  22436534.908   -13378294.80049  -9743448.71446  22436534.350    22436547.577
       226.000         179.000
  22247734.722    -5993419.35049  -4659263.19746  22247735.163    22247750.044
       229.000         187.000
  20276175.545   -20907695.73249 -16280250.55848  20276175.576    20276185.941
       244.000         216.000
 00  3 15  1  1  0.0000000  0  7G17G26G23G 5G10G30G 6
  21587990.394   -22029326.98549 -16943507.98747  21587990.535    21588002.386
       238.000         202.000
  22815021.479   -14005777.45049 -10446283.42346  22815020.920    22815036.671
       220.000         166.000
  23106264.480    -4578724.29749  -3556117.65745  23106263.387    23106280.732
       211.000         146.000
  24489395.867     4100236.26349   3206563.27645  24489397.113    24489419.420
       209.000         138.000
  22453213.548   -13290647.29849  -9675152.02946  22453213.214    22453225.953
       227.000         180.000
  22264558.548    -5905010.21949  -4590373.11946  22264559.456    22264573.236
       230.000         186.000
  20273230.477   -20923171.85549 -16292309.84248  20273230.595    20273240.978
       244.000         216.000
 00  3 15  1  1 30.0000000  0  7G17G26G23G 5G10G30G 6
  21580235.039   -22070082.33649 -16975265.32347  21580234.305    21580247.667
       238.000         202.000
  22801381.479   -14077455.99549 -10502136.56846  22801380.902    22801395.921
       218.000         166.000
  23088583.880    -4671636.03349  -3628516.19845  23088582.857    23088599.324
       210.000         146.000
  24509524.962     4206013.51249   3288986.73445  24509525.748    24509546.781
       209.000         139.000
  22469937.270   -13202763.45249  -9606671.19046  22469937.046    22469951.075
       227.000         179.000
  22281432.091    -5816339.96949  -4521279.53746  22281432.795    22281447.048
       231.000         186.000
  20270360.748   -20938252.23349 -16304060.76648  20270360.861    20270370.829
       245.000         216.000
 00  3 15  1  2  0.0000000  0  7G17G26G23G 5G10G30G 6
  21572520.389   -22110622.89049 -17006855.27747  21572519.715    21572532.650
       238.000         202.000
  22787803.985   -14148805.52849 -10557733.32646  22787802.942    22787819.592
       221.000         167.000
  23070954.512    -4764277.27649  -3700703.89345  23070954.311    23070971.500
       211.000         147.000
  24529640.432     4311719.17849   3371354.40545  24529639.844    24529661.577
       205.000         138.000
  22486708.511   -13114630.26049  -9537996.03346  22486708.216    22486722.647
       226.000         179.000
  22298355.389    -5727407.79849  -4451981.87746  22298356.049    22298369.827
       230.000         186.000
  20267571.614   -20952909.13749 -16315481.70248  20267571.742    20267582.129
       245.000         216.000
 00  3 15  1  2 30.0000000  0  7G17G26G23G 5G10G30G 6
  21564846.437   -22150950.08749 -17038278.99447  21564846.048    21564858.632
       237.000         202.000
  22774291.095   -14219814.37249 -10613064.62946  22774290.757    22774305.966
       221.000         167.000
  23053380.032    -4856631.09149  -3772667.64145  23053379.218    23053395.624
       209.000         149.000
  24549747.064     4417379.71049   3453686.94445  24549747.493    24549770.279
       204.000         135.000
  22503530.708   -13026228.77749  -9469111.83246  22503530.110    22503543.841
       226.000         179.000
  22315332.664    -5638191.82449  -4382463.05946  22315333.056    22315347.382
       229.000         185.000
  20264866.967   -20967122.11049 -16326556.72248  20264866.835    20264877.091
       244.000         216.000
 00  3 15  1  3  0.0000000  0  7G17G26G23G 5G10G30G 6
  21557210.330   -22191077.83449 -17069547.28547  21557209.764    21557222.062
       238.000         202.000
  22760844.571   -14290475.31249 -10668124.84646  22760844.135    22760860.323
       220.000         166.000
  23035862.846    -4948683.31449  -3844396.37345  23035862.284    23035878.169
       215.000         152.000
  24569852.720     4523034.73249   3536015.12445  24569853.285    24569875.866
       207.000         134.000
  22520409.045   -12937532.10849  -9399997.62446  22520409.385    22520422.130
       226.000         180.000
  22332364.411    -5548690.00049  -4312721.51646  22332364.566    22332379.454
       227.000         185.000
  20262251.723   -20980865.37749 -16337265.73648  20262251.655    20262262.052
       244.000         216.000
 00  3 15  1  3 30.0000000  0  7G17G26G23G 5G10G30G 6
  21549611.781   -22231007.52849 -17100661.24947  21549611.195    21549624.278
       238.000         202.000
  22747468.113   -14360767.79549 -10722897.94846  22747467.696    22747483.043
       221.000         166.000
  23018404.615    -5040426.44649  -3915884.27545  23018404.740    23018420.862
       215.000         156.000
  24589956.837     4628681.41349   3618336.87345  24589957.247    24589982.754
       206.000         136.000
  22537348.940   -12848513.18349  -9330632.30246  22537348.109    22537363.893
       226.000         180.000
  22349454.476    -5458881.19149  -4242740.78946  22349454.894    22349469.733
       228.000         184.000
  20259729.204   -20994120.52849 -16347594.40748  20259729.261    20259739.854
       243.000         216.000
 00  3 15  1  4  0.0000000  0  7G17G26G23G 5G10G30G 6
  21542051.989   -22270734.44849 -17131617.21447  21542051.658    21542064.373
       238.000         203.000
  22734159.393   -14430704.15749 -10777393.56346  22734158.619    22734174.271
       220.000         165.000
  23001006.035    -5131855.07649  -3987127.10345  23001005.175    23001021.763
       217.000         156.000
  24610059.232     4734318.11649   3700650.79945  24610059.081    24610082.228
       204.000         135.000
  22554351.195   -12759166.58649  -9261011.64246  22554351.347    22554365.148
       229.000         180.000
  22366604.201    -5368759.66149  -4172516.35446  22366604.522    22366619.843
       227.000         185.000
  20257295.048   -21006912.07749 -16357561.80848  20257295.276    20257305.659
       243.000         216.000
 00  3 15  1  4 30.0000000  0  7G17G26G23G 5G10G30G 6
  21534528.733   -22310269.29349 -17162423.50147  21534527.437    21534540.534
       237.000         203.000
  22720916.177   -14500296.16749 -10831620.86946  22720915.887    22720931.391
       216.000         164.000
  22983660.867    -5223003.60149  -4058151.69845  22983659.604    22983676.935
       215.000         157.000
  24630157.531     4839933.59149   3782948.21145  24630159.685    24630182.260
       204.000         137.000
  22571412.605   -12669509.86049  -9191149.31346  22571412.356    22571425.780
       227.000         180.000
  22383810.867    -5278338.30649  -4102058.29946  22383811.680    22383825.805
       229.000         185.000
  20254944.370   -21019264.90249 -16367187.35748  20254944.274    20254954.636
       243.000         216.000
 00  3 15  1  5  0.0000000  0  7G17G26G23G 5G10G30G 6
  21527042.029   -22349610.56949 -17193078.97247  21527041.619    21527053.922
       238.000         203.000
  22707737.919   -14569546.54649 -10885581.95646  22707737.760    22707752.775
       215.000         164.000
  22966363.399    -5313901.45249  -4128980.93445  22966363.018    22966379.063
       217.000         159.000
  24650245.425     4945495.36549   3865203.77345  24650245.450    24650269.401
       204.000         138.000
  22588530.002   -12579558.00849  -9121057.03346  22588529.127    22588542.201
       228.000         179.000
  22401068.736    -5187647.95949  -4031390.64546  22401069.292    22401084.102
       227.000         184.000
  20252673.803   -21031196.87449 -16376484.96748  20252673.766    20252684.174
       244.000         216.000
 00  3 15  1  5 30.0000000  0  7G17G26G23G 5G10G30G 6
  21519593.677   -22388752.43649 -17223579.05347  21519593.755    21519605.870
       239.000         203.000
  22694624.559   -14638456.05949 -10939277.41846  22694623.849    22694639.815
       217.000         164.000
  22949111.219    -5404561.41249  -4199624.79145  22949110.741    22949127.371
       217.000         160.000
  24670318.595     5050978.30649   3947397.91045  24670319.583    24670343.892
       203.000         137.000
  22605698.045   -12489339.32749  -9050756.82446  22605697.611    22605712.295
       227.000         179.000
  22418374.649    -5096705.21749  -3960526.30946  22418375.112    22418390.478
       227.000         184.000
  20250478.344   -21042733.68949 -16385474.66748  20250478.595    20250488.801
       244.000         216.000
 00  3 15  1  6  0.0000000  0  6G17G26G23G10G30G 6
  21512178.852   -22427717.59549 -17253941.43347  21512178.749    21512190.961
       240.000         204.000
  22681570.747   -14707052.98149 -10992729.30246  22681570.735    22681586.684
       217.000         165.000
  22931900.669    -5495002.62549  -4270098.21146  22931900.496    22931915.821
       220.000         163.000
  22622909.973   -12398890.10049  -8980276.96746  22622908.726    22622922.778
       225.000         178.000
  22435723.236    -5005537.44849  -3889486.64646  22435723.622    22435738.470
       224.000         182.000
  20248351.384   -21053911.16049 -16394184.35148  20248351.328    20248361.685
       244.000         216.000
 00  3 15  1  6 30.0000000  0  6G17G26G23G10G30G 6
  21504795.479   -22466517.33149 -17284174.90947  21504795.190    21504807.605
       240.000         204.000
  22668579.253   -14775322.45149 -11045926.03446  22668578.270    22668593.872
       218.000         165.000
  22914731.562    -5585226.10449  -4340401.97646  22914730.872    22914746.606
       223.000         166.000
  22640164.074   -12308219.18849  -8909624.37446  22640163.341    22640177.475
       225.000         177.000
  22453116.112    -4914138.02549  -3818266.46946  22453117.220    22453132.218
       227.000         184.000
  20246296.154   -21064711.32649 -16402600.04248  20246296.221    20246306.398
       243.000         216.000
 00  3 15  1  7  0.0000000  0  6G17G26G23G10G30G 6
  21497443.201   -22505154.39749 -17314281.65247  21497442.810    21497454.516
       239.000         205.000
  22655651.894   -14843255.25949 -11098860.43846  22655651.189    22655667.370
       216.000         165.000
  22897609.827    -5675200.68049  -4410511.77246  22897608.975    22897625.519
       220.000         169.000
  22657461.946   -12217317.98649  -8838792.33246  22657462.145    22657475.718
       228.000         177.000
  22470555.175    -4822495.33949  -3746856.75146  22470555.518    22470570.411
       227.000         183.000
  20244315.956   -21075117.37049 -16410708.61348  20244315.762    20244326.193
       244.000         216.000
 00  3 15  1  7 30.0000000  0  6G17G26G23G10G30G 6
  21490122.112   -22543626.69049 -17344259.97447  21490121.638    21490134.343
       239.000         205.000
  22642786.352   -14910862.95149 -11151541.51246  22642786.195    22642801.394
       219.000         165.000
  22880539.458    -5764905.24049  -4480411.18246  22880538.343    22880554.685
       222.000         169.000
  22674803.885   -12126186.07849  -8767780.52046  22674802.951    22674817.780
       224.000         176.000
  22488043.176    -4730596.40049  -3675247.32246  22488044.391    22488058.129
       228.000         182.000
  20242413.643   -21085113.58849 -16418497.85048  20242413.729    20242424.083
       244.000         216.000
 00  3 15  1  8  0.0000000  0  6G17G26G23G10G30G 6
  21482833.518   -22581928.60049 -17374105.54847  21482832.754    21482845.693
       239.000         205.000
  22629985.153   -14978132.49849 -11203959.10946  22629984.338    22630000.490
       220.000         167.000
  22863522.324    -5854329.78449  -4550092.41446  22863520.984    22863537.729
       220.000         169.000
  22692191.279   -12034813.89149  -8696581.49546  22692190.883    22692205.676
       224.000         175.000
  22505581.330    -4638433.77849  -3603432.43646  22505582.519    22505596.806
       228.000         182.000
  20240594.241   -21094674.59049 -16425947.95448  20240594.078    20240604.429
       243.000         216.000
 00  3 15  1  8 30.0000000  0  6G17G26G23G10G30G 6
  21475581.547   -22620037.27349 -17403800.53747  21475580.295    21475593.469
       237.000         205.000
  22617254.354   -15045032.39149 -11256088.65946  22617254.011    22617269.441
       220.000         168.000
  22846561.402    -5943458.61849  -4619543.18546  22846560.255    22846576.456
       220.000         169.000
  22709626.342   -11943193.32149  -8625188.89146  22709625.224    22709639.340
       225.000         175.000
  22523169.494    -4546008.29549  -3531412.71646  22523169.754    22523184.916
       226.000         181.000
  20238863.325   -21103770.41349 -16433035.58148  20238863.257    20238873.596
       244.000         216.000
 00  3 15  1  9  0.0000000  0  6G17G26G23G10G30G 6
  21468369.828   -22657933.59749 -17433330.06747  21468369.267    21468381.549
       238.000         204.000
  22604597.334   -15111545.28849 -11307916.65246  22604597.523    22604611.737
       221.000         169.000
  22829658.953    -6032280.80949  -4688755.03646  22829658.256    22829674.340
       222.000         171.000
  22727110.591   -11851313.08649  -8553593.98346  22727109.899    22727123.331
       224.000         175.000
  22540806.580    -4453324.85049  -3459192.00046  22540807.414    22540822.693
       229.000         181.000
  20237220.190   -21112405.01649 -16439763.81348  20237220.244    20237230.410
       244.000         216.000
 00  3 15  1  9 30.0000000  0  6G17G26G23G10G30G 6
  21461199.225   -22695614.40849 -17462691.66847  21461198.411    21461211.339
       238.000         204.000
  22592017.104   -15177654.61549 -11359430.19546  22592016.942    22592031.881
       220.000         171.000
  22812812.189    -6120810.07649  -4757738.63546  22812811.149    22812827.134
       218.000         173.000
  22744641.755   -11759187.42049  -8481807.80146  22744639.933    22744654.425
       224.000         175.000
  22558489.452    -4360401.60449  -3386784.41546  22558489.922    22558504.226
       227.000         181.000
  20235662.990   -21120587.74449 -16446139.94548  20235663.092    20235673.405
       244.000         216.000
 00  3 15  1 10  0.0000000  0  6G17G26G23G10G30G 6
  21454069.068   -22733083.29649 -17491888.13247  21454068.747    21454081.124
       241.000         205.000
  22579516.537   -15243344.81949 -11410617.14946  22579516.436    22579531.895
       221.000         173.000
  22796019.493    -6209054.60249  -4826500.32246  22796018.815    22796035.365
       221.000         172.000
  22762217.021   -11666828.69849  -8409840.04546  22762216.795    22762229.262
       223.000         174.000
  22576214.946    -4267253.63949  -3314201.75046  22576215.751    22576230.757
       226.000         181.000
  20234189.059   -21128333.62049 -16452175.66748  20234188.952    20234199.234
       244.000         216.000
 00  3 15  1 10 30.0000000  0  6G17G26G23G10G30G 6
  21446977.893   -22770347.98849 -17520925.47647  21446977.367    21446989.776
       239.000         205.000
  22567092.761   -15308631.51649 -11461489.66446  22567092.437    22567107.845
       224.000         175.000
  22779279.705    -6297022.11349  -4895046.15146  22779278.644    22779294.754
       220.000         174.000
  22779835.701   -11574242.38449  -8337694.91746  22779835.988    22779849.150
       224.000         174.000
  22593981.430    -4173890.91949  -3241451.74946  22593982.711    22593996.456
       228.000         181.000
  20232796.050   -21135653.59949 -16457879.51748  20232795.997    20232806.575
       244.000         216.000
 00  3 15  1 11  0.0000000  0  6G17G26G23G10G30G 6
  21439923.073   -22807421.37749 -17549813.74247  21439922.740    21439934.570
       240.000         205.000
  22554742.791   -15373530.55449 -11512060.12746  22554742.607    22554757.309
       222.000         175.000
  22762590.821    -6384721.30049  -4963382.91446  22762590.187    22762605.698
       222.000         175.000
  22797496.730   -11481433.08849  -8265376.06146  22797496.911    22797509.250
       225.000         174.000
  22611787.716    -4080319.21949  -3168538.87946  22611789.124    22611804.027
       229.000         182.000
  20231482.798   -21142554.84949 -16463257.08848  20231482.996    20231493.007
       244.000         216.000
 00  3 15  1 11 30.0000000  0  6G17G26G23G10G30G 6
  21432904.728   -22844303.14949 -17578552.70347  21432904.299    21432915.870
       241.000         206.000
  22542462.915   -15438061.60549 -11562343.83046  22542462.148    22542477.242
       223.000         174.000
  22745953.231    -6472151.77449  -5031510.31246  22745952.215    22745968.279
       225.000         176.000
  22815199.671   -11388405.61649  -8192887.18346  22815199.926    22815212.820
       227.000         174.000
  22629634.442    -3986535.47449  -3095460.81646  22629635.080    22629650.135
       226.000         182.000
  20230251.804   -21149023.69849 -16468297.72648  20230251.838    20230262.057
       244.000         216.000
 00  3 15  1 12  0.0000000  0  6G17G26G23G10G30G 6
  21425922.540   -22880994.34049 -17607143.14647  21425921.503    21425933.684
       240.000         205.000
  22530250.838   -15502235.58949 -11612349.30846  22530250.642    22530264.584
       223.000         174.000
  22729368.127    -6559305.82349  -5099422.29446  22729366.947    22729384.332
       223.000         176.000
  22832946.818   -11295144.39849  -8120216.16946  22832946.170    22832959.818
       224.000         173.000
  22647524.678    -3892522.08949  -3022203.79146  22647526.064    22647540.041
       231.000         182.000
  20229105.517   -21155047.48649 -16472991.56348  20229105.312    20229115.762
       244.000         216.000
 00  3 15  1 12 30.0000000  0  6G17G26G23G10G30G 6
  21418976.632   -22917495.22349 -17635585.31947  21418976.541    21418987.674
       241.000         205.000
  22518109.020   -15566040.35749 -11662067.07346  22518108.508    22518123.560
       222.000         173.000
  22712837.987    -6646171.09749  -5167109.23646  22712837.170    22712852.579
       223.000         176.000
  22850740.039   -11201640.99349  -8047356.43946  22850739.812    22850752.736
       225.000         174.000
  22665459.250    -3798276.49349  -2948765.82446  22665460.218    22665474.653
       230.000         182.000
  20228046.332   -21160613.13849 -16477328.41548  20228046.655    20228056.650
       244.000         216.000
 00  3 15  1 13  0.0000000  0  6G17G26G23G10G30G 6
  21412066.537   -22953808.42049 -17663881.23447  21412066.295    21412077.415
       241.000         206.000
  22506040.733   -15629458.32249 -11711483.44646  22506040.213    22506054.535
       222.000         172.000
  22696365.893    -6732731.58049  -5234558.71146  22696365.223    22696380.138
       227.000         178.000
  22868578.246   -11107900.68749  -7974312.09846  22868577.583    22868591.393
       224.000         173.000
  22683436.992    -3703803.48449  -2875150.63546  22683438.083    22683451.937
       230.000         180.000
  20227072.364   -21165731.41949 -16481316.66648  20227072.509    20227082.556
       244.000         216.000
 00  3 15  1 13 30.0000000  0  6G17G26G23G10G30G 6
  21405189.847   -22989944.89949 -17692039.45147  21405189.026    21405200.809
       239.000         205.000
  22494046.769   -15692485.78849 -11760595.52546  22494046.176    22494061.017
       221.000         171.000
  22679952.090    -6818985.65349  -5301769.43346  22679951.346    22679966.948
       227.000         180.000
  22886459.336   -11013934.56549  -7901091.79546  22886458.794    22886472.363
       225.000         173.000
  22701456.026    -3609113.65449  -2801366.50446  22701455.999    22701471.567
       228.000         179.000
  20226180.947   -21170415.92349 -16484966.90948  20226181.136    20226191.455
       244.000         216.000
 00  3 15  1 14  0.0000000  0  6G17G26G23G10G30G 6
  21398343.408   -23025922.38349 -17720073.77447  21398342.606    21398354.601
       241.000         205.000
  22482129.516   -15755110.51949 -11809393.79746  22482128.676    22482143.301
       220.000         170.000
  22663596.257    -6904934.79549  -5368742.51746  22663594.880    22663611.093
       226.000         181.000
  22904380.856   -10919756.36849  -7827706.25146  22904380.208    22904392.424
       226.000         172.000
  22719512.617    -3514225.84549  -2727428.12746  22719513.458    22719527.821
       229.000         178.000
  20225367.853   -21174688.75249 -16488296.36048  20225367.529    20225377.921
       244.000         216.000
 00  3 15  1 14 30.0000000  0  6G17G26G23G10G30G 6
  21391525.248   -23061751.45849 -17747992.45647  21391524.786    21391536.598
       240.000         205.000
  22470288.658   -15817333.41949 -11857878.93546  22470288.583    22470302.331
       220.000         169.000
  22647299.328    -6990574.95949  -5435474.83146  22647297.952    22647313.791
       224.000         181.000
  22922337.823   -10825392.70749  -7754176.19146  22922336.816    22922350.971
       223.000         173.000
  22737602.080    -3419165.70949  -2653355.44846  22737602.425    22737618.224
       225.000         177.000
  20224629.466   -21178568.64849 -16491319.63348  20224629.470    20224639.641
       244.000         216.000
 00  3 15  1 15  0.0000000  0  6G17G26G23G10G30G 6
  21384734.435   -23097438.13449 -17775800.18147  21384733.977    21384746.044
       241.000         206.000
  22458520.124   -15879176.46249 -11906068.08646  22458519.570    22458534.543
       218.000         168.000
  22631057.885    -7075923.50149  -5501979.91146  22631057.235    22631072.758
       227.000         182.000
  22940327.997   -10730852.90349  -7680508.85046  22940326.732    22940341.474
       221.000         171.000
  22755723.478    -3323937.41549  -2579151.75046  22755723.770    22755738.708
       227.000         175.000
  20223964.256   -21182064.12849 -16494043.35948  20223964.291    20223974.782
       243.000         216.000
 00  3 15  1 15 30.0000000  0  6G17G26G23G10G30G 6
  21377970.882   -23132980.53149 -17803495.48747  21377970.539    21377982.438
       240.000         207.000
  22446820.540   -15940656.85649 -11953974.66446  22446820.260    22446834.254
       221.000         168.000
  22614869.021    -7160995.67049  -5568269.66646  22614868.233    22614883.425
       229.000         183.000
  22958352.920   -10636130.25449  -7606699.05746  22958351.874    22958365.627
       221.000         171.000
  22773876.828    -3228541.06649  -2504817.10046  22773877.643    22773892.145
       226.000         175.000
  20223375.477   -21185158.18049 -16496454.28448  20223375.439    20223385.614
       243.000         215.000
 00  3 15  1 16  0.0000000  0  6G17G26G23G10G30G 6
  21371236.322   -23168370.33449 -17831071.87647  21371235.791    21371247.350
       241.000         206.000
  22435190.498   -16001772.24049 -12001596.82646  22435189.931    22435203.926
       221.000         168.000
  22598732.738    -7245791.78749  -5634344.32346  22598731.664    22598747.435
       227.000         182.000
  22976414.169   -10541217.37449  -7532741.03146  22976414.489    22976428.111
       223.000         171.000
  22792063.543    -3132970.05449  -2430346.38246  22792064.822    22792080.225
       226.000         175.000
  20222865.261   -21187839.27749 -16498543.41248  20222865.252    20222875.409
       243.000         215.000
 00  3 15  1 16 30.0000000  0  6G17G26G23G10G30G 6
  21364533.947   -23203591.57049 -17858516.93347  21364533.901    21364544.950
       242.000         207.000
  22423629.391   -16062525.90749 -12048937.13446  22423628.975    22423641.923
       222.000         168.000
  22582649.177    -7330310.18149  -5700202.57046  22582648.638    22582663.464
       228.000         182.000
  22994512.561   -10446109.66449  -7458631.16546  22994513.080    22994526.156
       224.000         170.000
  22810284.872    -3037218.15549  -2355734.68146  22810286.657    22810300.342
       225.000         174.000
  20222438.946   -21190079.33749 -16500288.89648  20222439.217    20222449.173
       244.000         215.000
 00  3 15  1 17  0.0000000  0  6G17G26G23G10G30G 6
  21357867.684   -23238623.42349 -17885814.41947  21357867.296    21357878.638
       241.000         207.000
  22412140.630   -16122898.88649 -12095980.79546  22412140.148    22412153.824
       223.000         169.000
  22566618.911    -7414548.67049  -5765842.70346  22566618.945    22566632.505
       228.000         184.000
  23012652.554   -10350783.71649  -7384351.27246  23012651.393    23012665.342
       220.000         169.000
  22828541.229    -2941280.63949  -2280978.36146  22828541.859    22828556.579
       223.000         171.000
  20222101.247   -21191853.94849 -16501671.67448  20222101.171    20222111.486
       243.000         215.000
 00  3 15  1 17 30.0000000  0  6G17G26G23G10G30G 6
  21351239.171   -23273456.64849 -17912957.12647  21351239.065    21351250.533
       242.000         208.000
  22400730.074   -16182861.18049 -12142704.43746  22400730.257    22400742.907
       224.000         170.000
  22550646.385    -7498483.68549  -5831246.37546  22550645.643    22550659.868
       227.000         182.000
  23030834.123   -10255238.69749  -7309900.65146  23030834.195    23030849.186
       223.000         169.000
  22846831.891    -2845162.80749  -2206081.54446  22846833.127    22846847.258
       227.000         172.000
  20221854.012   -21193153.10249 -16502683.97148  20221853.602    20221864.467
       243.000         215.000
 00  3 15  1 18  0.0000000  0  6G17G26G23G10G30G 6
  21344649.544   -23308085.26449 -17939940.38347  21344648.697    21344661.349
       241.000         208.000
  22389402.945   -16242385.56749 -12189086.85546  22389402.149    22389415.833
       222.000         172.000
  22534735.296    -7582095.76349  -5896398.40346  22534734.728    22534749.293
       226.000         181.000
  23049054.812   -10159489.31849  -7235290.81146  23049055.101    23049067.346
       222.000         169.000
  22865156.111    -2748869.58049  -2131048.00346  22865156.412    22865171.662
       226.000         172.000
  20221697.649   -21193974.29149 -16503323.83248  20221697.740    20221707.772
       245.000         215.000
 00  3 15  1 18 30.0000000  0  6G17G26G23G10G30G 6
  21338100.400   -23342501.10749 -17966757.85247  21338099.851    21338112.190
       241.000         209.000
  22378162.301   -16301454.18449 -12235114.13546  22378162.031    22378175.134
       225.000         172.000
  22518887.284    -7665376.69849  -5961292.39646  22518885.780    22518901.447
       228.000         183.000
  23067313.755   -10063537.68649  -7160523.36246  23067314.291    23067328.230
       220.000         168.000
  22883512.682    -2652405.64749  -2055881.47046  22883512.974    22883528.682
       224.000         171.000
  20221633.359   -21194311.80549 -16503586.79948  20221633.464    20221643.642
       244.000         215.000
 00  3 15  1 19  0.0000000  0  6G17G26G23G10G30G 6
  21331588.073   -23376722.57249 -17993423.85747  21331586.680    21331599.028
       239.000         207.000
  22367010.597   -16360055.86449 -12280777.56446  22367010.081    22367024.033
       224.000         173.000
  22503101.456    -7748330.55349  -6025931.54146  22503101.167    22503115.922
       228.000         185.000
  23085611.548    -9967382.07849  -7085596.97746  23085611.464    23085624.385
       220.000         167.000
  22901901.998    -2555769.46849  -1980580.72746  22901902.153    22901917.814
       223.000         173.000
  20221658.398   -21194180.23449 -16503484.24848  20221658.317    20221668.548
       244.000         216.000
 00  3 15  1 19 30.0000000  0  6G17G26G23G10G30G 6
  21325111.852   -23410754.26949 -18019941.98847  21325110.443    21325122.937
       239.000         206.000
  22355947.276   -16418193.62249 -12326079.50046  22355946.091    22355960.424
       224.000         174.000
  22487377.790    -7830958.07449  -6090316.37446  22487376.873    22487391.245
       226.000         183.000
  23103945.633    -9871036.29149  -7010522.42246  23103945.421    23103959.423
       220.000         167.000
  22920326.913    -2458945.98949  -1905134.04646  22920328.117    22920343.596
       223.000         172.000
  20221772.972   -21193577.88949 -16503014.85948  20221773.078    20221783.389
       244.000         215.000
 00  3 15  1 20  0.0000000  0  6G17G26G23G10G30G 6
  21318671.809   -23444596.08349 -18046312.15147  21318671.201    21318683.159
       240.000         206.000
  22344971.116   -16475872.89849 -12371024.17446  22344970.689    22344984.732
       224.000         175.000
  22471713.785    -7913272.16649  -6154457.01146  22471713.347    22471727.589
       227.000         182.000
  23122315.836    -9774500.85949  -6935300.03946  23122315.624    23122329.287
       219.000         166.000
  22938790.420    -2361920.10349  -1829529.64046  22938791.045    22938806.938
       220.000         172.000
  20221976.838   -21192506.64549 -16502180.09348  20221977.117    20221987.229
       244.000         215.000
 00  3 15  1 20 30.0000000  0  6G17G26G23G10G30G 6
  21312265.387   -23478261.09549 -18072544.54147  21312264.426    21312277.115
       239.000         206.000
  22334080.481   -16533102.10249 -12415618.14846  22334081.237    22334094.201
       225.000         176.000
  22456106.213    -7995289.51549  -6218366.42946  22456104.802    22456120.048
       226.000         182.000
  23140723.310    -9677769.45149  -6859924.98046  23140723.720    23140736.649
       220.000         166.000
  22957292.518    -2264691.05749  -1753766.94646  22957293.456    22957309.104
       222.000         171.000
  20222269.684   -21190967.50549 -16500980.73848  20222269.744    20222279.714
       244.000         215.000
 00  3 15  1 21  0.0000000  0  6G17G26G23G10G30G 6
  21305892.158   -23511751.77849 -18098641.08147  21305892.188    21305903.517
       241.000         207.000
  22323273.925   -16589890.02849 -12459868.26146  22323274.049    22323286.483
       226.000         177.000
  22440555.065    -8077010.17949  -6282044.63846  22440553.878    22440569.591
       228.000         184.000
  23159166.313    -9580850.03849  -6784403.42346  23159167.132    23159179.535
       221.000         165.000
  22975834.569    -2167252.66649  -1677841.08146  22975835.770    22975851.112
       224.000         171.000
  20222653.564   -21188950.46149 -16499408.98248  20222653.448    20222663.546
       244.000         215.000
 00  3 15  1 21 30.0000000  0  6G17G26G23G10G30G 6
  21299557.120   -23545043.68349 -18124582.74247  21299557.004    21299568.037
       242.000         208.000
  22312552.334   -16646231.75249 -12503770.69746  22312552.331    22312565.223
       226.000         177.000
  22425064.189    -8158414.21949  -6345476.15846  22425063.182    22425078.318
       229.000         184.000
  23177642.308    -9483757.94949  -6708747.32146  23177642.292    23177655.383
       221.000         165.000
  22994415.328    -2069610.70749  -1601756.61746  22994415.707    22994432.912
       224.000         171.000
  20223129.805   -21186447.65249 -16497458.72148  20223130.058    20223139.888
       244.000         215.000
 00  3 15  1 22  0.0000000  0  6G17G26G23G10G30G 6
  21293259.928   -23578136.39149 -18150369.17447  21293259.593    21293270.724
       242.000         207.000
  22301916.779   -16702121.63449 -12547321.04846  22301916.924    22301929.989
       225.000         178.000
  22409635.646    -8239491.14749  -6408652.79046  22409635.712    22409650.427
       229.000         183.000
  23196153.355    -9386481.76149  -6632947.74646  23196151.868    23196166.772
       217.000         165.000
  23013031.607    -1971782.31949  -1525526.86346  23013032.579    23013048.622
       223.000         172.000
  20223697.925   -21183462.38049 -16495132.50148  20223697.895    20223707.889
       244.000         215.000
 00  3 15  1 22 30.0000000  0  6G17G26G23G10G30G 6
  21287000.914   -23611027.06749 -18175998.18047  21286999.747    21287011.549
       239.000         207.000
  22291367.021   -16757560.41649 -12590519.89046  22291366.988    22291379.746
       226.000         177.000
  22394272.712    -8320223.12049  -6471560.59746  22394271.888    22394287.364
       226.000         182.000
  23214696.599    -9289035.31349  -6557015.50246  23214694.631    23214710.801
       216.000         164.000
  23031679.988    -1873785.14649  -1449165.60546  23031682.038    23031696.358
       226.000         171.000
  20224359.186   -21179987.06049 -16492424.43748  20224359.118    20224369.424
       243.000         215.000
 00  3 15  1 23  0.0000000  0  6G17G26G23G10G30G 6
  21280783.346   -23643699.14549 -18201456.84747  21280782.201    21280794.139
       239.000         206.000
  22280903.886   -16812543.67649 -12633363.79546  22280903.481    22280916.588
       226.000         178.000
  22378978.776    -8400592.58649  -6534185.96246  22378977.736    22378992.785
       226.000         181.000
  23233271.588    -9191422.92549  -6480953.96746  23233271.691    23233285.821
       219.000         165.000
  23050358.513    -1775629.94049  -1372681.18346  23050358.299    23050375.019
       220.000         170.000
  20225111.954   -21176031.11949 -16489341.85848  20225111.926    20225122.233
       243.000         215.000
 00  3 15  1 23 30.0000000  0  6G17G26G23G10G30G 6
  21274605.389   -23676163.44349 -18226753.60247  21274604.648    21274616.883
       240.000         207.000
  22270528.210   -16867067.42849 -12675849.63846  22270528.204    22270541.296
       226.000         179.000
  22363751.879    -8480609.29749  -6596536.43046  22363751.457    22363766.245
       227.000         182.000
  23251878.908    -9093641.92649  -6404761.03446  23251879.179    23251893.225
       219.000         165.000
  23069062.272    -1677340.51449  -1296092.19046  23069063.100    23069079.469
       220.000         168.000
  20225950.322   -21171625.11849 -16485908.58748  20225950.146    20225960.363
       244.000         215.000
 00  3 15  1 24  0.0000000  0  6G17G26G23G10G30G 6
  21268462.311   -23708444.93849 -18251907.91347  21268461.660    21268473.877
       241.000         208.000
  22260238.150   -16921140.99849 -12717984.68746  22260237.588    22260250.854
       225.000         178.000
  22348585.806    -8560306.93649  -6658638.27746  22348585.166    22348599.574
       229.000         184.000
  23270516.474    -8995701.62349  -6328443.96446  23270515.118    23270530.094
       217.000         165.000
  23087788.456    -1578935.04449  -1219412.78046  23087789.936    23087805.358
       223.000         170.000
  20226870.610   -21166788.61049 -16482139.85748  20226870.689    20226880.814
       243.000         215.000
 00  3 15  1 24 30.0000000  0  6G17G26G23G10G30G 6
  21262352.113   -23740554.17749 -18276928.00947  21262352.400    21262363.314
       243.000         209.000
  22250033.842   -16974763.88949 -12759768.56546  22250033.552    22250046.545
       224.000         177.000
  22333477.398    -8639701.60549  -6720504.03846  22333476.196    22333491.439
       226.000         186.000
  23289181.599    -8897615.64549  -6252013.40346  23289181.665    23289195.992
       219.000         165.000
  23106536.219    -1480416.59049  -1142645.32046  23106536.048    23106553.048
       221.000         171.000
  20227871.228   -21161530.32749 -16478042.47148  20227871.126    20227881.545
       243.000         215.000
 00  3 15  1 25  0.0000000  0  6G17G26G23G10G30G 6
  21256270.582   -23772513.29649 -18301831.13947  21256269.941    21256281.490
       242.000         209.000
  22239915.238   -17027936.41449 -12801201.51246  22239915.077    22239928.387
       222.000         176.000
  22318421.253    -8718820.92949  -6782155.22046  22318420.169    22318435.006
       228.000         186.000
  23307877.597    -8799367.96349  -6175456.83946  23307877.742    23307892.359
       221.000         164.000
  23125303.292    -1381795.64549  -1065798.00546  23125302.936    23125320.544
       222.000         171.000
  20228949.857   -21155861.92249 -16473625.51348  20228949.809    20228959.891
       243.000         215.000
 00  3 15  1 25 30.0000000  0  6G17G26G23G10G30G 6
  21250214.416   -23804338.03349 -18326629.53847  21250213.983    21250225.679
       242.000         209.000
  22229880.253   -17080669.30249 -12842291.89646  22229879.495    22229893.061
       222.000         176.000
  22303417.219    -8797666.52649  -6843593.14546  22303416.786    22303430.555
       229.000         184.000
  23326601.943    -8700971.55149  -6098784.39546  23326600.560    23326614.741
       216.000         164.000
  23144090.572    -1283067.65649   -988867.29746  23144091.079    23144107.989
       220.000         171.000
  20230108.525   -21149773.10149 -16468880.95948  20230108.567    20230118.604
       243.000         215.000
 00  3 15  1 26  0.0000000  0  6G17G26G23G10G30G 6
  21244185.042   -23836022.98149 -18351319.02247  21244185.307    21244195.369
       243.000         209.000
  22219928.031   -17132967.49749 -12883043.54846  22219928.484    22219941.282
       226.000         176.000
  22288469.934    -8876214.28249  -6904798.95646  22288469.164    22288484.134
       228.000         185.000
  23345353.057    -8602433.81049  -6022001.76246  23345352.549    23345367.639
       218.000         163.000
  23162900.703    -1184219.64249   -911843.05646  23162901.197    23162917.502
       222.000         171.000
  20231354.478   -21143225.52149 -16463778.93448  20231354.505    20231364.609
       244.000         215.000
 00  3 15  1 26 30.0000000  0  6G17G26G23G10G30G 6
  21238184.406   -23867557.12749 -18375890.99947  21238183.462    21238194.671
       241.000         209.000
  22210059.439   -17184826.97349 -12923453.33446  22210058.776    22210072.505
       224.000         177.000
  22273587.667    -8954420.11949  -6965738.33646  22273586.177    22273601.343
       228.000         185.000
  23364134.753    -8503735.38049  -5945093.98946  23364133.977    23364148.005
       218.000         163.000
  23181736.926    -1085235.52549   -834712.75546  23181738.117    23181754.344
       223.000         172.000
  20232693.229   -21136190.36149 -16458296.97748  20232693.528    20232703.403
       244.000         215.000
 00  3 15  1 27  0.0000000  0  6G17G26G23G10G30G 6
  21232216.249   -23898918.39649 -18400328.26447  21232214.893    21232226.672
       240.000         208.000
  22200276.389   -17236236.82349 -12963512.78646  22200276.159    22200289.022
       224.000         178.000
  22258775.717    -9032256.80949  -7026390.10946  22258775.470    22258789.555
       231.000         187.000
  23382947.169    -8404875.78549  -5868060.58545  23382946.703    23382961.579
       217.000         161.000
  23200600.864     -986105.35649   -757468.65646  23200602.167    23200618.994
       224.000         173.000
  20234128.573   -21128647.89649 -16452419.71748  20234128.814    20234138.724
       244.000         215.000
 00  3 15  1 27 30.0000000  0  6G17G26G23G10G30G 6
  21226285.502   -23930083.46849 -18424612.64447  21226284.699    21226296.074
       241.000         207.000
  22190582.747   -17287176.47149 -13003205.82546  22190582.729    22190595.768
       227.000         179.000
  22244038.183    -9109702.02049  -7086736.79147  22244037.703    22244052.258
       231.000         188.000
  23401786.498    -8305874.23949  -5790916.61545  23401786.890    23401800.393
       215.000         161.000
  23219494.344     -886820.54049   -680104.04646  23219495.838    23219511.625
       224.000         174.000
  20235661.695   -21120591.51649 -16446141.99848  20235661.533    20235671.452
       243.000         215.000
 00  3 15  1 28  0.0000000  0  6G17G26G23G10G30G 6
  21220394.977   -23961038.50949 -18448733.39247  21220395.216    21220404.965
       243.000         208.000
  22180983.984   -17337617.76449 -13042510.55546  22180984.094    22180996.787
       227.000         179.000
  22229373.128    -9186767.04649  -7146787.25247  22229372.306    22229386.751
       229.000         188.000
  23420654.294    -8206724.40149  -5713657.04545  23420654.029    23420669.375
       218.000         160.000
  23238417.353     -787380.45749   -602618.44046  23238418.797    23238435.548
       226.000         174.000
  20237292.410   -21112021.69549 -16439464.19348  20237292.524    20237302.592
       244.000         215.000
 00  3 15  1 28 30.0000000  0  6G17G26G23G10G30G 6
  21214543.839   -23991787.03549 -18472693.20947  21214543.147    21214553.672
       242.000         208.000
  22171483.495   -17387543.28749 -13081413.38746  22171483.701    22171495.787
       226.000         179.000
  22214775.663    -9263475.97349  -7206560.20647  22214774.871    22214789.177
       231.000         189.000
  23439550.581    -8107424.75249  -5636280.77145  23439549.827    23439564.401
       216.000         159.000
  23257367.333     -687798.37749   -525022.19446  23257369.098    23257383.628
       225.000         174.000
  20239014.922   -21102969.47849 -16432410.50248  20239014.832    20239025.099
       243.000         215.000
 00  3 15  1 29  0.0000000  0  6G17G26G23G10G30G 6
  21208731.812   -24022328.51049 -18496491.68747  21208730.951    21208742.622
       241.000         208.000
  22162082.661   -17436944.14849 -13119907.39046  22162082.809    22162094.794
       227.000         179.000
  22200239.941    -9339860.41249  -7266080.32747  22200239.374    22200253.503
       229.000         188.000
  23458470.533    -8007999.33349  -5558806.47445  23458469.370    23458485.549
       215.000         159.000
  23276339.101     -588101.93949   -447336.84046  23276339.665    23276356.372
       221.000         172.000
  20240825.514   -21093454.87949 -16424996.51048  20240825.488    20240835.514
       243.000         215.000
 00  3 15  1 29 30.0000000  0  6G17G26G23G10G30G 6
  21202956.850   -24052676.00049 -18520139.01447  21202956.229    21202967.916
       242.000         208.000
  22152779.161   -17485833.62349 -13158002.91846  22152778.990    22152791.198
       227.000         179.000
  22185764.678    -9415927.32449  -7325353.02047  22185763.805    22185777.769
       230.000         189.000
  23477414.381    -7908448.16749  -5481234.23045  23477415.653    23477427.236
       220.000         158.000
  23295329.655     -488306.02849   -369573.99046  23295331.637    23295347.403
       222.000         169.000
  20242723.137   -21083482.66549 -16417225.92248  20242722.875    20242733.019
       244.000         215.000
 00  3 15  1 30  0.0000000  0  6G17G26G23G10G30G 6
  21197215.946   -24082844.70249 -18543647.02647  21197215.413    21197226.390
       242.000         209.000
  22143570.943   -17534222.00749 -13195707.97546  22143570.805    22143582.843
       227.000         179.000
  22171350.593    -9491673.05649  -7384375.46547  22171350.234    22171363.742
       232.000         189.000
  23496384.487    -7808761.19549  -5403556.12845  23496384.541    23496398.551
       217.000         158.000
  23314336.921     -388423.77949   -291743.86346  23314338.030    23314354.663
       221.000         167.000
  20244708.262   -21073050.63049 -16409097.05048  20244708.280    20244718.331
       244.000         215.000
 00  3 15  1 30 30.0000000  0  6G17G26G23G10G30G 6
  21191507.159   -24112844.40649 -18567023.36047  21191505.986    21191517.486
       240.000         208.000
  22134456.118   -17582119.98049 -13233030.89146  22134455.255    22134467.593
       226.000         179.000
  22156999.686    -9567086.69549  -7443139.12347  22156998.479    22157012.849
       230.000         191.000
  23515380.084    -7708939.62549  -5325773.13245  23515378.942    23515390.912
       214.000         157.000
  23333359.097     -288462.23349   -213851.95646  23333360.341    23333375.990
       221.000         165.000
  20246779.931   -21062164.06049 -16400613.97248  20246779.816    20246789.646
       244.000         215.000
 00  3 15  1 31  0.0000000  0  6G17G26G23G10G30G 6
  21185829.645   -24142678.75649 -18590270.82947  21185829.625    21185840.405
       243.000         209.000
  22125432.851   -17629536.67349 -13269978.78346  22125432.642    22125444.988
       226.000         179.000
  22142712.777    -9642164.02949  -7501640.71847  22142712.259    22142725.610
       233.000         191.000
  23534399.751    -7608989.55449  -5247890.04045  23534400.534    23534414.156
       218.000         158.000
  23352397.869     -188413.44149   -135892.05645  23352398.661    23352415.815
       220.000         162.000
  20248940.952   -21050807.48449 -16391764.67148  20248941.050    20248951.009
       244.000         215.000
 00  3 15  1 31 30.0000000  0  6G17G26G23G10G30G 6
  21180181.734   -24172358.89449 -18613398.14747  21180180.876    21180191.930
       242.000         209.000
  22116502.090   -17676467.12849 -13306547.79546  22116501.555    22116514.649
       225.000         180.000
  22128492.178    -9716893.16649  -7559871.01747  22128490.825    22128505.363
       230.000         191.000
  23553445.393    -7508905.02549  -5169902.15945  23553445.989    23553458.239
       216.000         156.000
  23371457.228      -88256.76149    -57848.08145  23371457.906    23371474.553
       220.000         161.000
  20251192.050   -21038978.10849 -16382546.94448  20251191.952    20251201.856
       244.000         215.000
 00  3 15  1 32  0.0000000  0  6G17G26G23G10G30G 6
  21174562.891   -24201885.66849 -18636405.97247  21174562.585    21174573.266
       243.000         209.000
  22107666.035   -17722899.91949 -13342729.00946  22107665.801    22107678.296
       225.000         181.000
  22114335.833    -9791284.45749  -7617838.06047  22114334.925    22114348.597
       232.000         192.000
  23572514.456    -7408698.66549  -5091819.31245  23572513.988    23572528.345
       217.000         158.000
  23390538.183       12013.37849     20284.32045  23390538.827    23390554.582
       218.000         160.000
  20253532.082   -21026680.75149 -16372964.55848  20253531.982    20253542.037
       244.000         214.000
 00  3 15  1 32 30.0000000  0  6G17G26G23G10G30G 6
  21168975.122   -24231249.69149 -18659286.97447  21168974.484    21168984.932
       242.000         209.000
  22098922.342   -17768847.37949 -13378532.05846  22098921.755    22098934.837
       227.000         181.000
  22100240.998    -9865352.45449  -7675553.17647  22100240.392    22100254.122
       234.000         192.000
  23591603.953    -7308382.87249  -5013651.23845  23591604.472    23591616.728
       219.000         157.000
  23409641.067      112398.95049     98506.63245  23409642.202    23409657.022
       217.000         158.000
  20255961.271   -21013915.07849 -16363017.25248  20255961.320    20255971.357
       244.000         214.000
 00  3 15  1 33  0.0000000  0  6G17G26G23G10G30G 6
  21163420.719   -24260437.78549 -18682030.89347  21163420.379    21163430.858
       242.000         208.000
  22090270.386   -17814312.93849 -13413959.58346  22090270.194    22090283.055
       227.000         181.000
  22086210.396    -9939083.33449  -7733005.60347  22086209.625    22086223.009
       233.000         194.000
  23610714.770    -7207955.45749  -4935396.17545  23610714.383    23610728.374
       218.000         158.000
  23428763.930      212890.34449    176811.40045  23428764.134    23428780.816
       219.000         157.000
  20258481.144   -21000672.75549 -16352698.53148  20258481.165    20258490.902
       244.000         214.000
 00  3 15  1 33 30.0000000  0  6G17G26G23G10G30G 6
  21157900.978   -24289444.59249 -18704633.53747  21157900.570    21157912.475
       242.000         210.000
  22081709.192   -17859300.85849 -13449014.92746  22081709.171    22081721.763
       228.000         181.000
  22072246.810   -10012461.82649  -7790183.46747  22072246.462    22072259.579
       234.000         193.000
  23629846.539    -7107418.10849  -4857055.40745  23629845.848    23629860.024
       216.000         159.000
  23447904.784      313475.09749    255188.92745  23447905.553    23447920.639
       219.000         156.000
  20261090.558   -20986960.10649 -16342013.32048  20261090.679    20261100.594
       243.000         214.000
 00  3 15  1 34  0.0000000  0  6G17G26G23G10G30G 6
  21152417.383   -24318261.05349 -18727087.85547  21152416.767    21152428.481
       242.000         211.000
  22073236.581   -17903824.30549 -13483708.34846  22073236.346    22073248.910
       226.000         181.000
  22058349.059   -10085494.44349  -7847091.81047  22058348.023    22058361.756
       233.000         192.000
  23649001.569    -7006757.31249  -4778618.50045  23649001.867    23649015.343
       216.000         159.000
  23467059.791      414134.00349    333624.20245  23467060.522    23467076.974
       217.000         157.000
  20263790.482   -20972771.64049 -16330957.34648  20263790.490    20263800.585
       243.000         214.000
 00  3 15  1 34 30.0000000  0  6G17G26G23G10G30G 6
  21146968.885   -24346892.70149 -18749398.17147  21146968.129    21146979.708
       242.000         211.000
  22064852.208   -17947884.04949 -13518040.45846  22064852.201    22064864.537
       226.000         181.000
  22044519.805   -10158166.65949  -7903719.31847  22044518.927    22044532.762
       235.000         193.000
  23668181.473    -6905966.11749  -4700079.93945  23668180.130    23668194.206
       212.000         157.000
  23486226.404      514854.61949    412107.59345  23486227.033    23486243.186
       214.000         156.000
  20266581.616   -20958104.09749 -16319528.06148  20266581.558    20266591.512
       243.000         214.000
 00  3 15  1 35  0.0000000  0  6G17G26G23G10G30G 6
  21141552.653   -24375354.43949 -18771576.08947  21141552.198    21141563.433
       242.000         211.000
  22056561.713   -17991449.98749 -13551987.77646  22056561.530    22056573.742
       227.000         181.000
  22030760.703   -10230470.53149  -7960059.82147  22030759.982    22030773.566
       235.000         194.000
  23687386.137    -6805043.55149  -4621439.05145  23687386.873    23687400.833
       218.000         159.000
  23505404.448      615635.99949    490638.30645  23505406.556    23505423.307
       215.000         154.000
  20269463.030   -20942961.83749 -16307728.87348  20269462.983    20269473.079
       243.000         214.000
 00  3 15  1 35 30.0000000  0  6G17G26G23G10G30G 6
  21136165.619   -24403663.41549 -18793634.97247  21136164.598    21136176.293
       242.000         210.000
  22048369.345   -18034500.43749 -13585533.42946  22048368.922    22048381.360
       227.000         181.000
  22017067.730   -10302426.57749  -8016129.26347  22017066.782    22017080.556
       234.000         194.000
  23706613.304    -6704004.51949  -4542707.39145  23706612.414    23706625.944
       213.000         158.000
  23524595.443      716484.74549    569221.53745  23524597.500    23524613.901
       216.000         155.000
  20272435.208   -20927342.84349 -16295558.20748  20272435.365    20272445.283
       243.000         215.000
 00  3 15  1 36  0.0000000  0  6G17G26G23G10G30G 6
  21130808.064   -24431816.63149 -18815572.48247  21130807.247    21130818.663
       241.000         210.000
  22040278.277   -18077018.53349 -13618664.24246  22040278.123    22040290.617
       228.000         181.000
  22003440.564   -10374037.05249  -8071929.44247  22003440.135    22003452.884
       234.000         194.000
  23725860.597    -6602859.88449  -4463893.41645  23725859.719    23725875.210
       214.000         157.000
  23543800.702      817407.69849    647862.58745  23543802.265    23543818.691
       215.000         155.000
  20275500.987   -20911232.23949 -16283004.46448  20275501.043    20275510.855
       243.000         214.000
 00  3 15  1 36 30.0000000  0  6G17G26G23G10G30G 6
  21125481.792   -24459805.13249 -18837381.64747  21125481.464    21125492.333
       242.000         209.000
  22032294.090   -18118975.05949 -13651357.49346  22032293.690    22032305.740
       226.000         181.000
  21989881.877   -10445287.49149  -8127449.09147  21989881.212    21989894.459
       235.000         193.000
  23745124.607    -6501625.29849  -4385009.40145  23745124.053    23745138.319
       215.000         156.000
  23563021.297      918411.86049    726566.89545  23563022.949    23563038.612
       215.000         155.000
  20278662.482   -20894618.61649 -16270058.75848  20278662.594    20278672.740
       244.000         215.000
 00  3 15  1 37  0.0000000  0  6G17G26G23G10G30G 6
  21120191.270   -24487607.38349 -18859045.68647  21120191.326    21120201.431
       244.000         210.000
  22024418.154   -18160362.90249 -13683607.60446  22024418.083    22024429.871
       228.000         180.000
  21976390.608   -10516183.77049  -8182692.75647  21976390.342    21976403.148
       236.000         193.000
  23764406.225    -6400301.06949  -4306055.47745  23764404.575    23764419.825
       211.000         155.000
  23582259.996     1019511.24749    805345.42245  23582261.290    23582279.584
       216.000         154.000
  20281918.564   -20877507.83649 -16256725.66448  20281918.520    20281928.407
       244.000         215.000
 00  3 15  1 37 30.0000000  0  6G17G26G23G10G30G 6
  21114939.382   -24515206.57049 -18880551.47947  21114938.422    21114950.827
       241.000         210.000
  22016644.885   -18201210.87249 -13715437.04746  22016645.124    22016656.943
       227.000         180.000
  21962966.469   -10586727.90149  -8237662.02947  21962966.025    21962978.982
       235.000         195.000
  23783702.586    -6298896.47149  -4227038.98445  23783703.445    23783717.115
       214.000         155.000
  23601514.210     1120691.33749    884186.81345  23601515.281    23601532.996
       217.000         155.000
  20285268.080   -20859905.76749 -16243009.75148  20285268.431    20285278.082
       244.000         214.000
 00  3 15  1 38  0.0000000  0  6G17G26G23G10G30G 6
  21109726.874   -24542597.41449 -18901894.92447  21109726.051    21109738.115
       242.000         211.000
  22008970.173   -18241541.37449 -13746863.26646  22008970.497    22008981.846
       229.000         180.000
  21949611.621   -10656907.47949  -8292347.21547  21949610.871    21949623.994
       236.000         195.000
  23803016.922    -6197399.59949  -4147950.53945  23803016.075    23803031.156
       212.000         154.000
  23620782.162     1221944.25049    963084.94445  23620783.932    23620800.313
       217.000         155.000
  20288711.113   -20841812.77649 -16228911.30448  20288710.918    20288721.037
       243.000         214.000
 00  3 15  1 38 30.0000000  0  6G17G26G23G10G30G 6
  21104553.263   -24569784.33649 -18923079.47247  21104552.712    21104564.062
       241.000         211.000
  22001391.576   -18281366.81349 -13777895.92546  22001391.474    22001403.246
       230.000         181.000
  21936325.830   -10726723.77849  -8346749.33847  21936325.208    21936337.775
       236.000         195.000
  23822350.101    -6095804.73849  -4068785.77745  23822350.680    23822363.690
       214.000         154.000
  23640061.758     1323257.89749   1042030.41745  23640063.075    23640079.953
       219.000         156.000
  20292244.467   -20823244.20849 -16214442.27948  20292244.332    20292254.251
       243.000         214.000
 00  3 15  1 39  0.0000000  0  6G17G26G23G10G30G 6
  21099414.853   -24596785.44549 -18944119.23547  21099414.419    21099426.309
       241.000         210.000
  21993906.571   -18320700.30249 -13808545.25746  21993906.885    21993918.077
       229.000         181.000
  21923108.352   -10796181.48649  -8400872.04647  21923107.508    21923120.212
       236.000         195.000
  23841700.678    -5994117.49349  -3989549.00445  23841700.454    23841713.462
       212.000         152.000
  23659351.549     1424624.30049   1121016.99645  23659351.872    23659370.729
       218.000         158.000
  20295866.211   -20804211.96049 -16199611.93648  20295866.154    20295876.109
       243.000         214.000
 00  3 15  1 39 30.0000000  0  6G17G26G23G10G30G 6
  21094307.424   -24623625.24049 -18965033.29147  21094307.005    21094319.076
       242.000         211.000
  21986516.498   -18359535.04349 -13838805.94146  21986516.611    21986527.738
       229.000         181.000
  21909961.231   -10865269.29449  -8454706.51147  21909960.860    21909973.519
       237.000         196.000
  23861067.077    -5892346.03949  -3910246.63045  23861066.477    23861081.288
       211.000         153.000
  23678648.263     1526027.75349   1200032.46845  23678649.062    23678666.937
       216.000         159.000
  20299580.952   -20784690.49749 -16184400.38148  20299580.853    20299590.995
       245.000         214.000
 00  3 15  1 40  0.0000000  0  6G17G26G23G10G30G 6
  21089229.874   -24650307.46949 -18985824.56447  21089229.390    21089240.651
       242.000         211.000
  21979227.218   -18397840.12549 -13868653.91246  21979227.457    21979238.592
       230.000         182.000
  21896888.528   -10933966.24849  -8508236.40947  21896887.960    21896900.314
       237.000         196.000
  23880451.739    -5790478.71049  -3830869.56545  23880451.867    23880464.952
       212.000         152.000
  23697955.784     1627488.72849   1279092.73845  23697956.986    23697974.366
       218.000         159.000
  20303392.986   -20764657.87949 -16168790.52948  20303393.163    20303402.963
       245.000         214.000
 00  3 15  1 40 30.0000000  0  6G17G26G23G10G30G 6
  21084184.179   -24676822.12949 -19006485.27247  21084183.434    21084195.197
       241.000         210.000
  21972045.359   -18435580.55049 -13898061.87746  21972045.360    21972056.840
       228.000         182.000
  21883889.130   -11002277.73549  -8561465.94547  21883888.509    21883901.350
       237.000         197.000
  23899852.300    -5688526.83949  -3751426.57745  23899850.478    23899867.588
       209.000         150.000
  23717273.145     1729001.44549   1358193.33945  23717274.443    23717290.176
       217.000         158.000
  20307301.536   -20744118.57249 -16152785.85448  20307301.438    20307311.644
       245.000         214.000
 00  3 15  1 41  0.0000000  0  6G17G26G23G10G30G 6
  21079170.547   -24703168.20249 -19027014.59647  21079170.334    21079180.973
       243.000         210.000
  21964975.927   -18472730.31449 -13927009.58646  21964976.044    21964987.601
       229.000         182.000
  21870962.408   -11070207.31049  -8614397.89947  21870961.818    21870974.150
       237.000         198.000
  23919269.416    -5586490.38049  -3671917.70545  23919268.935    23919283.206
       210.000         151.000
  23736600.671     1830567.82049   1437335.71145  23736601.193    23736618.069
       216.000         156.000
  20311307.177   -20723068.68149 -16136383.31348  20311307.325    20311316.919
       245.000         214.000
 00  3 15  1 41 30.0000000  0  6G17G26G23G10G30G 6
  21074191.118   -24729336.53849 -19047405.44847  21074191.531    21074201.678
       244.000         211.000
  21958018.084   -18509293.29449 -13955500.08346  21958017.921    21958029.693
       228.000         181.000
  21858108.337   -11137755.70949  -8667032.82947  21858107.317    21858119.744
       236.000         197.000
  23938700.951    -5484377.07549  -3592348.91645  23938699.323    23938715.944
       210.000         150.000
  23755937.971     1932185.28749   1516517.92845  23755938.976    23755957.142
       214.000         155.000
  20315408.207   -20701517.78749 -16119590.39048  20315408.126    20315418.095
       245.000         214.000
 00  3 15  1 42  0.0000000  0  6G17G26G23G10G30G 6
  21069247.784   -24755314.31849 -19067647.79347  21069247.414    21069258.368
       243.000         211.000
  21951170.150   -18545278.63449 -13983540.46746  21951169.911    21951180.876
       228.000         180.000
  21845323.642   -11204938.58249  -8719382.92747  21845322.818    21845335.562
       237.000         197.000
  23958147.171    -5382186.99449  -3512720.33145  23958147.310    23958161.360
       213.000         152.000
  23775282.780     2033842.26249   1595730.93945  23775283.474    23775301.322
       211.000         154.000
  20319598.225   -20679498.73149 -16102432.66948  20319598.595    20319608.071
       245.000         214.000
 00  3 15  1 42 30.0000000  0  6G17G26G23G10G30G 6
  21064339.533   -24781107.61549 -19087746.40547  21064339.062    21064350.121
       242.000         211.000
  21944428.633   -18580704.41549 -14011144.80746  21944428.448    21944439.970
       228.000         180.000
  21832604.779   -11271776.00849  -8771463.84647  21832603.583    21832616.586
       236.000         198.000
  23977605.233    -5279935.24649  -3433043.67545  23977604.350    23977620.249
       212.000         153.000
  23794628.936     2135506.33649   1674949.49545  23794631.359    23794647.236
       214.000         154.000
  20323874.656   -20657026.20749 -16084921.59848  20323874.444    20323884.562
       244.000         214.000
 00  3 15  1 43  0.0000000  0  6G17G26G23G10G30G 6
  21059464.990   -24806722.96949 -19107706.33647  21059464.196    21059475.203
       242.000         210.000
  21937788.418   -18615598.51249 -14038334.85746  21937788.375    21937799.351
       227.000         180.000
  21819953.223   -11338259.30249  -8823268.83747  21819952.671    21819964.915
       239.000         198.000
  23997074.881    -5177621.37649  -3353318.61745  23997074.101    23997089.356
       213.000         153.000
  23813977.054     2237179.88849   1754175.39545  23813978.436    23813995.734
       215.000         155.000
  20328237.227   -20634100.60949 -16067057.48248  20328237.474    20328247.075
       246.000         214.000
 00  3 15  1 43 30.0000000  0  6G17G26G23G10G30G 6
  21054624.454   -24832159.86649 -19127527.22247  21054623.358    21054634.841
       242.000         210.000
  21931244.950   -18649984.22149 -14065128.77146  21931244.835    21931256.183
       226.000         181.000
  21807369.161   -11404388.28049  -8874797.72747  21807368.133    21807380.617
       237.000         197.000
  24016556.337    -5075244.94149  -3273544.79645  24016555.724    24016570.226
       213.000         152.000
  23833325.406     2338856.34949   1833403.57445  23833325.962    23833345.358
       215.000         156.000
  20332687.527   -20610714.00649 -16048834.13748  20332687.473    20332697.407
       244.000         213.000
 00  3 15  1 44  0.0000000  0  6G17G26G23G10G30G 6
  21049817.486   -24857420.14249 -19147210.47647  21049817.265    21049828.493
       243.000         210.000
  21924799.719   -18683853.23949 -14091520.07146  21924799.807    21924810.852
       227.000         181.000
  21794851.613   -11470167.41049  -8926054.00747  21794850.929    21794862.909
       237.000         198.000
  24036053.156    -4972789.01249  -3193709.03945  24036053.836    24036067.567
       215.000         153.000
  23852674.244     2440534.98449   1912633.44945  23852675.047    23852693.786
       216.000         158.000
  20337229.365   -20586846.20649 -16030235.83648  20337229.179    20337239.169
       244.000         213.000
 00  3 15  1 44 30.0000000  0  6G17G26G23G10G30G 6
  21045043.879   -24882506.43949 -19166758.16047  21045042.920    21045054.519
       241.000         211.000
  21918454.894   -18717194.77349 -14117500.32046  21918455.149    21918466.071
       230.000         182.000
  21782401.841   -11535590.58149  -8977032.92647  21782401.117    21782413.830
       236.000         199.000
  24055566.354    -4870247.11549  -3113806.30345  24055565.229    24055580.416
       212.000         152.000
  23872027.344     2542235.51349   1991880.36945  23872027.939    23872046.415
       214.000         157.000
  20341866.784   -20562476.24049 -16011246.24248  20341866.819    20341876.800
       244.000         213.000
 00  3 15  1 45  0.0000000  0  6G17G26G23G10G30G 6
  21040301.696   -24907426.18849 -19186176.06047  21040300.893    21040312.773
       241.000         211.000
  21912213.322   -18749993.70949 -14143057.79146  21912212.991    21912224.371
       229.000         183.000
  21770020.226   -11600655.52949  -9027732.71047  21770019.479    21770031.651
       235.000         199.000
  24075096.692    -4767614.13149  -3033832.57545  24075096.348    24075110.574
       213.000         153.000
  23891388.393     2643977.51349   2071159.62145  23891389.855    23891408.343
       217.000         157.000
  20346598.050   -20537613.16149 -15991872.39447  20346598.023    20346607.696
       244.000         212.000
 00  3 15  1 45 30.0000000  0  6G17G26G23G10G30G 6
  21035588.604   -24932192.74049 -19205474.58547  21035587.975    21035599.570
       242.000         210.000
  21906076.063   -18782245.22149 -14168188.69746  21906076.299    21906087.535
       228.000         183.000
  21757704.893   -11665372.12649  -9078161.04347  21757704.245    21757716.870
       237.000         199.000
  24094643.079    -4664898.26849  -2953794.25645  24094641.976    24094657.186
       214.000         153.000
  23910756.551     2745756.81249   2150467.90045  23910757.767    23910773.904
       218.000         157.000
  20351423.375   -20512255.74549 -15972113.34747  20351423.153    20351433.260
       244.000         212.000
 00  3 15  1 46  0.0000000  0  6G17G26G23G10G30G 6
  21030903.982   -24956810.91249 -19224657.51047  21030903.269    21030914.007
       242.000         211.000
  21900044.619   -18813940.18449 -14192885.92846  21900044.385    21900056.328
       229.000         183.000
  21745457.024   -11729734.33549  -9128313.24047  21745456.254    21745468.405
       238.000         199.000
  24114201.604    -4562116.76549  -2873704.83445  24114201.216    24114216.028
       211.000         153.000
  23930131.904     2847573.12749   2229805.01445  23930133.773    23930150.027
       222.000         158.000
  20356341.787   -20486408.71649 -15951972.78147  20356341.878    20356351.811
       244.000         212.000
 00  3 15  1 46 30.0000000  0  6G17G26G23G10G30G 6
  21026247.510   -24981280.25549 -19243724.44247  21026246.952    21026257.086
       242.000         210.000
  21894121.644   -18845065.08949 -14217138.95846  21894121.715    21894132.893
       230.000         184.000
  21733279.313   -11793728.13549  -9178178.35847  21733278.834    21733290.952
       237.000         200.000
  24133768.290    -4459293.85949  -2793583.13545  24133768.340    24133781.221
       213.000         153.000
  23949512.835     2949418.09149   2309164.48645  23949513.497    23949531.789
       215.000         156.000
  20361353.038   -20460074.60449 -15931452.66847  20361353.059    20361362.985
       244.000         212.000
 00  3 15  1 47  0.0000000  0  6G17G26G23G10G30G 6
  21021621.290   -25005591.02549 -19262667.83947  21021620.015    21021631.650
       240.000         210.000
  21888306.928   -18875621.10649 -14240948.70046  21888306.761    21888317.561
       231.000         184.000
  21721173.768   -11857342.79349  -9227748.04947  21721172.915    21721185.015
       237.000         200.000
  24153339.863    -4356445.48949  -2713441.55645  24153338.372    24153353.723
       212.000         153.000
  23968897.196     3051282.75549   2388539.30645  23968897.747    23968916.782
       213.000         153.000
  20366457.823   -20433248.51649 -15910549.21647  20366458.104    20366467.619
       245.000         212.000
 00  3 15  1 47 30.0000000  0  6G17G26G23G10G30G 6
  21017029.660   -25029718.60449 -19281468.45547  21017028.904    21017040.938
       242.000         210.000
  21882600.030   -18905610.26149 -14264316.74346  21882600.121    21882610.684
       231.000         185.000
  21709142.798   -11920565.27349  -9277012.14647  21709142.304    21709153.943
       239.000         200.000
  24172917.523    -4253563.69049  -2633273.96845  24172916.678    24172930.309
       211.000         152.000
  23988284.313     3153162.66649   2467926.01745  23988284.996    23988304.314
       215.000         155.000
  20371662.692   -20405896.97049 -15889236.31147  20371662.531    20371672.533
       244.000         212.000
 00  3 15  1 48  0.0000000  0  6G17G26G23G10G30G 6
  21012477.789   -25053638.30449 -19300107.11347  21012477.005    21012488.086
       241.000         210.000
  21877005.137   -18935011.40149 -14287226.59146  21877005.095    21877016.381
       230.000         185.000
  21697190.182   -11983375.89949  -9325955.31747  21697189.668    21697201.666
       238.000         200.000
  24192503.068    -4150639.34249  -2553073.18745  24192502.539    24192517.172
       210.000         150.000
  24007673.818     3255053.44349   2547321.16845  24007674.942    24007693.072
       214.000         157.000
  20376969.822   -20378007.62049 -15867504.33747  20376970.147    20376979.573
       245.000         212.000
 00  3 15  1 48 30.0000000  0  6G17G26G23G10G30G 6
  21007968.569   -25077334.26749 -19318571.43647  21007968.606    21007978.482
       244.000         210.000
  21871523.392   -18963817.57949 -14309672.83046  21871523.359    21871534.533
       232.000         185.000
  21685316.570   -12045771.51549  -9374575.10647  21685316.088    21685328.081
       238.000         201.000
  24212101.491    -4047650.72149  -2472822.35745  24212100.302    24212115.681
       210.000         151.000
  24027065.723     3356958.54449   2626727.48145  24027067.108    24027085.150
       212.000         155.000
  20382378.396   -20349585.61249 -15845357.31147  20382378.553    20382388.294
       244.000         212.000
 00  3 15  1 49  0.0000000  0  6G17G26G23G10G30G 6
  21003502.417   -25100804.06949 -19336859.52847  21003501.818    21003512.669
       243.000         211.000
  21866150.638   -18992051.07749 -14331672.83046  21866150.599    21866161.811
       231.000         185.000
  21673519.284   -12107766.13449  -9422882.42347  21673518.835    21673530.246
       239.000         201.000
  24231714.067    -3944585.06149  -2392511.48245  24231714.763    24231728.520
       210.000         149.000
  24046458.402     3458867.79149   2706137.03545  24046459.692    24046477.919
       212.000         151.000
  20387886.048   -20320642.64749 -15822804.34847  20387886.010    20387895.957
       244.000         212.000
 00  3 15  1 49 30.0000000  0  6G17G26G23G10G30G 6
  20999078.096   -25124053.80749 -19354976.13547  20999077.481    20999088.461
       242.000         211.000
  21860886.529   -19019713.84049 -14353228.10446  21860886.543    21860897.239
       231.000         184.000
  21661797.014   -12169366.49949  -9470882.55647  21661796.021    21661808.163
       237.000         201.000
  24251342.283    -3841438.21349  -2312137.32745  24251341.186    24251356.435
       206.000         147.000
  24065849.835     3560769.03149   2785540.30945  24065852.697    24065869.354
       217.000         153.000
  20393489.882   -20291194.24849 -15799857.52647  20393489.731    20393499.583
       245.000         212.000
 00  3 15  1 50  0.0000000  0  6G17G26G23G10G30G 6
  20994691.195   -25147106.64149 -19372939.33047  20994691.428    20994701.266
       244.000         211.000
  21855731.341   -19046803.84449 -14374337.05746  21855731.252    21855742.606
       232.000         185.000
  21650148.454   -12230579.07449  -9518580.47947  21650148.034    21650159.645
       238.000         201.000
  24270982.659    -3738227.61149  -2231713.53045  24270981.969    24270997.151
       208.000         148.000
  24085238.116     3662652.78849   2864930.00045  24085238.207    24085258.347
       216.000         154.000
  20399184.225   -20261270.19049 -15776540.06347  20399184.049    20399193.864
       243.000         211.000
 00  3 15  1 50 30.0000000  0  6G17G26G23G10G30G 6
  20990337.997   -25169983.55549 -19390765.45747  20990337.212    20990347.992
       241.000         211.000
  21850682.243   -19073336.08249 -14395011.39246  21850682.357    21850692.673
       232.000         185.000
  21638570.280   -12291422.09849  -9565990.47347  21638569.870    21638581.277
       237.000         201.000
  24290633.144    -3634962.63749  -2151247.27945  24290631.236    24290647.219
       206.000         146.000
  24104621.788     3764513.22949   2944301.51445  24104621.438    24104640.113
       212.000         153.000
  20404966.191   -20230885.29149 -15752863.50347  20404966.236    20404976.185
       244.000         211.000
 00  3 15  1 51  0.0000000  0  7G17G26G23G10G30G21G 6
  20986012.915   -25192710.93949 -19408475.04347  20986012.406    20986023.573
       243.000         211.000
  21845740.536   -19099304.78849 -14415246.63246  21845740.758    21845751.414
       230.000         185.000
  21627062.808   -12351893.69549  -9613111.03347  21627062.246    21627073.930
       238.000         201.000
  24310290.128    -3531665.45549  -2070756.02245  24310289.976    24310305.429
       208.000         147.000
  24123997.812     3866334.59549   3023642.57045  24123998.613    24124017.749
       212.000         151.000
  24947814.523    -2406268.62449  -1859887.21945  24947816.176    24947835.126
       204.000         133.000
  20410835.517   -20200041.49649 -15728829.36747  20410835.393    20410844.981
       243.000         211.000
 00  3 15  1 51 30.0000000  0  7G17G26G23G10G30G21G 6
  20981704.336   -25215352.36349 -19426117.65347  20981703.909    20981714.406
       243.000         212.000
  21840900.591   -19124738.25549 -14435064.79446  21840900.789    21840911.108
       231.000         184.000
  21615619.780   -12412026.92949  -9659967.93647  21615619.258    21615631.056
       238.000         202.000
  24329942.000    -3428393.80249  -1990284.62445  24329940.743    24329956.479
       206.000         144.000
  24143359.205     3968078.06149   3102922.89645  24143359.630    24143377.372
       215.000         150.000
  24930357.850    -2498002.83449  -1931367.96745  24930355.304    24930379.627
       200.000         134.000
  20416782.671   -20168788.66649 -15704476.49547  20416782.675    20416792.701
       244.000         211.000
 00  3 15  1 52  0.0000000  0  7G17G26G23G10G30G21G 6
  20977424.228   -25237844.72049 -19443644.13347  20977423.952    20977434.136
       243.000         212.000
  21836177.196   -19149559.26049 -14454405.72146  21836177.349    21836187.784
       231.000         184.000
  21604254.099   -12471753.42449  -9706507.90947  21604253.107    21604264.781
       238.000         202.000
  24349601.515    -3325083.64049  -1909783.19445  24349599.753    24349615.425
       206.000         144.000
  24162718.505     4069811.11649   3182195.09845  24162719.897    24162737.716
       212.000         152.000
  24912926.141    -2589606.22849  -2002746.84845  24912925.191    24912946.354
       206.000         135.000
  20422822.161   -20137051.07249 -15679745.89847  20422822.564    20422831.984
       244.000         211.000
 00  3 15  1 52 30.0000000  0  7G17G26G23G10G30G21G 6
  20973172.643   -25260186.99149 -19461053.65347  20973172.475    20973182.256
       244.000         212.000
  21831568.717   -19173776.52549 -14473276.20146  21831568.819    21831579.310
       230.000         183.000
  21592965.089   -12531076.65749  -9752733.65947  21592964.122    21592976.554
       237.000         202.000
  24369265.518    -3221748.64849  -1829262.46445  24369264.429    24369280.311
       203.000         144.000
  24182073.693     4171523.26249   3261451.04945  24182074.678    24182093.294
       210.000         150.000
  24895518.916    -2681080.23849  -2074024.95345  24895518.491    24895539.378
       207.000         135.000
  20428954.890   -20104823.47149 -15654633.47147  20428954.969    20428964.647
       244.000         211.000
 00  3 15  1 53  0.0000000  0  7G17G26G23G10G30G21G 6
  20968951.212   -25282371.13349 -19478339.95147  20968951.007    20968961.321
       244.000         212.000
  21827075.331   -19197388.74049 -14491675.21946  21827075.020    21827086.205
       229.000         183.000
  21581752.492   -12589998.26349  -9798646.44047  21581751.854    21581763.558
       238.000         202.000
  24388932.091    -3118398.13549  -1748729.60145  24388931.804    24388946.420
       202.000         142.000
  24201425.254     4273215.05849   3340691.17445  24201425.442    24201446.264
       209.000         151.000
  24878139.163    -2772409.94749  -2145190.57045  24878137.933    24878159.303
       209.000         138.000
  20435181.509   -20072102.54849 -15629136.63247  20435181.688    20435191.692
       244.000         211.000
 00  3 15  1 53 30.0000000  0  7G17G26G23G10G30G21G 6
  20964762.346   -25304384.19249 -19495492.93847  20964761.528    20964772.836
       243.000         212.000
  21822693.830   -19220413.13049 -14509616.19146  21822693.644    21822704.586
       230.000         183.000
  21570614.854   -12648526.58549  -9844252.77747  21570614.145    21570626.091
       239.000         203.000
  24408601.099    -3015037.16049  -1668188.58145  24408600.288    24408615.404
       205.000         143.000
  24220772.404     4374884.40149   3419913.78245  24220773.537    24220793.174
       214.000         153.000
  24860790.836    -2863574.57649  -2216227.57645  24860789.064    24860811.832
       206.000         141.000
  20441504.198   -20038876.43449 -15603246.13447  20441504.581    20441513.813
       245.000         211.000
 00  3 15  1 54  0.0000000  0  8G17G26G22G23G10G30G21G 6
  20960610.560   -25326201.76949 -19512493.60648  20960609.852    20960620.625
       243.000         213.000
  21818422.536   -19242858.09949 -14527105.67046  21818422.021    21818433.426
       229.000         183.000
                   -573004.22549   -444475.21144                  23657806.066
       210.000         129.000
  21559550.085   -12706671.47049  -9889560.33547  21559549.494    21559561.237
       239.000         202.000
  24428273.127    -2911659.60649  -1587634.66645  24428271.769    24428288.360
       204.000         143.000
  24240115.309     4476530.42849   3499118.18045  24240116.327    24240135.007
       213.000         154.000
  24843473.055    -2954577.88149  -2287138.93145  24843471.043    24843493.087
       203.000         139.000
  20447924.431   -20005138.04349 -15576956.46747  20447924.247    20447934.533
       243.000         211.000
 00  3 15  1 54 30.0000000  0  8G17G26G22G23G10G30G21G 6
  20956495.933   -25347823.31849 -19529341.51447  20956495.530    20956505.768
       244.000         212.000
  21814259.605   -19264733.42949 -14544151.28546  21814259.642    21814270.298
       229.000         183.000
  23654633.315     -589596.44549   -457404.12045  23654632.389    23654647.712
       212.000         146.000
  21548556.290   -12764443.68749  -9934577.50147  21548555.356    21548567.336
       237.000         203.000
  24447947.522    -2808270.74949  -1507071.92645  24447947.508    24447962.082
       209.000         143.000
  24259452.171     4578145.69049   3578298.61945  24259453.720    24259472.639
       210.000         153.000
  24826182.206    -3045439.05049  -2357939.51845  24826181.262    24826203.143
       202.000         135.000
  20454440.740   -19970894.61949 -15550273.26847  20454440.925    20454450.529
       245.000         211.000
 00  3 15  1 55  0.0000000  0  8G17G26G22G23G10G30G21G 6
  20952417.838   -25369253.82249 -19546040.55047  20952417.063    20952427.612
       243.000         212.000
  21810203.391   -19286048.49049 -14560760.31546  21810203.240    21810214.114
       229.000         183.000
  23651573.814     -605672.53449   -469930.83545  23651572.497    23651588.580
       212.000         150.000
  21537631.105   -12821855.33249  -9979313.69947  21537630.379    21537641.972
       238.000         204.000
  24467624.403    -2704867.95049  -1426498.28245  24467624.146    24467639.691
       206.000         144.000
  24278780.728     4679717.40049   3657445.13645  24278781.489    24278802.260
       211.000         150.000
  24808917.315    -3136164.85049  -2428634.61245  24808916.784    24808936.513
       206.000         134.000
  20461050.377   -19936160.86249 -15523207.99347  20461050.420    20461060.171
       243.000         211.000
 00  3 15  1 55 30.0000000  0  8G17G26G22G23G10G30G21G 6
  20948379.835   -25390473.35749 -19562575.19747  20948379.519    20948390.090
       243.000         212.000
  21806255.893   -19306792.36549 -14576924.27646  21806256.263    21806267.115
       229.000         184.000
  23648616.113     -621215.50549   -482042.12445  23648614.925    23648631.103
       213.000         153.000
  21526778.096   -12878887.41849 -10023754.14547  21526777.742    21526789.440
       239.000         203.000
  24487308.873    -2601426.56149  -1345894.64145  24487308.609    24487323.463
       207.000         144.000
  24298102.929     4781255.21949   3736565.20245  24298104.163    24298124.315
       212.000         150.000
  24791682.057    -3226735.51949  -2499208.81245  24791680.427    24791701.306
       206.000         133.000
  20467755.469   -19900925.12049 -15495751.56647  20467755.308    20467765.459
       243.000         211.000
 00  3 15  1 56  0.0000000  0  8G17G26G22G23G10G30G21G 6
  20944383.613   -25411473.76849 -19578939.10147  20944383.165    20944393.388
       243.000         212.000
  21802420.783   -19326945.44949 -14592627.87046  21802420.928    21802431.897
       230.000         184.000
  23645759.520     -636226.32449   -493738.75645  23645759.222    23645774.118
       217.000         155.000
  21515997.949   -12935537.14949 -10067896.65047  21515997.475    21516009.130
       239.000         204.000
  24507002.936    -2497933.01749  -1265250.29645  24507001.676    24507015.793
       207.000         140.000
  24317420.533     4882768.24249   3815665.96945  24317420.900    24317441.907
       210.000         151.000
  24774476.722    -3317148.14449  -2569659.85945  24774475.787    24774496.749
       205.000         132.000
  20474555.641   -19865189.67649 -15467905.74547  20474555.530    20474565.489
       244.000         211.000
 00  3 15  1 56 30.0000000  0  8G17G26G22G23G10G30G21G 6
  20940426.764   -25432266.45649 -19595141.12447  20940425.695    20940436.314
       242.000         211.000
  21798698.387   -19346506.38849 -14607870.05446  21798698.345    21798709.180
       230.000         185.000
  23643007.194     -650689.22449   -505008.43245  23643006.317    23643022.001
       215.000         156.000
  21505292.897   -12991792.25649 -10111731.65347  21505292.276    21505303.826
       239.000         204.000
  24526705.883    -2394392.78449  -1184569.57745  24526705.535    24526720.939
       209.000         142.000
  24336735.370     4984265.91449   3894754.79645  24336735.179    24336756.394
       210.000         151.000
  24757302.794    -3407396.17849  -2639982.60145  24757300.947    24757323.412
       202.000         136.000
  20481451.541   -19828951.28949 -15439668.01547  20481451.326    20481461.281
       243.000         211.000
 00  3 15  1 57  0.0000000  0  8G17G26G22G23G10G30G21G 6
  20936505.418   -25452872.52149 -19611197.72847  20936504.799    20936515.933
       242.000         211.000
  21795086.552   -19365485.99149 -14622659.23346  21795086.745    21795097.652
       230.000         185.000
  23640358.927     -664605.41449   -515852.11545  23640358.340    23640373.703
       216.000         158.000
  21494663.087   -13047651.56049 -10155258.23347  21494662.355    21494674.097
       240.000         204.000
  24546416.028    -2290815.04749  -1103859.65845  24546416.110    24546430.555
       206.000         143.000
  24356045.992     5085742.61949   3973827.23445  24356047.569    24356065.434
       213.000         151.000
  24740158.015    -3497491.66649  -2710186.43145  24740156.026    24740179.105
       203.000         138.000
  20488439.156   -19792230.83549 -15411054.66547  20488439.249    20488449.251
       244.000         211.000
 00  3 15  1 57 30.0000000  0  8G17G26G22G23G10G30G21G 6
  20932617.303   -25473304.04749 -19627118.31847  20932617.091    20932627.086
       243.000         211.000
  21791585.496   -19383883.90449 -14636995.16046  21791585.919    21791596.579
       229.000         185.000
  23637808.787     -678006.17149   -526294.15545  23637807.916    23637823.408
       217.000         160.000
  21484108.185   -13103117.37149 -10198478.20947  21484107.022    21484118.787
       237.000         204.000
  24566131.092    -2187212.73249  -1023130.60845  24566130.822    24566145.137
       209.000         141.000
  24375353.279     5187200.94749   4052885.34845  24375353.214    24375373.812
       214.000         152.000
  24723038.953    -3587451.48949  -2780284.54345  24723039.076    24723059.739
       208.000         139.000
  20495517.616   -19755033.24749 -15382069.51747  20495517.648    20495527.621
       244.000         211.000
 00  3 15  1 58  0.0000000  0  8G17G26G22G23G10G30G21G 6
  20928759.713   -25493576.26449 -19642914.78147  20928759.002    20928769.614
       242.000         211.000
  21788196.170   -19401694.59249 -14650873.50546  21788196.316    21788207.262
       229.000         185.000
  23635356.872     -690890.64849   -536333.90245  23635356.393    23635371.563
       219.000         161.000
  21473628.357   -13158188.24949 -10241390.43347  21473627.897    21473639.412
       239.000         205.000
  24585847.589    -2083601.61449   -942394.64045  24585847.452    24585862.793
       207.000         143.000
  24394657.089     5288642.67849   4131930.60945  24394656.791    24394678.750
       209.000         149.000
  24705943.651    -3677287.09849  -2850285.85445  24705943.141    24705963.220
       210.000         141.000
  20502687.441   -19717355.47649 -15352710.19747  20502687.665    20502697.549
       244.000         211.000
 00  3 15  1 58 30.0000000  0  8G17G26G22G23G10G30G21G 6
  20924930.568   -25513698.42349 -19658594.30047  20924929.932    20924939.734
       243.000         211.000
  21784918.919   -19418916.53249 -14664293.08846  21784918.835    21784929.482
       231.000         186.000
  23633005.085     -703249.01749   -545963.70545  23633004.671    23633019.493
       218.000         162.000
  21463225.701   -13212854.11849 -10283987.07847  21463225.038    21463236.433
       239.000         204.000
  24605565.592    -1979982.23749   -861652.26245  24605564.292    24605580.819
       205.000         141.000
  24413954.024     5390049.34149   4210948.47445  24413954.371    24413973.783
       207.000         147.000
  24688871.232    -3767002.60749  -2920193.55845  24688871.250    24688890.901
       211.000         145.000
  20509948.994   -19679195.93249 -15322975.47147  20509949.238    20509958.779
       244.000         211.000
 00  3 15  1 59  0.0000000  0  8G17G26G22G23G10G30G21G 6
  20921131.274   -25533663.49649 -19674151.42647  20921130.872    20921140.595
       243.000         211.000
  21781757.440   -19435529.46849 -14677238.12446  21781757.853    21781768.310
       230.000         187.000
  23630751.009     -715094.26949   -555193.65846  23630750.442    23630765.781
       220.000         164.000
  21452897.613   -13267127.69549 -10326278.03547  21452896.799    21452908.377
       239.000         204.000
  24625285.275    -1876355.23049   -780903.96245  24625285.360    24625298.888
       212.000         142.000
  24433238.136     5491387.43649   4289912.90945  24433239.300    24433259.146
       209.000         143.000
  24671821.658    -3856597.31949  -2990007.16745  24671820.764    24671841.284
       212.000         147.000
  20517304.419   -19640543.18349 -15292856.42747  20517304.556    20517314.268
       243.000         211.000
 00  3 15  1 59 30.0000000  0  8G17G26G22G23G10G30G21G 6
  20917364.636   -25553457.47449 -19689575.21747  20917364.220    20917374.076
       244.000         211.000
  21778714.988   -19451517.41649 -14689696.16346  21778715.319    21778725.899
       230.000         187.000
  23628595.687     -726420.22749   -564018.98046  23628594.844    23628610.152
       220.000         165.000
  21442642.666   -13321017.51249 -10368269.95747  21442641.918    21442653.049
       239.000         205.000
  24645004.729    -1772730.22649   -700157.16145  24645004.508    24645018.659
       208.000         141.000
  24452505.975     5592639.54549   4368810.31545  24452508.700    24452525.056
       208.000         139.000
  24654799.233    -3946049.23649  -3059709.46645  24654798.338    24654819.153
       211.000         149.000
  20524756.156   -19601383.91249 -15262342.69747  20524755.957    20524766.037
       244.000         211.000
 00  3 15  2  0  0.0000000  0  8G17G26G22G23G10G30G21G 6
  20913630.690   -25573078.71149 -19704864.41547  20913629.376    20913640.181
       242.000         212.000
  21775792.169   -19466876.77649 -14701664.37746  21775792.253    21775802.855
       230.000         187.000
  23626542.388     -737209.83049   -572426.36546  23626541.566    23626557.234
       220.000         166.000
  21432460.559   -13374524.05449 -10409963.22147  21432459.497    21432471.574
       239.000         205.000
  24664724.059    -1669104.29149   -619409.71845  24664723.567    24664736.882
       209.000         140.000
  24471754.548     5693789.41849   4447628.12945  24471755.436    24471777.222
       209.000         143.000
  24637806.596    -4035344.46149  -3129289.64345  24637805.532    24637825.512
       213.000         149.000
  20532304.175   -19561719.13249 -15231435.06047  20532304.491    20532313.813
       245.000         211.000
 00  3 15  2  0 30.0000000  0  8G17G26G22G23G10G30G21G 6
  20909930.905   -25592519.76749 -19720013.22147  20909930.147    20909940.716
       242.000         212.000
  21772990.417   -19481599.84149 -14713136.79246  21772990.093    21773001.009
       229.000         187.000
  23624589.887     -747469.78049   -580421.05446  23624588.778    23624604.110
       220.000         167.000
  21422351.184   -13427648.44249 -10451358.72147  21422350.525    21422361.789
       240.000         205.000
  24684443.470    -1565478.31449   -538662.17045  24684443.825    24684457.118
       208.000         140.000
  24490982.622     5794832.33249   4526362.57045  24490982.805    24491004.380
       211.000         148.000
  24620845.485    -4124474.53349  -3198741.18945  24620844.984    24620864.305
       211.000         148.000
  20539946.413   -19521558.95149 -15200141.39947  20539946.471    20539956.211
       244.000         211.000
 00  3 15  2  1  0.0000000  0  8G17G26G22G23G10G30G21G 6
  20906265.777   -25611779.63849 -19735020.83747  20906265.783    20906275.516
       243.000         212.000
  21770307.552   -19495697.51049 -14724121.87546  21770308.029    21770318.138
       230.000         187.000
  23622734.590     -757218.79049   -588017.59146  23622733.812    23622749.372
       221.000         168.000
  21412313.572   -13480395.71049 -10492460.34647  21412313.174    21412324.397
       240.000         206.000
  24704161.056    -1461861.97949   -457922.17645  24704159.556    24704175.236
       207.000         138.000
  24510193.354     5895782.98249   4605025.07445  24510194.196    24510214.212
       212.000         151.000
  24603918.111    -4213426.67149  -3268054.06745  24603915.134    24603937.191
       204.000         146.000
  20547682.956   -19480903.13749 -15168461.52747  20547683.065    20547692.913
       243.000         211.000
 00  3 15  2  1 30.0000000  0  8G17G26G22G23G10G30G21G 6
  20902634.715   -25630861.79649 -19749889.98648  20902634.307    20902644.698
       243.000         213.000
  21767739.372   -19509193.06049 -14734637.77746  21767739.767    21767750.073
       230.000         187.000
  23620977.927     -766449.47749   -595210.25346  23620977.028    23620992.798
       221.000         169.000
  21402350.078   -13532753.87949 -10533258.77547  21402349.542    21402360.782
       240.000         206.000
  24723878.023    -1358247.34149   -377183.47245  24723877.895    24723893.088
       206.000         139.000
  24529391.663     5996669.45349   4683637.63245  24529393.924    24529414.036
       211.000         150.000
  24587027.042    -4302186.97749  -3337217.39245  24587025.996    24587045.656
       209.000         144.000
  20555511.352   -19439764.75349 -15136405.64147  20555511.486    20555521.074
       244.000         211.000
 00  3 15  2  2  0.0000000  0  7G17G26G22G23G30G21G 6
  20899034.234   -25649782.50249 -19764633.31048  20899033.560    20899043.873
       244.000         213.000
  21765280.781   -19522112.36849 -14744704.65946  21765280.840    21765291.760
       230.000         187.000
  23619315.020     -775187.93949   -602019.36246  23619314.289    23619329.750
       222.000         170.000
  21392460.552   -13584723.15749 -10573754.18347  21392460.108    21392471.383
       241.000         206.000
  24548577.283     6097488.58549   4762197.67545  24548576.414    24548597.394
       205.000         146.000
  24570170.360    -4390768.12249  -3406241.23445  24570168.456    24570189.513
       209.000         145.000
  20563430.618   -19398148.48349 -15103977.37147  20563430.593    20563440.467
       243.000         210.000
 00  3 15  2  2 30.0000000  0  7G17G26G22G23G30G21G 6
  20895459.657   -25668566.66749 -19779270.25948  20895458.895    20895469.475
       243.000         213.000
  21762927.750   -19534477.32149 -14754339.58446  21762927.559    21762938.921
       231.000         187.000
  23617742.054     -783453.24049   -608459.78146  23617740.918    23617756.543
       221.000         171.000
  21382639.947   -13636330.05549 -10613967.22547  21382639.836    21382650.586
       241.000         206.000
  24567744.297     6198211.95749   4840683.11545  24567743.825    24567767.318
       200.000         141.000
  24553341.996    -4479199.27049  -3475148.15845  24553339.877    24553359.954
       205.000         142.000
  20571437.579   -19356071.42249 -15071190.03947  20571437.570    20571447.182
       244.000         210.000
 00  3 15  2  3  0.0000000  0  7G17G26G22G23G30G21G 6
  20891921.824   -25687157.18349 -19793756.30948  20891921.704    20891931.207
       244.000         213.000
  21760690.577   -19546233.52549 -14763500.16646  21760690.507    21760701.456
       230.000         187.000
  23616270.837     -791184.06749   -614483.73046  23616270.766    23616285.703
       222.000         172.000
  21372898.349   -13687522.11849 -10653856.99347  21372897.961    21372908.963
       242.000         207.000
  24586902.196     6298886.98249   4919130.86945  24586904.910    24586922.939
       209.000         141.000
  24536551.937    -4567429.25049  -3543898.32445  24536550.390    24536570.774
       207.000         144.000
  20579544.887   -19313466.92549 -15037991.72147  20579544.977    20579555.024
       243.000         210.000
 00  3 15  2  3 30.0000000  0  7G17G26G22G23G30G21G 6
  20888421.628   -25705551.09749 -19808089.17948  20888420.487    20888431.407
       242.000         213.000
  21758570.790   -19557372.56449 -14772179.82946  21758570.795    21758581.509
       231.000         187.000
  23614902.772     -798373.24049   -620085.61746  23614902.273    23614917.169
       221.000         172.000
  21363235.079   -13738302.90449 -10693426.31947  21363234.421    21363245.656
       241.000         207.000
  24606048.483     6399499.36049   4997529.84345  24606051.275    24606071.066
       211.000         145.000
  24519795.359    -4655483.50449  -3612511.57445  24519794.210    24519814.337
       210.000         147.000
  20587748.344   -19270357.52749 -15004399.96747  20587748.198    20587757.988
       242.000         210.000
 00  3 15  2  4  0.0000000  0  7G17G26G22G23G30G21G 6
  20884957.735   -25723753.02949 -19822272.43748  20884957.825    20884967.366
       245.000         213.000
  21756569.815   -19567887.29349 -14780373.02146  21756570.190    21756580.671
       230.000         187.000
  23613636.731     -805026.44949   -625269.87546  23613635.920    23613650.324
       220.000         172.000
  21353649.425   -13788675.12849 -10732677.27347  21353649.096    21353660.103
       241.000         207.000
  24625178.609     6500027.21349   5075862.91545  24625178.783    24625198.026
       206.000         143.000
  24503066.388    -4743392.65949  -3681011.74845  24503063.062    24503084.266
       200.000         144.000
  20596047.521   -19226744.54149 -14970415.81847  20596047.533    20596057.155
       242.000         209.000
 00  3 15  2  4 30.0000000  0  7G17G26G22G23G30G21G 6
  20881531.024   -25741760.94949 -19836304.52248  20881530.417    20881540.833
       243.000         213.000
  21754688.815   -19577771.47449 -14788074.88646  21754689.022    21754699.385
       230.000         187.000
  23612473.731     -811137.91949   -630031.99446  23612472.935    23612488.025
       222.000         172.000
  21344140.107   -13838646.57049 -10771615.93047  21344139.560    21344150.064
       242.000         208.000
  24644292.002     6600466.88649   5154127.30245  24644294.210    24644313.647
       210.000         141.000
  24486362.051    -4831170.27949  -3749409.37345  24486360.605    24486381.082
       207.000         146.000
  20604440.727   -19182637.78949 -14936046.89747  20604440.852    20604450.728
       242.000         209.000
 00  3 15  2  5  0.0000000  0  7G17G26G22G23G30G21G 6
  20878141.057   -25759575.37149 -19850185.83948  20878141.084    20878151.102
       244.000         213.000
  21752926.169   -19587033.80349 -14795292.17546  21752925.793    21752936.875
       231.000         187.000
  23611409.893     -816728.09549   -634387.91946  23611409.212    23611424.524
       221.000         171.000
  21334708.761   -13888208.33449 -10810235.36047  21334708.299    21334719.027
       241.000         208.000
  24663391.464     6700832.86049   5232334.20945  24663391.859    24663412.171
       212.000         144.000
  24469685.078    -4918806.62149  -3817696.97045  24469683.421    24469703.642
       206.000         148.000
  20612925.347   -19138050.83749 -14901303.80347  20612925.369    20612935.150
       241.000         209.000
 00  3 15  2  5 30.0000000  0  7G17G26G22G23G30G21G 6
  20874787.971   -25777196.16749 -19863916.25848  20874786.976    20874797.920
       242.000         213.000
  21751280.862   -19595679.38749 -14802028.90247  21751280.982    21751291.772
       230.000         188.000
  23610444.657     -821800.15749   -638340.12446  23610443.640    23610458.763
       219.000         171.000
  21325355.951   -13937356.88749 -10848532.82247  21325355.614    21325366.266
       242.000         208.000
  24682475.900     6801121.85049   5310481.16645  24682476.737    24682496.861
       210.000         145.000
  24453037.742    -5006286.86449  -3885862.92745  24453036.485    24453056.336
       212.000         148.000
  20621499.957   -19092990.69349 -14866192.00047  20621499.883    20621510.091
       241.000         209.000
 00  3 15  2  6  0.0000000  0  7G17G26G22G23G30G21G 6
  20871468.913   -25794636.77549 -19877506.27447  20871468.333    20871478.115
       243.000         212.000
  21749754.669   -19603699.15649 -14808277.96846  21749754.588    21749765.166
       231.000         187.000
  23609577.512     -826356.59049   -641890.52646  23609576.370    23609591.231
       218.000         169.000
  21316079.644   -13986103.75149 -10886517.26147  21316079.106    21316090.246
       241.000         208.000
  24701543.193     6901321.39549   5388558.40445  24701543.537    24701566.423
       209.000         144.000
  24436424.109    -5093591.05449  -3953891.69045  24436422.976    24436442.143
       215.000         151.000
  20630166.140   -19047449.61149 -14830705.42747  20630166.163    20630175.786
       241.000         209.000
 00  3 15  2  6 30.0000000  0  7G17G26G22G23G30G21G 6
  20868181.291   -25811913.37849 -19890968.50847  20868180.389    20868190.705
       243.000         212.000
  21748348.470   -19611088.56549 -14814035.85847  21748348.951    21748359.201
       231.000         188.000
  23608805.990     -830410.64349   -645049.47246  23608804.914    23608819.791
       217.000         168.000
  21306875.507   -14034471.61349 -10924206.39147  21306874.937    21306885.523
       243.000         208.000
  24720591.445     7001418.23949   5466555.62245  24720593.429    24720612.691
       210.000         144.000
  24419845.419    -5180711.59149  -4021777.41245  24419844.843    24419863.435
       213.000         151.000
  20638920.815   -19001443.32949 -14794856.36847  20638920.822    20638930.708
       241.000         209.000
 00  3 15  2  7  0.0000000  0  7G17G26G22G23G30G21G 6
  20864922.213   -25829039.07749 -19904313.14047  20864921.705    20864931.895
       243.000         212.000
  21747059.087   -19617864.30849 -14819315.56547  21747059.484    21747069.647
       231.000         188.000
  23608128.906     -833967.96949   -647821.36046  23608127.683    23608143.482
       216.000         167.000
  21297741.817   -14082469.06449 -10961606.89147  21297741.460    21297752.110
       242.000         208.000
  24739615.976     7101391.22749   5544456.30245  24739617.239    24739638.673
       204.000         146.000
  24403301.152    -5267650.34349  -4089521.43645  24403299.178    24403319.283
       209.000         151.000
  20647761.236   -18954986.57549 -14758656.30147  20647761.342    20647771.219
       241.000         208.000
 00  3 15  2  7 30.0000000  0  7G17G26G22G23G30G21G 6
  20861692.254   -25846012.96649 -19917539.48348  20861691.831    20861702.142
       243.000         213.000
  21745884.961   -19624034.19749 -14824123.17647  21745885.197    21745895.335
       231.000         188.000
  23607547.138     -837024.90149   -650203.32046  23607546.715    23607561.794
       216.000         166.000
  21288675.873   -14130110.73349 -10998730.15347  21288675.467    21288686.189
       242.000         208.000
  24758611.980     7201215.60649   5622241.29645  24758610.860    24758633.350
       204.000         141.000
  24386787.578    -5354427.09049  -4157139.20245  24386785.919    24386805.891
       212.000         150.000
  20656689.020   -18908070.74549 -14722098.49847  20656689.012    20656698.728
       241.000         208.000
 00  3 15  2  8  0.0000000  0  7G17G26G22G23G30G21G 6
  20858491.277   -25862833.89049 -19930646.62248  20858490.887    20858500.720
       244.000         213.000
  21744824.514   -19629606.27049 -14828464.96746  21744824.441    21744835.045
       232.000         187.000
  23607061.301     -839577.65649   -652192.42646  23607061.232    23607075.778
       216.000         165.000
  21279680.648   -14177380.69849 -11035563.78847  21279680.224    21279690.658
       242.000         208.000
  24777581.206     7300898.67149   5699916.12745  24777582.207    24777604.746
       210.000         143.000
  24370304.137    -5441046.87449  -4224634.77445  24370302.581    24370321.066
       207.000         146.000
  20665706.652   -18860682.77549 -14685172.79247  20665706.769    20665716.533
       240.000         208.000
 00  3 15  2  8 30.0000000  0  7G17G26G22G23G30G21G 6
  20855324.432   -25879476.23049 -19943614.61348  20855323.100    20855334.382
       243.000         213.000
  21743875.029   -19634595.70749 -14832352.74646  21743874.849    21743885.401
       231.000         187.000
  23606672.716     -841619.29449   -653783.26146  23606672.521    23606686.996
       215.000         164.000
  21270762.868   -14224243.64449 -11072080.26147  21270762.478    21270773.214
       241.000         208.000
  24796529.748     7400472.68049   5777505.84945  24796531.638    24796551.253
       213.000         143.000
  24353852.520    -5527498.65949  -4291999.37345  24353851.889    24353870.775
       209.000         147.000
  20674817.599   -18812804.39149 -14647864.95247  20674817.642    20674827.113
       241.000         208.000
 00  3 15  2  9  0.0000000  0  6G17G26G22G23G21G 6
  20852195.979   -25895915.42049 -19956424.30748  20852195.785    20852205.237
       245.000         214.000
  21743035.291   -19639008.17549 -14835790.94146  21743035.160    21743045.330
       230.000         187.000
  23606385.167     -843130.48549   -654960.75845  23606384.900    23606399.966
       213.000         162.000
  21261928.164   -14270669.76549 -11108256.34347  21261927.864    21261938.102
       243.000         209.000
  24337435.162    -5613770.64749  -4359223.89845  24337433.006    24337452.684
       209.000         145.000
  20684025.282   -18764417.77449 -14610161.07347  20684025.317    20684035.124
       241.000         208.000
 00  3 15  2  9 30.0000000  0  6G17G26G22G23G21G 6
  20849104.317   -25912162.43249 -19969084.25248  20849103.216    20849114.102
       243.000         214.000
  21742306.353   -19642838.43249 -14838775.46646  21742306.514    21742316.660
       231.000         187.000
  23606194.424     -844132.44649   -655741.46645  23606193.842    23606209.101
       212.000         160.000
  21253174.467   -14316670.06049 -11144100.62647  21253173.864    21253184.416
       242.000         208.000
  24321050.120    -5699873.37949  -4426316.53345  24321049.618    24321068.234
       208.000         148.000
  20693328.646   -18715528.47649 -14572065.51247  20693328.897    20693338.357
       241.000         208.000
 00  3 15  2 10  0.0000000  0  6G17G26G22G23G21G 6
  20846057.586   -25928172.73949 -19981559.74448  20846057.295    20846067.397
       245.000         214.000
  21741701.421   -19646016.95649 -14841252.16246  21741701.473    21741711.477
       230.000         187.000
  23606111.047     -844570.64449   -656082.86145  23606110.470    23606126.101
       211.000         158.000
  21244511.617   -14362192.87549 -11179572.84047  21244511.031    21244521.538
       242.000         209.000
  24304709.188    -5785743.52249  -4493227.93545  24304709.100    24304725.870
       213.000         147.000
  20702735.386   -18666096.17749 -14533546.83047  20702735.335    20702744.896
       241.000         208.000
 00  3 15  2 10 30.0000000  0  6G17G26G22G23G21G 6
  20843054.285   -25943955.42549 -19993857.86948  20843052.955    20843063.401
       242.000         213.000
  21741222.237   -19648534.63449 -14843213.89546  21741222.075    21741232.328
       230.000         186.000
  23606133.106     -844454.11949   -655992.01845  23606132.834    23606147.780
       213.000         157.000
  21235933.045   -14407272.91949 -11214700.02647  21235932.380    21235943.255
       242.000         210.000
  24288409.059    -5871400.09549  -4559972.96445  24288407.286    24288426.188
       215.000         149.000
  20712240.557   -18616145.82949 -14494624.47247  20712240.824    20712250.397
       242.000         208.000
 00  3 15  2 11  0.0000000  0  6G17G26G22G23G21G 6
  20840090.125   -25959530.29349 -20005994.05348  20840089.266    20840099.109
       242.000         213.000
  21740868.468   -19650393.51549 -14844662.27846  21740868.320    21740878.202
       230.000         187.000
  23606256.910     -843803.58749   -655485.04345  23606256.559    23606272.063
       213.000         157.000
  21227430.635   -14451953.00849 -11249515.58247  21227429.906    21227440.673
       242.000         209.000
  24272142.980    -5956877.31049  -4626578.21845  24272141.776    24272159.826
       216.000         150.000
  20721840.421   -18565698.59149 -14455314.92347  20721840.268    20721849.991
       241.000         209.000
 00  3 15  2 11 30.0000000  0  6G17G26G22G23G21G 6
  20837161.889   -25974917.62649 -20017984.11548  20837161.493    20837171.657
       244.000         213.000
  21740638.904   -19651599.29049 -14845601.75446  21740639.129    21740648.976
       231.000         187.000
  23606477.930     -842641.55649   -654579.51345  23606477.356    23606492.382
       218.000         158.000
  21218999.737   -14496256.97449 -11284038.05147  21218999.233    21219009.775
       242.000         210.000
  24255907.771    -6042192.70549  -4693057.36445  24255906.485    24255925.506
       214.000         153.000
  20731530.914   -18514774.40549 -14415633.72647  20731530.880    20731540.252
       240.000         208.000
 00  3 15  2 12  0.0000000  0  6G17G26G22G23G21G 6
  20834267.215   -25990129.38649 -20029837.35948  20834266.907    20834277.198
       244.000         213.000
  21740529.332   -19652174.85049 -14846050.15046  21740529.585    21740539.374
       232.000         187.000
  23606794.669     -840976.73449   -653282.20345  23606794.356    23606809.082
       217.000         159.000
  21210637.456   -14540200.45549 -11318279.60447  21210637.181    21210647.492
       242.000         210.000
  24239701.678    -6127355.12149  -4759417.28545  24239700.814    24239718.866
       216.000         155.000
  20741309.838   -18463385.63049 -14375590.51647  20741309.900    20741319.799
       241.000         208.000
 00  3 15  2 12 30.0000000  0  6G17G26G22G23G21G 6
  20831406.352   -26005163.76249 -20041552.38948  20831405.538    20831415.702
       242.000         214.000
  21740537.851   -19652129.73849 -14846014.91946  21740537.979    21740547.461
       231.000         187.000
  23607204.681     -838822.30649   -651603.37245  23607204.233    23607219.140
       218.000         160.000
  21202342.263   -14583791.61549 -11352246.63647  21202341.834    21202352.211
       243.000         209.000
  24223524.103    -6212367.58649  -4825660.34745  24223522.125    24223542.254
       214.000         153.000
  20751177.310   -18411531.78949 -14335184.90247  20751177.239    20751187.089
       241.000         207.000
 00  3 15  2 13  0.0000000  0  6G17G26G22G23G21G 6
  20828577.756   -26020026.89349 -20053133.97248  20828577.386    20828587.514
       244.000         213.000
  21740663.312   -19651469.82949 -14845500.60746  21740663.382    21740673.457
       231.000         187.000
  23607708.342     -836175.45049   -649540.83745  23607708.424    23607722.678
       218.000         160.000
  21194116.935   -14627015.45049 -11385927.42747  21194116.578    21194127.188
       242.000         210.000
  24207377.870    -6297214.56849  -4891774.48045  24207375.842    24207394.927
       212.000         153.000
  20761132.956   -18359214.26449 -14294417.98547  20761132.837    20761142.689
       240.000         207.000
 00  3 15  2 13 30.0000000  0  6G17G26G22G23G21G 6
  20825780.009   -26034729.34149 -20064590.35448  20825779.183    20825789.464
       243.000         213.000
  21740905.934   -19650194.54949 -14844506.80646  21740906.274    21740915.547
       231.000         187.000
  23608305.803     -833036.12349   -647094.56745  23608305.011    23608320.033
       218.000         160.000
  21185961.596   -14669871.54349 -11419321.66347  21185960.964    21185971.553
       242.000         210.000
  24191265.940    -6381881.19749  -4957748.03945  24191264.996    24191283.038
       216.000         155.000
  20771175.008   -18306442.62149 -14253297.22547  20771175.075    20771185.054
       240.000         207.000
 00  3 15  2 14  0.0000000  0  6G17G26G22G23G21G 6
  20823011.302   -26049278.77749 -20075927.50748  20823010.360    20823021.183
       242.000         214.000
  21741263.356   -19648316.05449 -14843042.94747  21741263.536    21741273.519
       233.000         188.000
  23608995.469     -829411.67149   -644270.28345  23608995.223    23609009.659
       218.000         160.000
  21177874.507   -14712369.24249 -11452436.63747  21177873.913    21177884.112
       242.000         210.000
  24175188.739    -6466365.86149  -5023579.81645  24175187.126    24175206.191
       213.000         155.000
  20781301.457   -18253227.59849 -14211830.96847  20781301.255    20781311.291
       240.000         206.000
 00  3 15  2 14 30.0000000  0  6G17G26G22G23G21G 6
  20820271.718   -26063674.69849 -20087145.03748  20820271.426    20820281.463
       244.000         214.000
  21741734.863   -19645838.27649 -14841112.13047  21741734.810    21741744.913
       232.000         188.000
  23609777.399     -825302.67149   -641068.42045  23609775.972    23609791.516
       216.000         160.000
  21169857.190   -14754500.24049 -11485265.85947  21169856.653    21169867.100
       243.000         211.000
  24159144.241    -6550678.06749  -5089277.23645  24159142.744    24159161.424
       214.000         153.000
  20791508.879   -18199587.24549 -14170033.27747  20791509.038    20791518.866
       240.000         207.000
 00  3 15  2 15  0.0000000  0  6G17G26G22G23G21G 6
  20817561.030   -26077919.57949 -20098244.87048  20817560.673    20817570.337
       244.000         214.000
  21742320.784   -19642758.70749 -14838712.37147  21742320.725    21742331.323
       232.000         188.000
  23610653.085     -820701.04549   -637482.70445  23610652.565    23610667.162
       217.000         161.000
  21161913.563   -14796243.79649 -11517793.19447  21161913.022    21161923.614
       242.000         211.000
  24143131.795    -6634823.06349  -5154844.36045  24143131.428    24143147.414
       217.000         156.000
  20801797.572   -18145519.67449 -14127902.69147  20801797.495    20801807.022
       239.000         206.000
 00  3 15  2 15 30.0000000  0  6G17G26G22G23G21G 6
  20814880.798   -26092003.61549 -20109219.38248  20814879.689    20814890.281
       242.000         213.000
  21743021.927   -19639074.13049 -14835841.20347  21743022.029    21743031.733
       232.000         189.000
  23611621.013     -815613.84649   -633518.63145  23611620.805    23611635.207
       217.000         161.000
  21154044.971   -14837593.29349 -11550013.46847  21154044.640    21154054.539
       243.000         210.000
  24127152.190    -6718795.10749  -5220276.70645  24127151.051    24127167.686
       214.000         154.000
  20812170.698   -18091008.08749 -14085426.12147  20812170.794    20812180.890
       239.000         206.000
 00  3 15  2 16  0.0000000  0  6G17G26G22G23G21G 6
  20812234.462   -26105909.36049 -20120054.97648  20812234.140    20812244.208
       244.000         213.000
  21743838.594   -19634782.69549 -14832497.14147  21743838.993    21743848.723
       231.000         189.000
  23612683.411     -810031.38549   -629168.62845  23612682.400    23612696.846
       217.000         162.000
  21146256.554   -14878521.16649 -11581905.19547  21146256.032    21146266.405
       242.000         211.000
  24111207.221    -6802585.03849  -5285567.19545  24111205.360    24111222.945
       214.000         151.000
  20822632.056   -18036033.36449 -14042588.67447  20822632.262    20822641.685
       239.000         206.000
 00  3 15  2 16 30.0000000  0  6G17G26G22G23G21G 6
  20809623.652   -26119630.21049 -20130746.49548  20809623.487    20809633.140
       244.000         214.000
  21744772.813   -19629872.83849 -14828671.20147  21744773.237    21744782.933
       232.000         189.000
  23613841.385     -803945.93349   -624426.68446  23613840.798    23613855.174
       219.000         163.000
  21138550.763   -14919014.74849 -11613458.52247  21138550.046    21138560.344
       243.000         211.000
  24095297.585    -6886188.87249  -5350712.63045  24095296.633    24095314.018
       216.000         155.000
  20833184.717   -17980578.82949 -13999377.33147  20833184.746    20833194.490
       239.000         205.000
 00  3 15  2 17  0.0000000  0  6G17G26G22G23G21G 6
  20807051.856   -26133145.14249 -20141277.55048  20807051.328    20807061.050
       243.000         214.000
  21745827.931   -19624327.91249 -14824350.40447  21745827.637    21745837.487
       232.000         189.000
  23615097.755     -797343.45849   -619281.87246  23615096.719    23615111.749
       219.000         164.000
  21130929.469   -14959064.43849 -11644665.96647  21130928.782    21130939.330
       243.000         211.000
  24079429.702    -6969573.45249  -5415687.21845  24079429.878    24079446.327
       215.000         154.000
  20843834.530   -17924613.35049 -13955767.86547  20843834.634    20843844.200
       240.000         205.000
 00  3 15  2 17 30.0000000  0  6G17G26G22G23G21G 6
  20804520.831   -26146444.92349 -20151640.96148  20804519.911    20804529.685
       242.000         213.000
  21747003.350   -19618150.54649 -14819536.80047  21747003.213    21747013.327
       231.000         189.000
  23616452.933     -790221.66149   -613732.38846  23616452.260    23616466.770
       221.000         165.000
  21123390.434   -14998681.76949 -11675536.49747  21123389.602    21123400.308
       242.000         211.000
  24063606.362    -7052724.38449  -5480479.78445  24063605.453    24063621.135
       216.000         154.000
  20854579.779   -17868146.59349 -13911767.77547  20854579.675    20854589.487
       239.000         205.000
 00  3 15  2 18  0.0000000  0  6G17G26G22G23G21G 6
  20802032.381   -26159521.52849 -20161830.47348  20802032.503    20802041.831
       245.000         214.000
  21748299.824   -19611336.71349 -14814227.25247  21748300.025    21748310.004
       230.000         188.000
  23617907.612     -782576.87349   -607775.38546  23617906.973    23617921.372
       220.000         166.000
  21115931.507   -15037877.89849 -11706078.83247  21115930.975    21115941.370
       242.000         211.000
  24047823.893    -7135660.24749  -5545104.77345  24047822.609    24047838.455
       209.000         153.000
  20865418.013   -17811191.09549 -13867386.86547  20865418.042    20865428.174
       239.000         205.000
 00  3 15  2 18 30.0000000  0  6G17G26G22G23G21G 6
  20799586.028   -26172377.65549 -20171848.17448  20799585.447    20799595.658
       243.000         214.000
  21749719.102   -19603877.85449 -14808415.08047  21749719.572    21749729.183
       232.000         188.000
  23619459.807     -774420.21849   -601419.51046  23619458.639    23619473.220
       220.000         167.000
  21108549.378   -15076670.88749 -11736307.02447  21108548.556    21108559.301
       243.000         211.000
  24032080.178    -7218391.71249  -5609570.44445  24032078.588    24032095.869
       215.000         152.000
  20876347.596   -17753755.90149 -13822632.15947  20876347.305    20876357.680
       239.000         205.000
 00  3 15  2 19  0.0000000  0  6G17G26G22G23G21G 6
  20797180.475   -26185018.21649 -20181697.90548  20797179.702    20797189.420
       243.000         214.000
  21751261.354   -19595772.78949 -14802099.38347  21751261.525    21751271.589
       231.000         188.000
  23621106.774     -765764.73049   -594674.94046  23621105.999    23621121.052
       221.000         167.000
  21101241.537   -15115073.04949 -11766230.67447  21101240.965    21101251.555
       243.000         212.000
  24016373.349    -7300930.56749  -5673886.08045  24016372.431    24016388.618
       216.000         154.000
  20887366.478   -17695850.96949 -13777511.42347  20887366.507    20887376.312
       239.000         204.000
 00  3 15  2 19 30.0000000  0  6G17G26G22G23G21G 6
  20794813.677   -26197455.70249 -20191389.40748  20794812.901    20794823.170
       243.000         214.000
  21752927.232   -19587018.53049 -14795277.81346  21752927.142    21752937.039
       230.000         187.000
  23622845.589     -756627.02649   -587554.62146  23622845.185    23622860.237
       219.000         167.000
  21094006.959   -15153090.69149 -11795854.71647  21094006.433    21094016.552
       243.000         212.000
  24000698.637    -7383300.23349  -5738069.85045  24000698.023    24000713.796
       216.000         155.000
  20898475.556   -17637472.33649 -13732021.56647  20898475.437    20898485.671
       239.000         204.000
 00  3 15  2 20  0.0000000  0  6G17G26G22G23G21G 6
  20792485.663   -26209688.74149 -20200921.59548  20792485.552    20792495.032
       244.000         213.000
  21754717.703   -19577609.37849 -14787945.94347  21754717.922    21754727.613
       231.000         188.000
  23624674.818     -747014.38949   -580064.20946  23624674.638    23624689.332
       217.000         167.000
  21086845.994   -15190721.34049 -11825177.19547  21086845.681    21086855.830
       243.000         212.000
  23985055.337    -7465505.26149  -5802125.33845  23985054.552    23985070.505
       216.000         157.000
  20909676.330   -17578611.77649 -13686156.18647  20909676.342    20909685.800
       240.000         205.000
 00  3 15  2 20 30.0000000  0  6G17G26G22G23G21G 6
  20790193.865   -26221733.11249 -20210306.76648  20790193.339    20790203.175
       244.000         214.000
  21756631.062   -19567554.40249 -14780110.82947  21756631.108    21756640.634
       230.000         188.000
  23626596.256     -736916.56549   -572195.74346  23626596.038    23626610.108
       218.000         167.000
  21079759.799   -15227959.02749 -11854193.47448  21079759.636    21079769.627
       244.000         213.000
  23969446.101    -7547530.81849  -5866040.98345  23969444.359    23969461.457
       214.000         154.000
  20920968.987   -17519268.11149 -13639914.36647  20920969.614    20920979.219
       240.000         204.000
 00  3 15  2 21  0.0000000  0  6G17G26G22G23G21G 6
  20787937.723   -26233588.68049 -20219544.80748  20787937.011    20787947.267
       243.000         214.000
  21758663.856   -19556871.75449 -14771786.62846  21758663.641    21758673.669
       229.000         187.000
  23628611.759     -726324.96949   -563942.48446  23628611.123    23628625.267
       219.000         167.000
  21072747.527   -15264808.43449 -11882907.20248  21072747.520    21072757.078
       245.000         213.000
  23953873.013    -7629365.83749  -5929808.14745  23953870.950    23953889.491
       213.000         153.000
  20932351.743   -17459452.07349 -13593304.44947  20932351.654    20932361.620
       238.000         204.000
 00  3 15  2 21 30.0000000  0  6G17G26G22G23G21G 6
  20785718.581   -26245249.86649 -20228631.38948  20785718.337    20785727.705
       244.000         214.000
  21760814.050   -19545572.04049 -14762981.57847  21760814.052    21760824.406
       231.000         188.000
  23630720.722     -715241.75449   -555306.16846  23630720.792    23630735.049
       222.000         167.000
  21065810.359   -15301263.78949 -11911313.86848  21065810.203    21065820.086
       244.000         213.000
  23938339.747    -7710992.57949  -5993413.01745  23938338.703    23938354.123
       216.000         155.000
  20943821.229   -17399179.35449 -13546338.68547  20943821.624    20943831.099
       240.000         204.000
 00  3 15  2 22  0.0000000  0  6G17G26G22G23G21G 6
  20783536.141   -26256718.78149 -20237568.13348  20783535.338    20783545.373
       243.000         214.000
  21763079.840   -19533665.14949 -14753703.41547  21763079.673    21763089.831
       230.000         188.000
  23632925.269     -703656.84749   -546278.91946  23632924.717    23632938.842
       220.000         167.000
  21058948.703   -15337321.76749 -11939410.90048  21058948.044    21058958.005
       243.000         213.000
  23922849.826    -7792391.52249  -6056840.36245  23922849.056    23922866.286
       217.000         158.000
  20955373.469   -17338472.27549 -13499034.45547  20955373.677    20955383.123
       239.000         204.000
 00  3 15  2 22 30.0000000  0  6G17G26G22G23G21G 6
  20781387.934   -26268007.15149 -20246364.20248  20781387.145    20781396.443
       243.000         213.000
  21765458.795   -19521163.22149 -14743961.60147  21765458.946    21765469.207
       229.000         188.000
  23635225.493     -691569.10649   -536859.85146  23635224.545    23635239.142
       219.000         167.000
  21052161.905   -15372986.02949 -11967201.14648  21052161.702    21052171.459
       244.000         213.000
  23907403.766    -7873559.83649  -6120088.03745  23907402.879    23907417.998
       217.000         156.000
  20967007.131   -17277337.36549 -13451396.84147  20967006.703    20967016.258
       238.000         203.000
 00  3 15  2 23  0.0000000  0  6G17G26G22G23G21G 6
  20779274.589   -26279112.67649 -20255017.79748  20779274.208    20779283.774
       243.000         213.000
  21767951.911   -19508061.59549 -14733752.47347  21767952.500    21767961.658
       231.000         188.000
  23637616.805     -679002.02749   -527067.27746  23637616.978    23637630.494
       220.000         168.000
  21045451.175   -15408250.53749 -11994679.88248  21045450.818    21045460.965
       244.000         213.000
  23892000.497    -7954503.38149  -6183160.54045  23891999.633    23892015.507
       215.000         157.000
  20978722.209   -17215773.71249 -13403425.14947  20978722.293    20978732.131
       239.000         203.000
 00  3 15  2 23 30.0000000  0  6G17G26G22G23G21G 6
  20777195.281   -26290039.40649 -20263532.06048  20777194.937    20777204.722
       243.000         213.000
  21770560.800   -19494351.00949 -14723068.83647  21770561.114    21770570.842
       232.000         188.000
  23640101.107     -665946.91949   -516894.42146  23640099.949    23640115.544
       218.000         168.000
  21038820.696   -15443093.55749 -12021830.19848  21038820.458    21038829.957
       244.000         213.000
  23876638.244    -8035230.76349  -6246064.58445  23876637.728    23876653.495
       217.000         157.000
  20990522.997   -17153760.31749 -13355103.00847  20990522.813    20990532.402
       239.000         203.000
 00  3 15  2 24  0.0000000  0  6G17G26G22G23G21G 6
  20775150.671   -26300783.94449 -20271904.35948  20775149.783    20775159.331
       243.000         213.000
  21773287.435   -19480022.23149 -14711903.47147  21773287.577    21773297.020
       232.000         188.000
  23642681.996     -652384.30249   -506326.08646  23642680.833    23642695.872
       218.000         168.000
  21032269.763   -15477518.37049 -12048654.63348  21032269.393    21032279.131
       244.000         213.000
  23861315.041    -8115753.19649  -6308808.95645  23861313.386    23861329.516
       214.000         158.000
  21002414.311   -17091270.78949 -13306409.85547  21002414.411    21002423.954
       239.000         203.000
 00  3 15  2 24 30.0000000  0  6G17G26G22G23G21G 6
  20773140.362   -26311347.29249 -20280135.46248  20773139.765    20773149.488
       243.000         213.000
  21776134.545   -19465060.16249 -14700244.64747  21776134.196    21776144.759
       229.000         188.000
  23645357.653     -638323.12549   -495369.27846  23645356.960    23645372.418
       218.000         168.000
  21025795.163   -15511542.18649 -12075166.60048  21025795.075    21025804.758
       245.000         213.000
  23846026.846    -8196091.35449  -6371409.72545  23846025.200    23846040.991
       216.000         158.000
  21014398.461   -17028293.71849 -13257336.80047  21014398.435    21014408.196
       239.000         203.000
 00  3 15  2 25  0.0000000  0  6G17G26G22G23G21G 6
  20771164.680   -26321729.11349 -20288225.12448  20771163.922    20771173.641
       243.000         213.000
  21779102.892   -19449460.65749 -14688089.14047  21779103.221    21779112.546
       232.000         188.000
  23648127.153     -623769.51849   -484028.74946  23648126.083    23648141.631
       218.000         168.000
  21019395.117   -15545174.43249 -12101373.45848  21019394.566    21019404.360
       244.000         213.000
  23830771.730    -8276256.17649  -6433875.45245  23830770.681    23830785.944
       216.000         158.000
  21026475.365   -16964829.16349 -13207883.88847  21026475.544    21026485.068
       239.000         203.000
 00  3 15  2 25 30.0000000  0  6G17G26G22G23G21G 6
  20769221.903   -26331938.46849 -20296180.39548  20769221.507    20769230.769
       243.000         214.000
  21782191.798   -19433228.12849 -14675440.35847  21782192.282    21782201.673
       232.000         188.000
  23650991.205     -608717.99949   -472300.25046  23650990.900    23651005.245
       218.000         168.000
  21013062.933   -15578450.12849 -12127302.48548  21013062.649    21013072.516
       244.000         213.000
  23815548.279    -8356254.38049  -6496211.35445  23815546.410    23815562.459
       217.000         157.000
  21038642.451   -16900890.64149 -13158061.64747  21038642.501    21038651.641
       239.000         202.000
 00  3 15  2 26  0.0000000  0  6G17G26G22G23G21G 6
  20767308.233   -26341994.27949 -20304016.01748  20767307.452    20767317.913
       243.000         214.000
  21785398.511   -19416376.38149 -14662309.06247  21785398.862    21785408.501
       233.000         188.000
  23653944.723     -593197.04549   -460205.95446  23653943.945    23653958.993
       217.000         167.000
  21006792.740   -15611400.15549 -12152977.74048  21006792.310    21006802.187
       244.000         214.000
  23800356.128    -8436088.09049  -6558419.06745  23800355.387    23800370.090
       215.000         156.000
  21050893.370   -16836511.66349 -13107896.19847  21050893.310    21050903.325
       238.000         202.000
 00  3 15  2 26 30.0000000  0  6G17G26G22G23G21G 6
  20765420.882   -26351911.95849 -20311744.00748  20765420.499    20765429.660
       244.000         213.000
  21788718.836   -19398927.85949 -14648712.76447  21788719.184    21788728.892
       233.000         189.000
  23656982.053     -577236.26249   -447768.93346  23656981.293    23656996.371
       217.000         167.000
  21000584.176   -15644025.87549 -12178400.29348  21000583.429    21000593.492
       244.000         213.000
  23785194.820    -8515758.97849  -6620499.88945  23785193.533    23785209.763
       214.000         154.000
  21063224.374   -16771711.44749 -13057402.51447  21063224.103    21063233.843
       238.000         202.000
 00  3 15  2 27  0.0000000  0  6G17G26G22G23G21G 6
  20763562.899   -26361675.83749 -20319352.14248  20763562.055    20763571.898
       243.000         214.000
  21792149.684   -19380898.90549 -14634664.18247  21792150.188    21792159.023
       233.000         189.000
  23660102.988     -560835.41549   -434989.00746  23660103.271    23660116.533
       218.000         166.000
  20994442.644   -15676299.20449 -12203548.24548  20994441.910    20994452.098
       244.000         213.000
  23770067.782    -8595250.42749  -6682440.91345  23770067.535    23770081.343
       216.000         156.000
  21075633.629   -16706499.90449 -13006588.31147  21075633.682    21075643.391
       237.000         202.000
 00  3 15  2 27 30.0000000  0  6G17G26G22G23G21G 6
  20761739.628   -26371256.76149 -20326817.73348  20761739.407    20761748.870
       244.000         214.000
  21795692.015   -19362284.07349 -14620159.06947  21795692.086    21795701.656
       233.000         188.000
  23663309.753     -543983.90349   -421857.92546  23663308.442    23663323.903
       214.000         164.000
  20988373.798   -15708190.74649 -12228398.70848  20988373.331    20988383.183
       244.000         213.000
  23754978.693    -8674543.17449  -6744227.13245  23754977.661    23754992.448
       218.000         157.000
  21088122.246   -16640871.65749 -12955449.40847  21088121.957    21088131.794
       238.000         201.000
 00  3 15  2 28  0.0000000  0  6G17G26G22G23G21G 6
  20759958.519   -26380616.73849 -20334111.14648  20759958.250    20759968.036
       243.000         214.000
  21799349.617   -19343062.82649 -14605181.42447  21799350.154    21799359.595
       232.000         189.000
  23666604.013     -526672.61249   -408368.55746  23666603.042    23666617.156
       214.000         163.000
  20982385.751   -15739657.77349 -12252918.37448  20982385.427    20982395.020
       244.000         213.000
  23739931.230    -8753616.38749  -6805842.23945  23739929.669    23739945.872
       218.000         158.000
  21100693.531   -16574808.94749 -12903971.97047  21100693.424    21100703.205
       238.000         201.000
 00  3 15  2 28 30.0000000  0  6G17G26G22G23G21G 6
  20758225.159   -26389724.95549 -20341208.38148  20758224.700    20758234.139
       245.000         214.000
  21803128.217   -19323206.66649 -14589709.05047  21803127.989    21803137.886
       231.000         189.000
  23669989.834     -508879.65049   -394503.89345  23669988.598    23670003.997
       212.000         162.000
  20976483.301   -15770674.78449 -12277087.37548  20976482.573    20976492.516
       244.000         213.000
  23724929.453    -8832450.22749  -6867270.83145  23724928.204    23724942.556
       216.000         159.000
  21113350.572   -16508295.72349 -12852143.47147  21113350.721    21113360.126
       237.000         201.000
 00  3 15  2 29  0.0000000  0  6G17G26G22G23G21G 6
  20756543.415   -26398562.31449 -20348094.56448  20756542.505    20756552.345
       242.000         214.000
  21807031.681   -19302693.01949 -14573724.34947  21807031.586    21807040.712
       232.000         188.000
  23673471.419     -490584.13749   -380247.60045  23673469.728    23673485.060
       209.000         161.000
  20970667.524   -15801236.69049 -12300901.76048  20970667.199    20970676.537
       244.000         214.000
  23709974.331    -8911038.36149  -6928507.98345  23709973.177    23709987.501
       218.000         158.000
  21126092.168   -16441338.37449 -12799968.90147  21126092.321    21126102.037
       238.000         201.000
 00  3 15  2 29 30.0000000  0  6G17G26G22G23G21G 6
  20754909.529   -26407147.86549 -20354784.53648  20754909.445    20754918.677
       245.000         214.000
  21811061.595   -19281515.47849 -14557222.31347  21811061.786    21811071.149
       232.000         188.000
  23677049.724     -471779.14849   -365594.32245  23677048.440    23677063.963
       211.000         160.000
  20964935.822   -15831356.60549 -12324371.73048  20964935.497    20964945.090
       245.000         213.000
  23695064.825    -8989387.32949  -6989558.76645  23695064.048    23695077.648
       218.000         160.000
  21138919.041   -16373932.57549 -12747444.90147  21138918.941    21138928.828
       238.000         201.000
 00  3 15  2 30  0.0000000  0  6G17G26G22G23G21G 6
  20753318.424   -26415509.47249 -20361300.00748  20753317.397    20753327.020
       243.000         214.000
  21815217.136   -19259678.05249 -14540206.08147  21815217.059    21815226.599
       232.000         188.000
  23680723.748     -452471.42749   -350549.35245  23680722.877    23680737.519
       211.000         160.000
  20959285.306   -15861049.99049 -12347509.33348  20959284.859    20959294.317
       245.000         214.000
  23680198.910    -9067506.39049  -7050430.39545  23680197.760    23680212.546
       218.000         161.000
  21151829.172   -16306089.65949 -12694580.28547  21151829.113    21151838.884
       237.000         201.000
 00  3 15  2 30 30.0000000  0  6G17G26G22G23G21G 6
  20751765.419   -26423670.01149 -20367658.80648  20751765.072    20751774.110
       243.000         214.000
  21819493.555   -19237204.97749 -14522694.54847  21819493.629    21819503.241
       232.000         188.000
  23684492.001     -432668.87649   -335118.78445  23684490.848    23684506.295
       213.000         160.000
  20953713.794   -15890327.92549 -12370323.21448  20953713.246    20953723.043
       244.000         214.000
  23665374.492    -9145408.30249  -7111132.83345  23665373.473    23665387.786
       219.000         161.000
  21164820.157   -16237821.14549 -12641384.03847  21164820.440    21164829.805
       239.000         201.000
 00  3 15  2 31  0.0000000  0  6G17G26G22G23G21G 6
  20750250.232   -26431631.85349 -20373862.76648  20750249.651    20750259.421
       243.000         214.000
  21823888.227   -19214110.57549 -14504698.85546  21823888.107    21823897.512
       232.000         187.000
  23688353.726     -412375.01949   -319305.38745  23688354.184    23688367.791
       213.000         160.000
  20948222.522   -15919184.44849 -12392808.71448  20948222.038    20948231.811
       244.000         214.000
  23650589.228    -9223103.63749  -7171674.32145  23650587.919    23650602.543
       219.000         160.000
  21177895.744   -16169108.57549 -12587841.76947  21177895.858    21177905.633
       237.000         201.000
 00  3 15  2 31 30.0000000  0  6G17G26G22G23G21G 6
  20748772.949   -26439394.32749 -20379911.37948  20748772.634    20748782.145
       243.000         214.000
  21828402.406   -19190388.19049 -14486213.84146  21828402.981    21828412.126
       233.000         187.000
  23692306.134     -391604.61349   -303120.65345  23692305.059    23692320.856
       213.000         159.000
  20942812.304   -15947614.85649 -12414962.18048  20942811.773    20942821.545
       244.000         214.000
  23635846.358    -9300576.81949  -7232042.67246  23635845.205    23635859.526
       218.000         163.000
  21191059.191   -16099934.33949 -12533939.76747  21191059.265    21191069.101
       238.000         201.000
 00  3 15  2 32  0.0000000  0  6G17G26G22G23G21G 6
  20747334.936   -26446950.74249 -20385799.42248  20747334.139    20747343.731
       243.000         213.000
  21833037.626   -19166029.78249 -14467233.20946  21833037.623    21833047.108
       232.000         187.000
  23696345.683     -370376.44449   -286579.21845  23696345.391    23696359.675
       212.000         159.000
  20937480.363   -15975633.89449 -12436795.10148  20937479.874    20937489.725
       244.000         214.000
  23621147.625    -9377817.72449  -7292230.05246  23621146.800    23621160.958
       218.000         163.000
  21204312.329   -16030288.70749 -12479670.45047  21204312.610    21204321.966
       238.000         200.000
 00  3 15  2 32 30.0000000  0  6G17G26G22G23G21G 6
  20745935.089   -26454306.60749 -20391531.20648  20745935.038    20745943.875
       244.000         214.000
  21837792.802   -19141041.08249 -14447761.44146  21837792.811    21837802.415
       233.000         187.000
  23700470.852     -348698.22749   -269687.10845  23700470.176    23700486.095
       212.000         158.000
  20932223.926   -16003256.03549 -12458318.75248  20932223.643    20932233.041
       244.000         214.000
  23606491.981    -9454832.75549  -7352241.45846  23606491.266    23606505.622
       221.000         164.000
  21217655.609   -15960169.62649 -12425032.20347  21217655.862    21217665.459
       238.000         200.000
 00  3 15  2 33  0.0000000  0  6G17G26G22G23G21G 6
  20744572.263   -26461468.51649 -20397111.84448  20744571.732    20744580.981
       244.000         214.000
  21842667.717   -19115423.34649 -14427799.52246  21842667.976    21842677.691
       231.000         187.000
  23704679.636     -326581.16549   -252453.02245  23704678.602    23704694.298
       212.000         157.000
  20927038.524   -16030505.21349 -12479551.78048  20927038.043    20927047.689
       244.000         214.000
  23591880.197    -9531617.00149  -7412073.01546  23591877.733    23591893.092
       219.000         165.000
  21231087.662   -15889583.97249 -12370030.39847  21231087.554    21231097.360
       237.000         200.000
 00  3 15  2 33 30.0000000  0  6G17G26G22G23G21G 6
  20743243.441   -26468451.66949 -20402553.20348  20743243.052    20743252.183
       244.000         214.000
  21847660.289   -19089186.44949 -14407355.13746  21847660.359    21847670.012
       231.000         187.000
  23708967.353     -304048.92449   -234895.42745  23708966.504    23708981.403
       217.000         158.000
  20921916.381   -16057422.12049 -12500525.90148  20921915.819    20921925.462
       244.000         214.000
  23577310.728    -9608178.56449  -7471731.06246  23577309.438    23577323.448
       221.000         166.000
  21244603.573   -15818557.35749 -12314684.98447  21244603.667    21244613.199
       237.000         200.000
 00  3 15  2 34  0.0000000  0  6G17G26G22G23G21G 6
  20741945.304   -26475273.49349 -20407868.84848  20741944.800    20741954.010
       244.000         215.000
  21852764.085   -19062365.54449 -14386455.67946  21852764.176    21852773.847
       232.000         187.000
  23713335.308     -281094.66749   -217009.00345  23713335.320    23713348.780
       216.000         158.000
  20916855.337   -16084017.54049 -12521249.51748  20916854.813    20916864.294
       244.000         214.000
  23562778.421    -9684544.91449  -7531237.02846  23562777.119    23562791.285
       220.000         165.000
  21258199.705   -15747109.56849 -12259011.38347  21258199.944    21258209.437
       238.000         200.000
 00  3 15  2 34 30.0000000  0  6G17G26G22G23G21G 6
  20740680.424   -26481919.89849 -20413047.80148  20740679.586    20740689.158
       242.000         214.000
  21857975.642   -19034978.77449 -14365115.29046  21857975.828    21857984.833
       231.000         187.000
  23717785.630     -257708.47949   -198786.00845  23717785.169    23717800.258
       218.000         158.000
  20911860.867   -16110263.22249 -12541700.60448  20911860.510    20911869.794
       245.000         214.000
  23548281.906    -9760722.93749  -7590596.24746  23548280.685    23548295.443
       221.000         165.000
  21271873.169   -15675255.11949 -12203020.90247  21271872.879    21271882.673
       237.000         200.000
 00  3 15  2 35  0.0000000  0  6G17G26G22G23G21G 6
  20739454.815   -26488359.72649 -20418065.78448  20739454.454    20739463.601
       244.000         214.000
  21863298.722   -19007005.16949 -14343317.61746  21863298.493    21863308.320
       231.000         187.000
  23722319.912     -233880.79449   -180219.00045  23722319.980    23722334.082
       221.000         159.000
  20906936.799   -16136139.53849 -12561863.87948  20906935.909    20906945.742
       244.000         214.000
  23533823.043    -9836704.08749  -7649802.09246  23533822.384    23533835.815
       219.000         165.000
  21285626.702   -15602979.58749 -12146702.31747  21285626.457    21285636.405
       237.000         199.000
 00  3 15  2 35 30.0000000  0  6G17G26G22G23G21G 6
  20738270.453   -26494583.91749 -20422915.75248  20738269.974    20738279.109
       243.000         214.000
  21868736.499   -18978428.85849 -14321050.32246  21868736.579    21868745.774
       231.000         186.000
  23726943.367     -209584.67349   -161286.96545  23726943.589    23726958.128
       220.000         158.000
  20902087.658   -16161621.28749 -12581719.70248  20902087.306    20902096.755
       245.000         214.000
  23519399.308    -9912499.89649  -7708863.50346  23519398.289    23519412.580
       219.000         165.000
  21299461.397   -15530277.61449 -12090051.44047  21299461.670    21299471.227
       237.000         199.000
 00  3 15  2 36  0.0000000  0  6G17G26G22G23G21G 6
  20737129.798   -26500577.43849 -20427585.96348  20737129.264    20737138.510
       243.000         214.000
  21874292.501   -18949231.82949 -14298299.33746  21874292.542    21874302.586
       231.000         187.000
  23731659.279     -184803.10749   -141976.66745  23731657.675    23731672.790
       218.000         158.000
  20897321.284   -16186668.78849 -12601237.14148  20897320.786    20897329.929
       245.000         214.000
  23505012.955    -9988099.68749  -7767772.20246  23505011.699    23505025.553
       220.000         165.000
  21313376.809   -15457151.94149 -12033070.40147  21313376.956    21313386.072
       237.000         199.000
 00  3 15  2 36 30.0000000  0  6G17G26G22G23G21G 6
  20736036.362   -26506323.31749 -20432063.21648  20736035.801    20736045.245
       243.000         214.000
  21879973.224   -18919378.87949 -14275037.24446  21879973.370    21879982.909
       232.000         186.000
  23736466.615     -159540.45249   -122291.49645  23736466.106    23736481.483
       217.000         158.000
  20892636.986   -16211284.44249 -12620418.07948  20892636.289    20892645.564
       244.000         214.000
  23490666.893   -10063487.74549  -7826515.92946  23490666.000    23490679.461
       221.000         165.000
  21327373.681   -15383597.59449 -11975755.33247  21327373.696    21327383.745
       236.000         199.000
 00  3 15  2 37  0.0000000  0  6G17G26G22G23G21G 6
  20734986.295   -26511841.73049 -20436363.23948  20734985.478    20734994.225
       243.000         213.000
  21885779.632   -18888866.13449 -14251261.05746  21885779.360    21885789.451
       231.000         186.000
  23741364.832     -133800.52449   -102234.41345  23741364.355    23741379.346
       216.000         159.000
  20888029.500   -16235496.78649 -12639284.75948  20888028.898    20888038.562
       244.000         215.000
  23476361.686   -10138660.72849  -7885092.02946  23476360.234    23476374.866
       219.000         166.000
  21341449.127   -15309630.34049 -11918118.53047  21341449.582    21341458.828
       237.000         199.000
 00  3 15  2 37 30.0000000  0  6G17G26G22G23G21G 6
  20733972.977   -26517165.98249 -20440511.95248  20733972.240    20733981.647
       243.000         213.000
  21891706.275   -18857721.29649 -14226992.29946  21891706.977    21891715.838
       233.000         187.000
  23746351.107     -107597.58049    -81816.53545  23746350.444    23746364.976
       217.000         159.000
  20883495.820   -16259320.64849 -12657848.72648  20883495.497    20883504.726
       245.000         215.000
  23462097.841   -10213616.82749  -7943499.18046  23462097.248    23462110.227
       222.000         167.000
  21355598.358   -15235276.37749 -11860180.37947  21355598.557    21355607.771
       237.000         198.000
 00  3 15  2 38  0.0000000  0  6G17G26G22G23G21G 6
  20732995.283   -26522303.36449 -20444515.05048  20732994.646    20733004.421
       243.000         213.000
  21897748.401   -18825969.33949 -14202250.46646  21897748.604    21897758.325
       233.000         187.000
  23751421.187      -80953.77249    -61055.13845  23751421.463    23751435.740
       218.000         159.000
  20879032.067   -16282777.57349 -12676126.77648  20879032.097    20879040.931
       245.000         215.000
  23447878.368   -10288339.98449  -8001724.83046  23447877.072    23447891.018
       218.000         165.000
  21369819.299   -15160544.48449 -11801947.73947  21369819.092    21369828.669
       235.000         197.000
 00  3 15  2 38 30.0000000  0  6G17G26G22G23G21G 6
  20732049.463   -26527273.49049 -20448387.82848  20732048.801    20732058.431
       243.000         214.000
  21903901.324   -18793635.57049 -14177055.28046  21903901.724    21903911.012
       232.000         186.000
  23756573.642      -53877.49249    -39956.74145  23756573.157    23756587.890
       217.000         159.000
  20874631.318   -16305903.50949 -12694146.90548  20874630.754    20874640.477
       244.000         215.000
  23433702.481   -10362832.69549  -8059770.89246  23433701.866    23433715.917
       221.000         167.000
  21384113.498   -15085427.66649 -11743415.16647  21384113.586    21384123.638
       236.000         196.000
 00  3 15  2 39  0.0000000  0  6G17G26G22G23G21G 6
  20731132.447   -26532092.57849 -20452142.91848  20731131.976    20731140.832
       243.000         214.000
  21910157.978   -18760756.63449 -14151435.29746  21910158.483    21910167.618
       232.000         186.000
  23761806.845      -26377.05549    -18527.81545  23761806.454    23761819.382
       218.000         158.000
  20870292.544   -16328703.38649 -12711912.97148  20870292.577    20870301.406
       245.000         215.000
  23419568.745   -10437104.95449  -8117645.16746  23419568.120    23419581.315
       222.000         168.000
  21398479.735   -15009932.66949 -11684587.89447  21398479.671    21398489.468
       235.000         196.000
 00  3 15  2 39 30.0000000  0  6G17G26G22G23G21G 6
  20730245.903   -26536751.31049 -20455773.04648  20730245.010    20730254.801
       243.000         214.000
  21916517.286   -18727338.16849 -14125394.88946  21916516.991    21916526.572
       231.000         186.000
  23767119.116        1539.16149      3225.09745  23767117.697    23767133.845
       217.000         158.000
  20866017.133   -16351170.54049 -12729419.76548  20866016.367    20866025.758
       243.000         214.000
  23405476.144   -10511161.46749  -8175351.35846  23405475.417    23405488.875
       222.000         169.000
  21412921.249   -14934041.77449 -11625452.14347  21412921.663    21412930.948
       235.000         196.000
 00  3 15  2 40  0.0000000  0  6G17G26G22G23G21G 6
  20729394.573   -26541224.68349 -20459258.74548  20729393.959    20729403.148
       243.000         214.000
  21922980.825   -18693372.17749 -14098927.83346  21922980.996    21922990.254
       232.000         186.000
  23772510.830       29872.89749     25303.34645  23772510.603    23772524.077
       218.000         158.000
  20861805.716   -16373301.08849 -12746664.27448  20861805.363    20861814.460
       245.000         214.000
  23391423.667   -10585006.95949  -8232893.07846  23391423.065    23391436.256
       224.000         170.000
  21427440.429   -14857743.04949 -11565998.59347  21427440.761    21427449.859
       235.000         196.000
 00  3 15  2 40 30.0000000  0  6G17G26G22G23G21G 6
  20728582.369   -26545492.88049 -20462584.56648  20728581.761    20728590.671
       244.000         214.000
  21929550.567   -18658847.91349 -14072025.78646  21929550.828    21929559.554
       231.000         186.000
  23777981.696       58622.52349     47705.65345  23777981.066    23777995.502
       219.000         158.000
  20857661.651   -16395078.43149 -12763633.55848  20857661.122    20857670.362
       244.000         214.000
  23377409.739   -10658649.97949  -8290277.03146  23377407.917    23377421.965
       219.000         170.000
  21442039.725   -14781023.54549 -11506217.17247  21442039.815    21442049.334
       235.000         196.000
 00  3 15  2 41  0.0000000  0  6G17G26G22G23G21G 6
  20727816.216   -26549518.70649 -20465721.53348  20727815.792    20727825.024
       244.000         214.000
  21936230.998   -18623741.70249 -14044670.27546  21936231.613    21936240.645
       232.000         186.000
  23783532.140       87790.40849     70433.87445  23783531.604    23783546.345
       217.000         156.000
  20853591.334   -16416467.62849 -12780300.38948  20853590.780    20853600.116
       244.000         214.000
  23363436.875   -10732076.80049  -8347492.53346  23363436.629    23363449.634
       224.000         171.000
  21456718.429   -14703886.25849 -11446110.19747  21456718.553    21456728.333
       236.000         196.000
 00  3 15  2 41 30.0000000  0  6G17G26G22G23G21G 6
  20727100.374   -26553280.30449 -20468652.60048  20727100.037    20727109.347
       244.000         214.000
  21943028.451   -18588020.67849 -14016835.67446  21943028.418    21943038.088
       232.000         186.000
  23789162.895      117380.11549     93490.81745  23789161.286    23789176.305
       213.000         154.000
  20849599.598   -16437444.08149 -12796645.61348  20849599.073    20849608.603
       244.000         215.000
  23349508.836   -10805269.25149  -8404525.42046  23349507.792    23349522.345
       222.000         172.000
  21471478.031   -14626324.25749 -11385672.27547  21471478.205    21471487.673
       236.000         195.000
 00  3 15  2 42  0.0000000  0  6G17G26G22G23G21G 6
  20726437.080   -26556766.01749 -20471368.69748  20726435.997    20726445.734
       243.000         214.000
  21949946.688   -18551665.51249 -13988506.95246  21949946.578    21949955.792
       232.000         186.000
  23794875.712      147401.02249    116883.76345  23794874.521    23794888.485
       214.000         151.000
  20845689.749   -16457990.10849 -12812655.43248  20845689.300    20845698.525
       244.000         214.000
  23335627.860   -10878212.87549  -8461364.37646  23335627.611    23335639.933
       224.000         172.000
  21486319.035   -14548333.66549 -11324900.39447  21486318.711    21486328.709
       234.000         194.000
 00  3 15  2 42 30.0000000  0  6G17G26G22G23G21G 6
  20725823.435   -26559989.83649 -20473880.72748  20725823.251    20725831.995
       244.000         214.000
  21956988.012   -18514662.20649 -13959673.17546  21956988.283    21956997.466
       232.000         185.000
  23800671.346      177857.71749    140616.25345  23800671.128    23800686.372
       213.000         150.000
  20841863.671   -16478095.83149 -12828322.16248  20841863.108    20841872.470
       244.000         215.000
  23321796.748   -10950895.05949  -8517999.62546  23321796.206    23321809.703
       224.000         174.000
  21501241.432   -14469916.16049 -11263795.86147  21501241.510    21501250.973
       235.000         194.000
 00  3 15  2 43  0.0000000  0  6G17G26G22G23G21G 6
  20725254.057   -26562982.12149 -20476212.32448  20725253.825    20725262.837
       244.000         214.000
  21964154.034   -18477004.80749 -13930329.72546  21964154.732    21964163.454
       231.000         185.000
  23806551.583      208758.85049    164695.06945  23806550.928    23806563.846
       215.000         150.000
  20838120.891   -16497763.85349 -12843647.82148  20838120.319    20838129.697
       244.000         214.000
  23308016.411   -11023310.18949  -8574426.75546  23308015.467    23308028.897
       223.000         174.000
  21516242.380   -14391085.56949 -11202369.42047  21516242.765    21516252.050
       235.000         194.000
 00  3 15  2 43 30.0000000  0  6G17G26G22G23G21G 6
  20724722.531   -26565775.00549 -20478388.55148  20724721.844    20724730.960
       242.000         213.000
  21971442.681   -18438702.55349 -13900483.78846  21971442.567    21971451.733
       230.000         185.000
  23812515.224      240098.10949    189115.29145  23812514.969    23812529.028
       213.000         151.000
  20834456.902   -16517018.07749 -12858651.05348  20834456.796    20834465.579
       245.000         215.000
  23294281.303   -11095487.90449  -8630668.92546  23294280.175    23294293.727
       223.000         173.000
  21531323.129   -14311835.86249 -11140616.41347  21531323.465    21531332.882
       234.000         194.000
 00  3 15  2 44  0.0000000  0  6G17G26G22G23G21G 6
  20724226.177   -26568382.71149 -20480420.47548  20724226.017    20724235.060
       244.000         213.000
  21978850.674   -18399773.32849 -13870149.30546  21978850.948    21978860.571
       230.000         184.000
  23818560.239      271864.65749    213868.47145  23818558.905    23818574.406
       211.000         149.000
  20830866.682   -16535884.42949 -12873352.03848  20830866.421    20830875.336
       244.000         215.000
  23280587.339   -11167448.78149  -8686742.09446  23280586.016    23280600.178
       223.000         174.000
  21546483.549   -14232167.39049 -11078537.08047  21546484.059    21546493.146
       236.000         194.000
 00  3 15  2 44 30.0000000  0  6G17G26G22G23G21G 6
  20723763.365   -26570814.87249 -20482315.62148  20723762.838    20723772.082
       243.000         213.000
  21986373.963   -18360237.91649 -13839342.45946  21986374.210    21986383.034
       231.000         184.000
  23824684.324      304047.06749    238945.70645  23824683.395    23824698.075
       212.000         148.000
  20827345.879   -16554386.14949 -12887768.89548  20827345.689    20827354.731
       245.000         215.000
  23266931.921   -11239207.88149  -8742658.04746  23266930.529    23266944.473
       221.000         175.000
  21561721.830   -14152090.17949 -11016139.26347  21561721.911    21561731.954
       234.000         194.000
 00  3 15  2 45  0.0000000  0  6G17G26G22G23G21G 6
  20723337.064   -26573055.07349 -20484061.19348  20723336.802    20723345.630
       244.000         213.000
  21994009.684   -18320111.42449 -13808075.04746  21994010.104    21994019.296
       231.000         184.000
  23830885.338      336634.14949    264338.23445  23830885.861    23830899.511
       212.000         147.000
  20823891.719   -16572538.01549 -12901913.14748  20823891.540    20823900.693
       245.000         215.000
  23253311.259   -11310783.83649  -8798431.29246  23253310.418    23253323.053
       222.000         174.000
  21577036.625   -14071610.47049 -10953427.81847  21577036.598    21577046.639
       233.000         194.000
 00  3 15  2 45 30.0000000  0  6G17G26G22G23G21G 6
  20722951.944   -26575079.17049 -20485638.35848  20722951.329    20722960.596
       243.000         214.000
  22001755.400   -18279407.17349 -13776357.41346  22001755.632    22001765.453
       229.000         184.000
  23837162.239      369619.39949    290041.02245  23837162.346    23837176.543
       212.000         147.000
  20820503.991   -16590340.44349 -12915785.10148  20820503.465    20820512.696
       244.000         215.000
  23239725.937   -11382174.28249  -8854059.98146  23239725.113    23239738.668
       224.000         176.000
  21592428.610   -13990724.96649 -10890400.17247  21592428.873    21592438.023
       234.000         193.000
 00  3 15  2 46  0.0000000  0  6G17G26G22G23G21G 6
  20722610.358   -26576873.78649 -20487036.71048  20722609.926    20722618.918
       244.000         214.000
  22009609.882   -18238131.43849 -13744194.47946  22009610.014    22009619.010
       230.000         183.000
  23843516.587      403011.61949    316060.96145  23843515.578    23843528.673
       211.000         146.000
  20817184.233   -16607785.37349 -12929378.49348  20817183.684    20817192.897
       244.000         215.000
  23226182.816   -11453343.44049  -8909516.24046  23226181.749    23226195.104
       222.000         176.000
  21607895.183   -13909447.86649 -10827067.37947  21607894.896    21607904.349
       233.000         192.000
 00  3 15  2 46 30.0000000  0  6G17G26G22G23G21G 6
  20722312.150   -26578441.07849 -20488257.93148  20722311.392    20722320.596
       244.000         214.000
  22017573.731   -18196281.05449 -13711583.74046  22017573.311    22017583.292
       229.000         183.000
  23849949.636      436817.22549    342403.00245  23849948.314    23849964.025
       212.000         146.000
  20813933.324   -16624868.62949 -12942690.05148  20813933.184    20813941.747
       245.000         215.000
  23212685.039   -11524273.23249  -8964785.95146  23212684.913    23212697.293
       224.000         176.000
  21623431.505   -13827803.86949 -10763448.69547  21623432.030    21623440.904
       233.000         192.000
 00  3 15  2 47  0.0000000  0  6G17G26G22G23G21G 6
  20722055.829   -26579787.63949 -20489307.15448  20722055.729    20722064.407
       245.000         214.000
  22025647.958   -18153850.03649 -13678520.58046  22025648.641    22025656.971
       231.000         183.000
  23856460.992      471034.56449    369065.88145  23856460.226    23856475.139
       213.000         146.000
  20810753.210   -16641580.56449 -12955712.27548  20810752.716    20810761.587
       245.000         215.000
  23199233.624   -11594960.03049  -9019866.32946  23199232.745    23199245.631
       223.000         177.000
  21639035.290   -13745806.29749 -10699554.49347  21639035.328    21639044.920
       233.000         192.000
 00  3 15  2 47 30.0000000  0  6G17G26G22G23G21G 6
  20721840.762   -26580917.98449 -20490187.89648  20721840.209    20721849.380
       244.000         214.000
  22033831.367   -18110846.15949 -13645011.03746  22033831.326    22033840.653
       229.000         183.000
  23863050.930      505665.38249    396050.93045  23863051.433    23863063.602
       215.000         147.000
  20807643.599   -16657921.64049 -12968445.52148  20807643.208    20807651.905
       244.000         215.000
  23185830.712   -11665391.72349  -9074747.93746  23185830.134    23185842.538
       223.000         176.000
  21654706.931   -13663451.12849 -10635381.65647  21654707.038    21654716.412
       234.000         191.000
 00  3 15  2 48  0.0000000  0  6G17G26G22G23G21G 6
  20721666.228   -26581834.75749 -20490902.22048  20721665.759    20721674.295
       243.000         213.000
  22042124.911   -18067262.96949 -13611050.08246  22042125.654    22042134.004
       231.000         183.000
  23869717.996      540700.89849    423351.33045  23869717.678    23869732.219
       213.000         146.000
  20804601.627   -16673906.96149 -12980901.55148  20804601.274    20804609.848
       245.000         215.000
  23172474.311   -11735579.24249  -9129439.25346  23172473.091    23172486.395
       222.000         176.000
  21670444.962   -13580747.42649 -10570937.23047  21670445.063    21670454.958
       233.000         191.000
 00  3 15  2 48 30.0000000  0  6G17G26G22G23G21G 6
  20721530.923   -26582545.21249 -20491455.76648  20721530.373    20721539.891
       243.000         213.000
  22050528.612   -18023101.50849 -13576638.52246  22050528.267    22050538.189
       230.000         183.000
  23876459.669      576128.40649    450957.20645  23876457.942    23876472.951
       213.000         146.000
  20801625.860   -16689544.28149 -12993086.40948  20801625.115    20801634.086
       244.000         215.000
  23159160.338   -11805543.44149  -9183956.57346  23159159.787    23159172.991
       222.000         176.000
  21686249.838   -13497692.05949 -10506218.78247  21686249.882    21686259.649
       233.000         191.000
 00  3 15  2 49  0.0000000  0  6G17G26G22G23G21G 6
  20721436.356   -26583042.07849 -20491842.88648  20721435.818    20721444.952
       243.000         213.000
  22059039.936   -17978373.75449 -13541785.69246  22059040.514    22059049.147
       230.000         183.000
  23883274.567      611940.95349    478863.09745  23883273.484    23883288.921
       212.000         145.000
  20798717.542   -16704827.25149 -13004995.15248  20798717.338    20798726.142
       246.000         216.000
  23145886.954   -11875294.46849  -9238307.74446  23145885.697    23145898.745
       224.000         175.000
  21702125.634   -13414264.27449 -10441210.12747  21702125.661    21702134.940
       233.000         190.000
 00  3 15  2 49 30.0000000  0  6G17G26G22G23G21G 6
  20721383.986   -26583317.02049 -20492057.07748  20721383.415    20721392.235
       243.000         213.000
  22067658.203   -17933084.31749 -13506495.19446  22067657.928    22067667.084
       230.000         182.000
  23890164.824      648149.71149    507077.72745  23890164.393    23890179.624
       210.000         145.000
  20795876.999   -16719754.59149 -13016626.77548  20795876.534    20795885.878
       245.000         216.000
  23132656.611   -11944820.08149  -9292483.34446  23132655.946    23132667.898
       221.000         175.000
  21718074.798   -13330450.33149 -10375900.59247  21718074.440    21718084.954
       231.000         189.000
 00  3 15  2 50  0.0000000  0  6G17G26G22G23G21G 6
  20721371.573   -26583382.49249 -20492108.04948  20721371.213    20721380.029
       243.000         213.000
  22076384.430   -17887227.36749 -13470762.48346  22076385.306    22076393.305
       230.000         182.000
  23897131.295      684758.53449    535604.11345  23897130.341    23897144.573
       209.000         144.000
  20793104.171   -16734325.36749 -13027980.56448  20793103.664    20793112.889
       244.000         216.000
  23119468.387   -12014122.91649  -9346485.27946  23119468.375    23119480.198
       223.000         174.000
  21734096.331   -13246256.94349 -10310295.37447  21734096.728    21734106.193
       232.000         190.000
 00  3 15  2 50 30.0000000  0  6G17G26G22G23G21G 6
  20721396.447   -26583251.52849 -20492005.95148  20721395.586    20721405.256
       242.000         214.000
  22085216.735   -17840813.44949 -13434595.76146  22085216.683    22085226.280
       229.000         182.000
  23904174.598      721771.39149    564445.31645  23904174.235    23904187.347
       207.000         144.000
  20790400.308   -16748534.18349 -13039052.30948  20790400.255    20790408.909
       245.000         216.000
  23106322.935   -12083202.09049  -9400312.96346  23106321.277    23106334.561
       222.000         173.000
  21750191.873   -13161674.51349 -10244387.00647  21750191.955    21750201.371
       232.000         190.000
 00  3 15  2 51  0.0000000  0  6G17G26G22G23G21G 6
  20721458.604   -26582924.40049 -20491750.99048  20721457.973    20721466.908
       243.000         213.000
  22094154.359   -17793845.51849 -13397997.34246  22094154.785    22094163.444
       228.000         182.000
  23911295.405      759192.05449    593604.29545  23911296.554    23911309.657
       209.000         143.000
  20787766.326   -16762375.68349 -13049837.82648  20787765.799    20787774.568
       245.000         216.000
  23093219.491   -12152060.39849  -9453968.56446  23093218.757    23093230.629
       222.000         174.000
  21766362.119   -13076699.24449 -10178172.53047  21766362.311    21766371.719
       231.000         189.000
 00  3 15  2 51 30.0000000  0  6G17G26G22G23G21G 6
  20721558.327   -26582399.76449 -20491342.13448  20721558.014    20721567.010
       244.000         214.000
  22103199.750   -17746311.40849 -13360957.74546  22103200.693    22103208.835
       229.000         181.000
  23918493.043      797015.86349    623077.40245  23918491.963    23918507.146
       207.000         142.000
  20785199.953   -16775861.68349 -13060346.34048  20785199.516    20785208.075
       245.000         215.000
  23080156.910   -12220703.04349  -9507456.09346  23080156.920    23080169.176
       223.000         172.000
  21782605.359   -12991340.43049 -10111659.18647  21782605.096    21782615.043
       232.000         189.000
 00  3 15  2 52  0.0000000  0  6G17G26G22G23G21G 6
  20721695.632   -26581678.47849 -20490780.04648  20721694.929    20721703.798
       243.000         214.000
  22112354.085   -17698205.02349 -13323472.22246  22112354.526    22112363.439
       228.000         182.000
  23925762.523      835217.72649    652845.09445  23925762.829    23925775.102
       208.000         141.000
  20782699.672   -16789000.57149 -13070584.37448  20782699.217    20782708.035
       245.000         215.000
  23067133.280   -12289142.60949  -9560785.39346  23067132.107    23067143.819
       222.000         172.000
  21798917.424   -12905619.57749 -10044863.74747  21798917.074    21798927.424
       232.000         189.000
 00  3 15  2 52 30.0000000  0  6G17G26G22G23G21G 6
  20721872.534   -26580748.55749 -20490055.38848  20721872.017    20721880.619
       243.000         213.000
  22121617.680   -17649524.40949 -13285539.24846  22121618.772    22121627.364
       227.000         182.000
  23933102.703      873790.82849    682902.07645  23933102.228    23933116.669
       207.000         142.000
  20780268.649   -16801775.26149 -13080538.61348  20780268.170    20780277.166
       245.000         215.000
  23054149.010   -12357373.78649  -9613952.34046  23054148.965    23054161.327
       223.000         172.000
  21815297.012   -12819544.17349  -9977792.03147  21815296.954    21815306.819
       232.000         189.000
 00  3 15  2 53  0.0000000  0  6G17G26G22G23G21G 6
  20722094.530   -26579581.70249 -20489146.10048  20722094.043    20722102.738
       243.000         213.000
  22130991.723   -17600263.36749 -13247153.99946  22130992.263    22131001.361
       228.000         181.000
  23940513.360      912734.23049    713247.62045  23940513.787    23940527.528
       208.000         142.000
  20777910.575   -16814166.67949 -13090194.20348  20777909.912    20777918.763
       245.000         216.000
  23041207.881   -12425379.29849  -9666943.41346  23041206.834    23041219.550
       223.000         173.000
  21831742.278   -12733123.65349  -9910451.38247  21831742.369    21831752.130
       233.000         189.000
 00  3 15  2 53 30.0000000  0  6G17G26G22G23G21G 6
  20722365.931   -26578155.31249 -20488034.57448  20722365.025    20722374.261
       243.000         213.000
  22140477.220   -17550417.04049 -13208312.68346  22140477.187    22140486.996
       227.000         181.000
  23947995.645      952054.25249    743886.58345  23947995.318    23948009.505
       208.000         142.000
  20775626.577   -16826168.42049 -13099546.13848  20775626.093    20775635.066
       245.000         215.000
  23028315.389   -12493129.21849  -9719735.36346  23028314.470    23028326.005
       223.000         172.000
  21848251.830   -12646365.32249  -9842847.50147  21848252.300    21848261.802
       233.000         188.000
 00  3 15  2 54  0.0000000  0  6G17G26G22G23G21G 6
  20722688.285   -26576461.05049 -20486714.31348  20722687.752    20722696.470
       243.000         213.000
  22150071.357   -17499998.80049 -13169025.72546  22150071.535    22150080.750
       228.000         180.000
  23955551.366      991759.81349    774826.01245  23955550.418    23955565.603
       207.000         141.000
  20773420.756   -16837760.46349 -13108578.83348  20773420.550    20773429.075
       245.000         216.000
  23015475.281   -12560603.54649  -9772312.55146  23015474.838    23015486.435
       224.000         172.000
  21864828.071   -12559257.00749  -9774970.90847  21864827.945    21864838.111
       232.000         188.000
 00  3 15  2 54 30.0000000  0  6G17G26G22G23G21G 6
  20723064.138   -26574485.81749 -20485175.12048  20723063.512    20723072.634
       243.000         213.000
  22159773.781   -17449012.29749 -13129295.96446  22159774.168    22159783.244
       227.000         181.000
  23963184.522     1031872.31649    806082.50445  23963183.373    23963198.736
       209.000         142.000
  20771294.311   -16848934.47849 -13117285.79048  20771293.553    20771302.439
       244.000         215.000
  23002688.962   -12627794.68149  -9824669.07846  23002688.780    23002700.303
       225.000         173.000
  21881477.326   -12471764.66449  -9706795.06847  21881477.278    21881487.337
       233.000         188.000
 00  3 15  2 55  0.0000000  0  6G17G26G22G23G21G 6
  20723494.071   -26572226.18249 -20483414.31248  20723493.294    20723502.361
       243.000         213.000
  22169584.524   -17397456.36749 -13089122.48346  22169584.576    22169593.948
       226.000         180.000
  23970896.016     1072396.90649    837660.10945  23970895.684    23970910.101
       208.000         142.000
  20769242.893   -16859714.24649 -13125685.54348  20769242.343    20769251.174
       244.000         215.000
  22989956.777   -12694701.95149  -9876804.39846  22989956.324    22989967.623
       225.000         172.000
  21898201.217   -12383879.76749  -9638313.34846  21898200.871    21898210.805
       232.000         187.000
 00  3 15  2 55 30.0000000  0  6G17G26G22G23G21G 6
  20723973.441   -26569707.10349 -20481451.34248  20723972.872    20723981.773
       243.000         213.000
  22179502.718   -17345335.89249 -13048509.11746  22179502.790    22179511.924
       227.000         180.000
  23978684.551     1113325.99949    869552.90945  23978682.943    23978698.972
       207.000         143.000
  20767260.931   -16870129.09549 -13133800.94548  20767260.055    20767269.193
       244.000         215.000
  22977274.639   -12761346.49449  -9928735.04446  22977273.125    22977286.882
       223.000         173.000
  21914998.718   -12295608.24649  -9569530.36746  21914999.142    21915008.839
       229.000         186.000
 00  3 15  2 56  0.0000000  0  7G17G26G22G23G29G21G 6
  20724498.765   -26566946.12349 -20479299.87548  20724498.109    20724507.314
       243.000         213.000
  22189527.124   -17292657.10149 -13007460.70646  22189527.040    22189537.594
       226.000         180.000
  23986545.768     1154635.87149    901742.43145  23986543.412    23986560.549
       207.000         144.000
  20765343.235   -16880206.32449 -13141653.26148  20765342.912    20765351.466
       245.000         215.000
                   -775459.22549   -588778.56243
       207.000          74.000
  22964635.558   -12827764.31049  -9980488.98146  22964634.804    22964646.928
       227.000         174.000
  21931869.157   -12206952.88349  -9500448.29746  21931869.183    21931879.095
       230.000         185.000
 00  3 15  2 56 30.0000000  0  7G17G26G22G23G29G21G 6
  20725066.689   -26563961.31949 -20476974.00048  20725066.185    20725074.945
       243.000         213.000
  22199657.331   -17239422.60649 -12965979.24346  22199656.847    22199666.905
       226.000         180.000
  23994475.909     1196309.30949    934215.21745  23994475.770    23994488.408
       210.000         145.000
  20763484.895   -16889972.09949 -13149262.89548  20763484.499    20763493.557
       245.000         215.000
                   -884059.16749   -673401.08644                  24454114.019
       199.000         111.000
  22952035.173   -12893979.26149 -10032084.87246  22952035.007    22952046.809
       228.000         174.000
  21948808.205   -12117937.65949  -9431085.80646  21948808.596    21948817.724
       231.000         185.000
 00  3 15  2 57  0.0000000  0  7G17G26G22G23G29G21G 6
  20725674.800   -26560765.53149 -20474483.71748  20725674.074    20725683.227
       243.000         213.000
  22209892.356   -17185636.90149 -12924068.30346  22209892.901    22209901.565
       227.000         179.000
  24002469.351     1238316.01349    966947.69145  24002470.066    24002484.664
       212.000         146.000
  20761684.581   -16899432.49449 -13156634.56148  20761684.035    20761692.680
       245.000         215.000
  24433427.003     -992679.75148   -758039.71844  24433425.412    24433442.686
       194.000         128.000
  22939472.967   -12959993.21749 -10083524.11846  22939472.354    22939483.287
       226.000         173.000
  21965810.451   -12028590.79649  -9361464.89046  21965810.726    21965819.941
       230.000         185.000
 00  3 15  2 57 30.0000000  0  7G17G26G22G23G29G21G 6
  20726323.834   -26557354.74249 -20471825.90548  20726323.515    20726332.345
       244.000         213.000
  22220233.371   -17131294.28949 -12881723.40046  22220233.912    22220242.665
       227.000         179.000
  24010524.329     1280645.04549    999931.35345  24010522.791    24010538.249
       211.000         147.000
  20759944.620   -16908575.85549 -13163759.19248  20759944.280    20759952.819
       245.000         216.000
  24412755.525    -1101301.44249   -842679.25844  24412752.653    24412772.705
       197.000         128.000
  22926948.958   -13025807.04249 -10134807.43246  22926948.194    22926960.667
       227.000         175.000
  21982877.090   -11938904.86249  -9291579.77446  21982877.131    21982887.615
       230.000         184.000
 00  3 15  2 58  0.0000000  0  7G17G26G22G23G29G21G 6
  20727014.597   -26553724.62049 -20468997.18148  20727013.937    20727022.823
       243.000         213.000
  22230679.524   -17076399.06349 -12838947.88446  22230679.791    22230688.865
       227.000         179.000
  24018641.092     1323298.93049   1033168.13945  24018640.511    24018655.522
       211.000         149.000
  20758266.718   -16917393.30949 -13170629.87448  20758266.311    20758274.763
       245.000         215.000
  24392089.384    -1209899.99049   -927300.83345  24392088.199    24392105.488
       206.000         134.000
  22914464.248   -13091413.62649 -10185929.25946  22914463.037    22914474.829
       226.000         175.000
  22000008.338   -11848880.33249  -9221430.81146  22000008.381    22000018.504
       229.000         185.000
 00  3 15  2 58 30.0000000  0  7G17G26G22G23G29G21G 6
  20727745.948   -26549880.64049 -20466001.82148  20727745.550    20727754.270
       243.000         213.000
  22241230.188   -17020954.55649 -12795744.36846  22241230.866    22241239.200
       226.000         179.000
  24026820.551     1366282.83949   1066662.08845  24026820.558    24026834.207
       213.000         150.000
  20756654.250   -16925866.33449 -13177232.16848  20756653.788    20756662.393
       245.000         215.000
  24371423.702    -1318495.96249  -1011920.35445  24371423.265    24371439.366
       210.000         142.000
  22902022.146   -13156796.21449 -10236876.54846  22902021.980    22902033.093
       229.000         176.000
  22017200.917   -11758532.39749  -9151029.85646  22017200.909    22017210.970
       230.000         185.000
 00  3 15  2 59  0.0000000  0  7G17G26G22G23G29G21G 6
  20728518.688   -26545819.98149 -20462837.61948  20728518.086    20728526.589
       243.000         213.000
  22251886.080   -16964957.60649 -12752110.36746  22251886.749    22251895.651
       227.000         179.000
  24035062.218     1409592.86249   1100410.15045  24035061.163    24035077.127
       211.000         150.000
  20755106.599   -16933998.73349 -13183569.04548  20755106.379    20755114.507
       245.000         215.000
  24350756.823    -1427101.05249  -1096547.00745  24350756.502    24350771.881
       209.000         143.000
  22889624.610   -13221945.13249 -10287641.74546  22889624.183    22889633.849
       227.000         176.000
  22034453.889   -11667867.81049  -9080382.16246  22034453.815    22034464.205
       231.000         185.000
 00  3 15  2 59 30.0000000  0  7G17G26G22G23G29G21G 6
  20729333.082   -26541539.92149 -20459502.45748  20729332.622    20729341.485
       242.000         213.000
  22262644.376   -16908422.45849 -12708056.97946  22262644.292    22262653.209
       227.000         179.000
  24043371.267     1453256.91849   1134434.09945  24043369.881    24043385.283
       212.000         151.000
  20753621.886   -16941800.62449 -13189648.38148  20753621.657    20753630.298
       244.000         215.000
  24330091.786    -1535693.47849  -1181163.77945  24330091.028    24330105.857
       207.000         139.000
  22877269.603   -13286870.74049 -10338232.94346  22877269.286    22877280.621
       228.000         177.000
  22051765.293   -11576895.91949  -9009495.00246  22051765.450    22051775.241
       231.000         185.000
 00  3 15  3  0  0.0000000  0  7G17G26G22G23G29G21G 6
  20730187.554   -26537049.33849 -20456003.25747  20730186.910    20730195.776
       242.000         212.000
  22273502.335   -16851363.38649 -12663595.35446  22273502.865    22273512.431
       227.000         179.000
  24051749.316     1497283.80849   1168740.74545  24051750.130    24051762.379
       214.000         152.000
  20752201.221   -16949266.30149 -13195465.73248  20752201.150    20752209.600
       245.000         216.000
  24309429.123    -1644274.51349  -1265771.65745  24309427.414    24309442.067
       206.000         135.000
  22864957.438   -13351570.95549 -10388648.51246  22864956.330    22864968.197
       226.000         176.000
  22069130.933   -11485638.95449  -8938385.70346  22069131.318    22069140.867
       231.000         185.000
 00  3 15  3  0 30.0000000  0  7G17G26G22G23G29G21G 6
  20731083.344   -26532341.48949 -20452334.75547  20731082.870    20731091.356
       242.000         212.000
  22284460.368   -16793778.72249 -12618724.15146  22284460.669    22284470.386
       227.000         179.000
  24060194.659     1541664.79749   1203323.31245  24060195.823    24060208.309
       217.000         152.000
  20750844.469   -16956395.98149 -13201021.26848  20750844.140    20750852.642
       244.000         215.000
  24288766.957    -1752852.25349  -1350376.98645  24288766.407    24288782.037
       205.000         135.000
  22852688.410   -13416044.48249 -10438887.44846  22852688.313    22852698.429
       227.000         176.000
  22086551.231   -11394095.13049  -8867052.89046  22086550.849    22086561.146
       229.000         184.000
 00  3 15  3  1  0.0000000  0  7G17G26G22G23G29G21G 6
  20732021.610   -26527410.33149 -20448492.23947  20732021.190    20732030.070
       242.000         212.000
  22295516.916   -16735676.23349 -12573449.47146  22295516.745    22295526.224
       226.000         179.000
  24068708.824     1586406.99149   1238187.33345  24068709.869    24068721.983
       217.000         152.000
  20749548.972   -16963202.94849 -13206325.33948  20749548.556    20749557.324
       244.000         215.000
  24268105.962    -1861423.62149  -1434977.35945  24268104.231    24268121.077
       205.000         139.000
  22840459.722   -13480306.24749 -10488961.37046  22840459.509    22840470.421
       227.000         175.000
  22104028.308   -11302252.64849  -8795487.35346  22104028.390    22104037.559
       229.000         184.000
 00  3 15  3  1 30.0000000  0  7G17G26G22G23G29G21G 6
  20733002.783   -26522253.64949 -20444474.00547  20733002.051    20733011.134
       242.000         212.000
  22306669.604   -16677068.44649 -12527781.04446  22306670.014    22306678.482
       225.000         179.000
  24077290.807     1631504.76549   1273328.46245  24077289.419    24077305.048
       212.000         152.000
  20748318.439   -16969669.21149 -13211363.92348  20748317.968    20748326.520
       243.000         214.000
  24247447.721    -1969981.03449  -1519566.86445  24247445.383    24247462.617
       206.000         144.000
  22828270.086   -13544362.25649 -10538874.96046  22828269.228    22828279.003
       227.000         176.000
  22121563.474   -11210104.70949  -8723683.79046  22121563.580    22121573.464
       230.000         184.000
 00  3 15  3  2  0.0000000  0  7G17G26G22G23G29G21G 6
  20734028.287   -26516863.97849 -20440274.21347  20734027.941    20734036.632
       242.000         212.000
  22317921.438   -16617939.37749 -12481706.43346  22317921.944    22317930.756
       227.000         179.000
  24085937.800     1676944.33549   1308735.91445  24085936.513    24085952.039
       212.000         152.000
  20747155.738   -16975778.88249 -13216124.64348  20747155.313    20747164.058
       243.000         214.000
  24226790.700    -2078531.31049  -1604150.83445  24226789.263    24226805.979
       208.000         146.000
  22816125.400   -13608182.03549 -10588604.49046  22816125.055    22816136.231
       227.000         175.000
  22139162.757   -11117619.97949  -8651617.79346  22139162.387    22139173.020
       228.000         184.000
 00  3 15  3  2 30.0000000  0  7G17G26G22G23G29G21G 6
  20735103.529   -26511213.46349 -20435871.17447  20735102.997    20735112.022
       242.000         212.000
  22329272.896   -16558286.65649 -12435223.78046  22329273.136    22329283.087
       226.000         178.000
  24094650.773     1722731.45949   1344414.17145  24094650.281    24094664.627
       212.000         151.000
  20746060.915   -16981531.94049 -13220607.49348  20746060.651    20746069.035
       244.000         214.000
  24206136.071    -2187070.45849  -1688726.13745  24206134.402    24206149.924
       207.000         147.000
  22804025.478   -13671766.83349 -10638150.91446  22804025.282    22804036.282
       228.000         176.000
  22156831.389   -11024770.45549  -8579267.56046  22156831.914    22156841.205
       229.000         184.000
 00  3 15  3  3  0.0000000  0  7G17G26G22G23G29G21G 6
  20736229.870   -26505294.81549 -20431259.20048  20736229.857    20736238.455
       243.000         213.000
  22340724.009   -16498110.95149 -12388333.60646  22340724.338    22340732.963
       225.000         178.000
  24103431.614     1768874.98649   1380370.15145  24103430.183    24103444.473
       210.000         150.000
  20745035.102   -16986922.64749 -13224807.99548  20745034.851    20745043.352
       245.000         215.000
  24185488.256    -2295572.23449  -1773272.31345  24185486.856    24185503.436
       206.000         147.000
  22791971.261   -13735111.51749 -10687510.23846  22791970.747    22791982.108
       228.000         176.000
  22174569.127   -10931558.77949  -8506635.12146  22174570.155    22174579.097
       229.000         183.000
 00  3 15  3  3 30.0000000  0  7G17G26G22G23G29G21G 6
  20737407.701   -26499105.51149 -20426436.31848  20737407.082    20737416.229
       243.000         213.000
  22352275.230   -16437408.95849 -12341033.33946  22352275.252    22352285.136
       225.000         178.000
  24112278.799     1815366.83549   1416597.56745  24112278.497    24112293.225
       210.000         149.000
  20744081.236   -16991935.30149 -13228713.89848  20744080.642    20744089.362
       245.000         216.000
  24164850.604    -2404021.32749  -1857777.42545  24164848.603    24164865.244
       205.000         145.000
  22779965.667   -13798200.98149 -10736670.71146  22779964.149    22779976.010
       226.000         177.000
  22192374.157   -10837992.79849  -8433726.58846  22192374.229    22192383.516
       229.000         181.000
 00  3 15  3  4  0.0000000  0  7G17G26G22G23G29G21G 6
  20738637.465   -26492642.99449 -20421400.55548  20738637.340    20738645.713
       244.000         213.000
  22363928.014   -16376172.44549 -12293316.57046  22363928.964    22363937.301
       225.000         177.000
  24121193.736     1862215.49849   1453102.99145  24121194.295    24121208.154
       213.000         148.000
  20743196.426   -16996584.37349 -13232336.49048  20743195.954    20743204.469
       244.000         215.000
  24144224.914    -2512407.20949  -1942233.34845  24144223.392    24144239.180
       203.000         142.000
  22768008.534   -13861035.05149 -10785632.16546  22768008.486    22768018.330
       229.000         178.000
  22210246.590   -10744072.75349  -8360542.16446  22210247.795    22210256.733
       228.000         180.000
 00  3 15  3  4 30.0000000  0  7G17G26G22G23G29G21G 6
  20739918.072   -26485913.52449 -20416156.77548  20739917.604    20739925.908
       243.000         213.000
  22375682.913   -16314400.24749 -12245182.37746  22375682.837    22375693.169
       225.000         177.000
  24130174.694     1909410.91049   1489878.60045  24130174.937    24130189.840
       210.000         146.000
  20742379.895   -17000875.08549 -13235679.84748  20742379.559    20742387.724
       245.000         215.000
  24123612.729    -2620722.12049  -2026633.96545  24123612.211    24123625.706
       202.000         139.000
  22756096.696   -13923631.52149 -10834408.49546  22756096.712    22756106.690
       230.000         178.000
  22228179.933   -10649832.79949  -8287108.45746  22228180.181    22228189.352
       226.000         180.000
 00  3 15  3  5  0.0000000  0  7G17G26G22G23G29G21G 6
  20741242.648   -26478952.77749 -20410732.77948  20741241.967    20741251.081
       243.000         213.000
  22387540.587   -16252087.69549 -12196627.14346  22387540.168    22387550.232
       225.000         176.000
  24139218.614     1956936.27349   1526911.37145  24139216.858    24139232.398
       207.000         145.000
  20741631.074   -17004809.95449 -13238745.91348  20741630.558    20741639.017
       244.000         215.000
  24103012.580    -2728973.63649  -2110985.18945  24103011.462    24103026.279
       204.000         139.000
  22744234.380   -13985968.12749 -10882982.32646  22744234.014    22744244.760
       230.000         179.000
  22246168.585   -10555301.72849  -8213447.91846  22246169.168    22246179.148
       227.000         180.000
 00  3 15  3  5 30.0000000  0  7G17G26G22G23G29G21G 6
  20742608.743   -26471773.75949 -20405138.70748  20742608.241    20742616.929
       243.000         213.000
  22399499.999   -16189240.22149 -12147655.09146  22399500.868    22399510.550
       225.000         176.000
  24148322.607     2004778.53049   1564191.02545  24148322.604    24148336.774
       210.000         144.000
  20740949.033   -17008393.50049 -13241538.22348  20740948.830    20740957.505
       244.000         214.000
  24082420.537    -2837183.80449  -2195304.19745  24082419.648    24082434.615
       209.000         143.000
  22732421.592   -14048044.53449 -10931353.41146  22732420.453    22732431.565
       229.000         180.000
  22264213.481   -10460475.02849  -8139557.02346  22264213.436    22264223.711
       226.000         179.000
 00  3 15  3  6  0.0000000  0  7G17G26G22G23G29G21G 6
  20744017.877   -26464368.84349 -20399368.60048  20744017.476    20744025.970
       243.000         213.000
  22411560.557   -16125861.59249 -12098269.14646  22411560.979    22411570.742
       225.000         176.000
  24157484.287     2052924.25449   1601707.13845  24157484.232    24157498.653
       208.000         142.000
  20740330.466   -17011643.84249 -13244070.90248  20740330.058    20740338.565
       244.000         215.000
  24061834.092    -2945364.44549  -2279600.20845  24061833.409    24061847.724
       211.000         148.000
  22720657.847   -14109862.80849 -10979523.38146  22720657.586    22720667.797
       230.000         181.000
  22282315.884   -10365346.14549  -8065430.65246  22282315.774    22282325.632
       224.000         177.000
 00  3 15  3  6 30.0000000  0  7G17G26G22G23G29G21G 6
  20745469.817   -26456738.31949 -20393422.69247  20745469.340    20745477.985
       243.000         212.000
  22423720.253   -16061962.55249 -12048477.69346  22423719.962    22423729.200
       223.000         176.000
  24166701.791     2101362.09949   1639450.89145  24166701.381    24166713.062
       205.000         140.000
  20739776.692   -17014553.55849 -13246338.14848  20739776.432    20739784.685
       244.000         215.000
  24041251.087    -3053526.14949  -2363881.48745  24041249.689    24041264.003
       207.000         148.000
  22708946.242   -14171407.02649 -11027479.78246  22708946.463    22708956.478
       231.000         182.000
  22300474.406   -10269922.42449  -7991074.55046  22300474.203    22300483.914
       224.000         177.000
